[[{"header":{"parameterUnit":"m.s-1","parameterCategory":1,"la1":31.0,"la2":29.5877,"lo1":-88.7671,"lo2":-86.6584,"dy":0.0162,"dx":0.0185,"nx":115,"ny":88,"refTime":"2023-09-20T06:00:00:Z","depth":0,"parameterNumber":2,"parameterNumberName":"U-component_of_WINDS"},"data":[0.0,0.0,0.0,0.0,0.0,0.0,0.0,0.0,0.0,0.0,0.0,0.0,0.0,0.0,0.0,0.0,0.0,0.0,0.0,0.0,0.0,0.0,0.0,0.0,0.0,0.0,0.0,0.0,0.0,0.0,0.0,0.0,0.0,0.0,0.0,0.0,0.0,0.0,0.0,0.0,0.0,0.0,0.0,0.0,0.0,0.0,0.0,0.0,0.0,0.0,0.0,0.0,0.0,0.0,0.0,0.0,0.0,0.0,0.0,0.0,0.0,0.0,0.0,0.0,0.0,0.0,0.0,0.0,0.0,0.0,0.0,0.0,0.0,0.0,0.0,0.0,0.0,0.0,0.0,0.0,0.0,0.0,0.0,0.0,0.0,0.0,0.0,0.0,0.0,0.0,0.0,0.0,0.0,0.0,0.0,0.0,0.0,0.0,0.0,0.0,0.0,0.0,0.0,0.0,0.0,0.0,0.0,0.0,0.0,0.0,0.0,0.0,0.0,0.0,0.0,0.0,0.0,0.0,0.0,0.0,0.0,0.0,0.0,0.0,0.0,0.0,0.0,0.0,0.0,0.0,0.0,0.0,0.0,0.0,0.0,0.0,0.0,0.0,0.0,0.0,0.0,0.0,0.0,0.0,0.0,0.0,0.0,0.0,0.0,0.0,0.0,0.0,0.0,0.0,0.0,0.0,0.0,0.0,0.0,0.0,0.0,0.0,0.0,0.0,0.0,0.0,0.0,0.0,0.0,0.0,0.0,0.0,0.0,0.0,0.0,0.0,0.0,0.0,0.0,0.0,0.0,0.0,0.0,0.0,0.0,0.0,0.0,0.0,0.0,0.0,0.0,0.0,0.0,0.0,0.0,0.0,0.0,0.0,0.0,0.0,0.0,0.0,0.0,0.0,0.0,0.0,0.0,0.0,0.0,0.0,0.0,0.0,0.0,0.0,0.0,0.0,0.0,0.0,0.0,0.0,0.0,0.0,0.0,0.0,0.0,0.0,0.0,0.0,0.0,0.0,0.0,0.0,0.0,0.0,0.0,0.0,0.0,0.0,0.0,0.0,0.0,0.0,0.0,0.0,0.0,0.0,0.0,0.0,0.0,0.0,0.0,0.0,0.0,0.0,0.0,0.0,0.0,0.0,0.0,0.0,0.0,0.0,0.0,0.0,0.0,0.0,0.0,0.0,0.0,0.0,0.0,0.0,0.0,0.0,0.0,0.0,0.0,0.0,0.0,0.0,0.0,0.0,0.0,0.0,0.0,0.0,0.0,0.0,0.0,0.0,0.0,0.0,0.0,0.0,0.0,0.0,0.0,0.0,0.0,0.0,0.0,0.0,0.0,0.0,0.0,0.0,0.0,0.0,0.0,0.0,0.0,0.0,0.0,0.0,0.0,0.0,0.0,0.0,0.0,0.0,0.0,0.0,0.0,0.0,0.0,0.0,0.0,0.0,0.0,0.0,0.0,0.0,0.0,0.0,0.0,0.0,0.0,0.0,0.0,0.0,0.0,0.0,0.0,0.0,0.0,0.0,0.0,0.0,0.0,0.0,0.0,0.0,0.0,0.0,0.0,0.0,0.0,0.0,0.0,0.0,0.0,0.0,0.0,0.0,0.0,0.0,0.0,0.0,0.0,0.0,0.0,0.0,0.0,0.0,0.0,0.0,0.0,0.0,0.0,0.0,0.0,0.0,0.0,0.0,0.0,0.0,0.0,0.0,0.0,0.0,0.0,0.0,0.0,0.0,0.0,0.0,0.0,0.0,0.0,0.0,0.0,0.0,0.0,0.0,0.0,0.0,0.0,0.0,0.0,0.0,0.0,0.0,0.0,0.0,0.0,0.0,0.0,0.0,0.0,0.0,0.0,0.0,0.0,0.0,0.0,0.0,0.0,0.0,0.0,0.0,0.0,0.0,0.0,0.0,0.0,0.0,0.0,0.0,0.0,0.0,0.0,0.0,0.0,0.0,0.0,0.0,0.0,0.0,0.0,0.0,0.0,0.0,0.0,0.0,0.0,0.0,0.0,0.0,0.0,0.0,0.0,0.0,0.0,0.0,0.0,0.0,0.0,0.0,0.0,0.0,0.0,0.0,0.0,0.0,0.0,0.0,0.0,0.0,0.0,0.0,0.0,0.0,0.0,0.0,0.0,0.0,0.0,0.0,0.0,0.0,0.0,0.0,0.0,0.0,0.0,0.0,0.0,0.0,0.0,0.0,0.0,0.0,0.0,0.0,0.0,0.0,0.0,0.0,0.0,0.0,0.0,0.0,0.0,0.0,0.0,0.0,0.0,0.0,0.0,0.0,0.0,0.0,0.0,0.0,0.0,0.0,0.0,0.0,0.0,0.0,0.0,0.0,0.0,0.0,0.0,0.0,0.0,0.0,0.0,0.0,0.0,0.0,0.0,0.0,0.0,0.0,0.0,0.0,0.0,0.0,0.0,0.0,0.0,0.0,0.0,0.0,0.0,0.0,0.0,0.0,0.0,0.0,0.0,0.0,0.0,0.0,0.0,0.0,0.0,0.0,0.0,0.0,0.0,0.0,0.0,0.0,0.0,0.0,0.0,0.0,0.0,0.0,0.0,0.0,0.0,0.0,0.0,0.0,0.0,0.0,0.0,0.0,0.0,0.0,0.0,0.0,0.0,0.0,0.0,0.0,0.0,0.0,0.0,0.0,0.0,0.0,0.0,0.0,0.0,0.0,0.0,0.0,0.0,0.0,0.0,0.0,0.0,0.0,0.0,0.0,0.0,0.0,0.0,0.0,0.0,0.0,0.0,0.0,0.0,0.0,0.0,0.0,0.0,0.0,0.0,0.0,0.0,0.0,0.0,0.0,0.0,0.0,0.0,0.0,0.0,0.0,0.0,0.0,0.0,0.0,0.0,0.0,0.0,0.0,0.0,0.0,0.0,0.0,0.0,0.0,0.0,0.0,0.0,0.0,0.0,0.0,0.0,0.0,0.0,0.0,0.0,0.0,0.0,0.0,0.0,0.0,0.0,0.0,0.0,0.0,0.0,0.0,0.0,0.0,0.0,0.0,0.0,0.0,0.0,0.0,0.0,0.0,0.0,0.0,0.0,0.0,0.0,0.0,0.0,0.0,0.0,0.0,0.0,0.0,0.0,0.0,0.0,0.0,0.0,0.0,0.0,0.0,0.0,0.0,0.0,0.0,0.0,0.0,0.0,0.0,0.0,0.0,0.0,0.0,0.0,0.0,0.0,0.0,0.0,0.0,0.0,0.0,0.0,0.0,0.0,0.0,0.0,0.0,0.0,0.0,0.0,0.0,0.0,0.0,0.0,0.0,0.0,0.0,0.0,0.0,0.0,0.0,0.0,0.0,0.0,0.0,0.0,0.0,0.0,0.0,0.0,0.0,0.0,0.0,0.0,0.0,0.0,0.0,0.0,0.0,0.0,0.0,0.0,0.0,0.0,0.0,0.0,0.0,0.0,0.0,0.0,0.0,0.0,0.0,0.0,0.0,0.0,0.0,0.0,0.0,0.0,0.0,0.0,0.0,0.0,0.0,0.0,0.0,0.0,0.0,0.0,0.0,0.0,0.0,0.0,0.0,0.0,0.0,0.0,0.0,0.0,0.0,0.0,0.0,0.0,0.0,0.0,0.0,0.0,0.0,0.0,0.0,0.0,0.0,0.0,0.0,0.0,0.0,0.0,0.0,0.0,0.0,0.0,0.0,0.0,0.0,0.0,0.0,0.0,0.0,0.0,0.0,0.0,0.0,0.0,0.0,0.0,0.0,0.0,0.0,0.0,0.0,0.0,0.0,0.0,0.0,0.0,0.0,0.0,0.0,0.0,0.0,0.0,0.0,0.0,0.0,0.0,0.0,0.0,0.0,0.0,0.0,0.0,0.0,0.0,0.0,0.0,0.0,0.0,0.0,0.0,0.0,0.0,0.0,0.0,0.0,0.0,0.0,0.0,0.0,0.0,0.0,0.0,0.0,0.0,0.0,0.0,0.0,0.0,0.0,0.0,0.0,0.0,0.0,0.0,0.0,0.0,0.0,0.0,0.0,0.0,0.0,0.0,0.0,0.0,0.0,0.0,0.0,0.0,0.0,0.0,0.0,0.0,0.0,0.0,0.0,0.0,0.0,0.0,0.0,0.0,0.0,0.0,0.0,0.0,0.0,0.0,0.0,0.0,0.0,0.0,0.0,0.0,0.0,0.0,0.0,0.0,0.0,0.0,0.0,0.0,0.0,0.0,0.0,0.0,0.0,0.0,0.0,0.0,0.0,0.0,0.0,0.0,0.0,0.0,0.0,0.3205,0.0,0.0,0.0,0.0,0.0,0.0,0.0,0.0,0.0,0.0,0.0,0.0,0.0,0.0,0.0,0.0,0.0,0.0,0.0,0.0,0.0,0.0,0.0,0.0,0.0,0.0,0.0,0.0,0.0,0.0,0.0,0.0,0.0,0.0,0.0,0.0,0.0,0.0,0.0,0.0,0.0,0.0,0.0,0.0,0.0,0.0,0.0,0.0,0.0,0.0,0.0,0.0,0.0,0.0,0.0,0.0,0.0,0.0,0.0,0.0,0.0,0.0,0.0,0.0,0.0,0.0,0.0,0.0,0.0,0.0,0.0,0.0,0.0,0.0,0.0,0.0,0.0,0.0,0.0,0.0,0.0,0.0,0.0,0.0,0.0,0.0,0.0,0.0,0.0,0.0,0.0,0.0,0.0,0.0,0.0,0.0,0.0,0.0,0.0,0.0,0.0,0.0,0.0,0.0,0.0,0.0,0.0,0.0,0.0,0.0,0.3659,0.3733,0.3388,0.3208,0.3189,0.0,0.0,0.0,0.0,0.0,0.0,0.0,0.0,0.0,0.0,0.0,0.0,0.0,0.0,0.0,0.0,0.0,0.0,0.0,0.0,0.0,0.0,0.0,0.0,0.0,0.0,0.0,0.0,0.0,0.0,0.0,0.0,0.0,0.0,0.0,0.0,0.0,0.0,0.0,0.0,0.0,0.0,0.0,0.0,0.0,0.0,0.0,0.0,0.0,0.0,0.0,0.0,0.0,0.0,0.0,0.0,0.0,0.0,0.0,0.0,0.0,0.0,0.0,0.0,0.0,0.0,0.0,0.0,0.0,0.0,0.0,0.0,0.0,0.0,0.0,0.0,0.0,0.0,0.0,0.0,0.0,0.0,0.0,0.0,0.0,0.0,0.0,0.0,0.0,0.0,0.0,0.0,0.0,0.0,0.0,0.0,0.0,0.0,0.0,0.0,0.0,0.0,0.0,0.0,0.0,0.0,0.0,0.0,0.0,0.0,0.0,0.0,0.3138,0.2957,0.3084,0.0,0.0,0.0,0.0,0.0,0.0,0.0,0.0,0.0,0.0,0.0,0.0,0.0,0.0,0.0,0.0,0.0,0.0,0.0,0.0,0.0,0.0,0.0,0.0,0.0,0.0,0.0,0.0,0.0,0.0,0.0,0.0,0.0,0.0,0.0,0.0,0.0,0.0,0.0,0.0,0.0,0.0,0.0,0.0,0.0,0.0,0.0,0.0,0.0,0.0,0.0,0.0,0.0,0.0,0.0,0.0,0.0,0.0,0.0,0.0,0.0,0.0,0.0,0.0,0.0,0.0,0.0,0.0,0.0,0.0,0.0,0.0,0.0,0.0,0.0,0.0,0.0,0.0,0.0,0.0,0.0,0.0,0.0,0.0,0.0,0.0,0.0,0.0,0.0,0.0,0.0,0.0,0.0,0.0,0.0,0.0,0.0,0.0,0.0,0.0,0.0,0.0,0.0,0.0,0.0,0.0,0.0,0.0,0.0,0.0,0.346,0.342,0.3142,0.0,0.2769,0.0,0.0,0.0,0.0,0.0,0.0,0.0,0.0,0.0,0.0,0.0,0.0,0.0,0.0,0.0,0.0,0.0,0.0,0.0,0.0,0.0,0.0,0.0,0.0,0.0,0.0,0.0,0.0,0.0,0.0,0.0,0.0,0.0,0.0,0.0,0.0,0.0,0.0,0.0,0.0,0.0,0.0,0.0,0.0,0.0,0.0,0.0,0.0,0.0,0.0,0.0,0.0,0.0,0.0,0.0,0.0,0.0,0.0,0.0,0.0,0.0,0.0,0.0,0.0,0.0,0.0,0.0,0.0,0.0,0.0,0.0,0.0,0.0,0.0,0.0,0.0,0.0,0.0,0.0,0.0,0.0,0.0,0.0,0.0,0.0,0.0,0.0,0.0,0.0,0.0,0.0,0.0,0.0,0.0,0.0,0.0,0.0,0.0,0.0,0.0,0.0,0.0,0.0,0.0,0.0,0.0,0.0,0.0,0.0,0.0,0.3265,0.3282,0.318,0.2964,0.0,0.0,0.0,0.0,0.0,0.0,0.0,0.0,0.0,0.0,0.0,0.0,0.0,0.0,0.0,0.0,0.0,0.0,0.0,0.0,0.0,0.0,0.0,0.0,0.0,0.0,0.0,0.0,0.0,0.0,0.0,0.0,0.0,0.0,0.0,0.0,0.0,0.0,0.0,0.0,0.0,0.0,0.0,0.0,0.0,0.0,0.0,0.0,0.0,0.0,0.0,0.0,0.0,0.0,0.0,0.0,0.0,0.0,0.0,0.0,0.0,0.0,0.0,0.0,0.0,0.0,0.0,0.0,0.0,0.0,0.0,0.0,0.0,0.0,0.0,0.0,0.0,0.0,0.0,0.0,0.0,0.0,0.0,0.0,0.0,0.0,0.0,0.0,0.0,0.0,0.0,0.0,0.0,0.0,0.0,0.0,0.0,0.0,0.0,0.0,0.0,0.0,0.0,0.0,0.0,0.0,0.0,0.0,0.0,0.0,0.3269,0.3169,0.308,0.2994,0.2872,0.2695,0.0,0.0,0.0,0.0,0.0,0.0,0.0,0.0,0.0,0.0,0.0,0.0,0.0,0.0,0.0,0.0,0.0,0.0,0.0,0.0,0.0,0.0,0.0,0.0,0.0,0.0,0.0,0.0,0.0,0.0,0.0,0.0,0.0,0.0,0.0,0.0,0.0,0.0,0.0,0.0,0.0,0.0,0.0,0.0,0.0,0.0,0.0,0.0,0.0,0.0,0.0,0.0,0.0,0.0,0.0,0.0,0.0,0.0,0.0,0.0,0.0,0.0,0.0,0.0,0.0,0.0,0.0,0.0,0.0,0.0,0.0,0.0,0.0,0.0,0.0,0.0,0.0,0.0,0.0,0.0,0.0,0.0,0.0,0.0,0.0,0.0,0.0,0.0,0.0,0.0,0.0,0.0,0.0,0.0,0.0,0.0,0.0,0.0,0.0,0.0,0.0,0.0,0.0,0.0,0.0,0.0,0.0,0.0,0.3639,0.3466,0.3206,0.2842,0.2509,0.2519,0.0,0.0,0.0,0.0,0.0,0.0,0.0,0.0,0.0,0.0,0.0,0.0,0.0,0.0,0.0,0.0,0.0,0.0,0.0,0.0,0.0,0.0,0.0,0.0,0.0,0.0,0.0,0.0,0.0,0.0,0.0,0.0,0.0,0.0,0.0,0.0,0.0,0.0,0.0,0.0,0.0,0.0,0.0,0.0,0.0,0.0,0.0,0.0,0.0,0.0,0.0,0.0,0.0,0.0,0.0,0.0,0.0,0.0,0.0,0.0,0.0,0.0,0.0,0.0,0.0,0.0,0.0,0.0,0.0,0.0,0.0,0.0,0.0,0.0,0.0,0.0,0.0,0.0,0.0,0.0,0.0,0.0,0.0,0.0,0.0,0.0,0.0,0.0,0.0,0.0,0.0,0.0,0.0,0.0,0.0,0.0,0.0,0.0,0.0,0.0,0.0,0.0,0.0,0.0,0.0,0.0,0.0,0.0,0.0,0.3118,0.3008,0.2869,0.2681,0.2468,0.2372,0.0,0.0,0.0,0.0,0.0,0.0,0.0,0.0,0.0,0.0,0.0,0.0,0.0,0.0,0.0,0.0,0.0,0.0,0.0,0.0,0.0,0.0,0.0,0.0,0.0,0.0,0.0,0.0,0.0,0.0,0.0,0.0,0.0,0.0,0.0,0.0,0.0,0.0,0.0,0.0,0.0,0.0,0.0,0.0,0.0,0.0,0.0,0.0,0.0,0.0,0.0,0.0,0.0,0.0,0.0,0.0,0.0,0.0,0.0,0.0,0.0,0.0,0.0,0.0,0.0,0.0,0.0,0.0,0.0,0.0,0.0,0.0,0.0,0.0,0.0,0.0,0.0,0.0,0.0,0.0,0.0,0.0,0.0,0.0,0.0,0.0,0.0,0.0,0.0,0.0,0.0,0.0,0.0,0.0,0.0,0.0,0.0,0.0,0.0,0.0,0.0,0.0,0.0,0.0,0.0,0.0,0.0,0.0,0.0,0.2754,0.0,0.276,0.2658,0.243,0.2287,0.0,0.0,0.0,0.0,0.0,0.0,0.0,0.0,0.0,0.0,0.0,0.0,0.0,0.0,0.0,0.0,0.0,0.0,0.0,0.0,0.0,0.0,0.0,0.0,0.0,0.0,0.0,0.0,0.0,0.0,0.0,0.0,0.0,0.0,0.0,0.0,0.0,0.0,0.0,0.0,0.0,0.0,0.0,0.0,0.0,0.0,0.0,0.0,0.0,0.0,0.0,0.0,0.0,0.0,0.0,0.0,0.0,0.0,0.0,0.0,0.0,0.0,0.0,0.0,0.0,0.0,0.0,0.0,0.0,0.0,0.0,0.0,0.0,0.0,0.0,0.0,0.0,0.0,0.0,0.0,0.0,0.0,0.0,0.0,0.0,0.0,0.0,0.0,0.0,0.0,0.0,0.0,0.0,0.0,0.0,0.0,0.0,0.0,0.0,0.0,0.0,0.0,0.0,0.0,0.0,0.0,0.0,0.0,0.2497,0.2694,0.287,0.2867,0.2773,0.2336,0.2223,0.0,0.0,0.0,0.0,0.0,0.0,0.0,0.0,0.0,0.0,0.0,0.0,0.0,0.0,0.0,0.0,0.0,0.0,0.0,0.0,0.0,0.0,0.0,0.0,0.0,0.0,0.0,0.0,0.0,0.0,0.0,0.0,0.0,0.0,0.0,0.0,0.0,0.0,0.0,0.0,0.0,0.0,0.0,0.0,0.0,0.0,0.0,0.0,0.0,0.0,0.0,0.0,0.0,0.0,0.0,0.0,0.0,0.0,0.0,0.0,0.0,0.0,0.0,0.0,0.0,0.0,0.0,0.0,0.0,0.0,0.0,0.0,0.0,0.0,0.0,0.0,0.0,0.0,0.0,0.0,0.0,0.0,0.0,0.0,0.0,0.0,0.0,0.0,0.0,0.0,0.0,0.0,0.0,0.0,0.0,0.0,0.0,0.0,0.0,0.0,0.0,0.0,0.0,0.0,0.0,0.0,0.0,0.0,0.0,0.2488,0.2325,0.2274,0.2365,0.2162,0.2037,0.0,0.0,0.0,0.0,0.0,0.0,0.0,0.0,0.0,0.0,0.0,0.0,0.0,0.0,0.0,0.0,0.0,0.0,0.0,0.0,0.0,0.0,0.0,0.0,0.0,0.0,0.0,0.0,0.0,0.0,0.0,0.0,0.0,0.0,0.0,0.0,0.0,0.0,0.0,0.0,0.0,0.0,0.0,0.0,0.0,0.0,0.0,0.0,0.0,0.0,0.0,0.0,0.0,0.0,0.0,0.0,0.0,0.0,0.0,0.0,0.0,0.0,0.0,0.0,0.0,0.0,0.0,0.0,0.0,0.0,0.0,0.0,0.0,0.0,0.0,0.0,0.0,0.0,0.0,0.0,0.0,0.0,0.0,0.0,0.0,0.0,0.0,0.0,0.0,0.0,0.0,0.0,0.0,0.0,0.0,0.0,0.0,0.0,0.0,0.0,0.0,0.0,0.0,0.0,0.0,0.0,0.0,0.0,0.0,0.2307,0.2198,0.2206,0.235,0.2282,0.2216,0.2179,0.0,0.0,0.0,0.0,0.0,0.0,0.0,0.0,0.0,0.0,0.0,0.0,0.0,0.0,0.0,0.0,0.0,0.0,0.0,0.0,0.0,0.0,0.0,0.0,0.0,0.0,0.0,0.0,0.0,0.0,0.0,0.0,0.0,0.0,0.0,0.0,0.0,0.0,0.0,0.0,0.0,0.0,0.0,0.0,0.0,0.0,0.0,0.0,0.0,0.0,0.0,0.0,0.0,0.0,0.0,0.0,0.0,0.0,0.0,0.0,0.0,0.0,0.0,0.0,0.0,0.0,0.0,0.0,0.0,0.0,0.0,0.0,0.0,0.0,0.0,0.0,0.0,0.0,0.0,0.0,0.0,0.0,0.0,0.0,0.0,0.0,0.0,0.0,0.0,0.0,0.0,0.0,0.0,0.0,0.0,0.0,0.0,0.0,0.0,0.0,0.0,0.0,0.0,0.0,0.0,0.0,0.0,0.0,0.2171,0.2356,0.2503,0.2582,0.2651,0.2685,0.0,0.0,0.0,0.0,0.0,0.0,0.0,0.0,0.0,0.0,0.0,0.0,0.0,0.0,0.0,0.0,0.0,0.0,0.0,0.0,0.0,0.0,0.0,0.0,0.0,0.0,0.0,0.0,0.0,0.0,0.0,0.0,0.0,0.0,0.0,0.0,0.0,0.0,0.0,0.0,0.0,0.0,0.0,0.0,0.0,0.0,0.0,0.0,0.0,0.0,0.0,0.0,0.0,0.0,0.0,0.0,0.0,0.0,0.0,0.0,0.0,0.0,0.0,0.0,0.0,0.0,0.0,0.0,0.0,0.0,0.0,0.0,0.0,0.0,0.0,0.0,0.0,0.0,0.0,0.0,0.0,0.0,0.0,0.0,0.0,0.0,0.0,0.0,0.0,0.0,0.0,0.0,0.0,0.0,0.0,0.0,0.0,0.0,0.0,0.0,0.0,0.0,0.0,0.0,0.0,0.0,0.0,0.0,0.0,0.2095,0.1981,0.2116,0.2577,0.2655,0.2733,0.0,0.0,0.0,0.0,0.0,0.0,0.0,0.0,0.0,0.0,0.0,0.0,0.0,0.0,0.0,0.0,0.0,0.0,0.0,0.0,0.0,0.0,0.0,0.0,0.0,0.0,0.0,0.0,0.0,0.0,0.0,0.0,0.0,0.0,0.0,0.0,0.0,0.0,0.0,0.0,0.0,0.0,0.0,0.0,0.0,0.0,0.0,0.0,0.0,0.0,0.0,0.0,0.0,0.0,0.0,0.0,0.0,0.0,0.0,0.0,0.0,0.0,0.0,0.0,0.0,0.0,0.0,0.0,0.0,0.0,0.0,0.0,0.0,0.0,0.0,0.0,0.0,0.0,0.0,0.0,0.0,0.0,0.0,0.0,0.0,0.0,0.0,0.0,0.0,0.0,0.0,0.0,0.0,0.0,0.0,0.0,0.0,0.0,0.0,0.0,0.0,0.0,0.0,0.0,0.0,0.0,0.0,0.0,0.0695,0.1544,0.1381,0.1783,0.2821,0.2821,0.2939,0.0,0.0,0.0,0.0,0.0,0.0,0.0,0.0,0.0,0.0,0.0,0.0,0.0,0.0,0.0,0.0,0.0,0.0,0.0,0.0,0.0,0.0,0.0,0.0,0.0,0.0,0.0,0.0,0.0,0.0,0.0,0.0,0.0,0.0,0.0,0.0,0.0,0.0,0.0,0.0,0.0,0.0,0.0,0.0,0.0,0.0,0.0,0.0,0.0,0.0,0.0,0.0,0.0,0.0,0.0,0.0,0.0,0.0,0.0,0.0,0.0,0.0,0.0,0.0,0.0,0.0,0.0,0.0,0.0,0.0,0.0,0.0,0.0,0.0,0.0,0.0,0.0,0.0,0.0,0.0,0.0,0.0,0.0,0.0,0.0,0.0,0.0,0.0,0.0,0.0,0.0,0.0,0.0,0.0,0.0,0.0,0.0,0.0,0.0,0.0,0.0,0.0,0.0,0.0,0.0,0.0,0.0,0.0,-0.0523,0.0607,0.0592,0.138,0.2964,0.3015,0.3193,0.0,0.0,0.0,0.0,0.0,0.0,0.0,0.0,0.0,0.0,0.0,0.0,0.0,0.0,0.0,0.0,0.0,0.0,0.0,0.0,0.0,0.0,0.0,0.0,0.0,0.0,0.0,0.0,0.0,0.0,0.0,0.0,0.0,0.0,0.0,0.0,0.0,0.0,0.0,0.0,0.0,0.0,0.0,0.0,0.0,0.0,0.0,0.0,0.0,0.0,0.0,0.0,0.0,0.0,0.0,0.0,0.0,0.0,0.0,0.0,0.0,0.0,0.0,0.0,0.0,0.0,0.0,0.0,0.0,0.0,0.0,0.0,0.0,0.0,0.0,0.0,0.0,0.0,0.0,0.0,0.0,0.0,0.0,0.0,0.0,0.0,0.0,0.0,0.0,0.0,0.0,0.0,0.0,0.0,0.0,0.0,0.0,0.0,0.0,0.0,0.0,0.0,0.0,0.0,0.0,0.0,0.0,0.0,-0.0754,-0.0545,-0.029,0.0541,0.1976,0.2702,0.3438,0.0,0.0,0.0,0.0,0.0,0.0,0.0,0.0,0.0,0.0,0.0,0.0,0.0,0.0,0.0,0.0,0.0,0.0,0.0,0.0,0.0,0.0,0.0,0.0,0.0,0.0,0.0,0.0,0.0,0.0,0.0,0.0,0.0,0.0,0.0,0.0,0.0,0.0,0.0,0.0,0.0,0.0,0.0,0.0,0.0,0.0,0.0,0.0,0.4841,0.0,0.0,0.0,0.0,0.0,0.0,0.0,0.0,0.0,0.0,0.0,0.0,0.0,0.0,0.0,0.0,0.0,0.0,0.0,0.0,0.0,0.0,0.0,0.0,0.0,0.0,0.0,0.0,0.0,0.0,0.0,0.0,0.0,0.0,0.0,0.0,0.0,0.0,0.0,0.0,0.0,0.0,0.0,0.0,0.0,0.0,0.0,0.0,0.0,0.0,0.0,0.0,0.0,0.0,0.0,0.0,0.0,0.0,0.0,-0.1933,-0.1436,-0.1312,-0.0362,0.1475,0.2159,0.3011,0.0,0.0,0.0,0.0,0.0,0.0,0.0,0.0,0.0,0.0,0.0,0.0,0.0,0.0,0.0,0.0,0.0,0.0,0.0,0.0,0.0,0.0,0.0,0.0,0.0,0.0,0.0,0.0,0.0,0.0,0.0,0.0,0.0,0.0,0.0,0.0,0.0,0.0,0.0,0.0,0.0,0.0,0.0,0.0,0.0,0.0,0.0,0.0,0.0,0.0,0.0,0.0,0.0,0.0,0.0,0.0,0.0,0.0,0.0,0.0,0.0,0.0,0.0,0.0,0.0,0.0,0.0,0.0,0.0,0.0,0.0,0.0,0.0,0.0,0.0,0.0,0.0,0.0,0.0,0.0,0.0,0.0,0.0,0.0,0.0,0.0,0.0,0.0,0.0,0.0,0.0,0.0,0.0,0.0,0.0,0.0,0.0,0.0,0.0,0.0,0.0,0.0,0.0,0.0,0.0,0.0,0.0,-0.3223,-0.3195,-0.2178,-0.2176,-0.1112,0.1123,0.1522,0.2324,0.3585,0.0,0.0,0.0,0.0,0.0,0.0,0.0,0.0,0.0,0.0,0.0,0.0,0.0,0.0,0.0,0.0,0.0,0.0,0.0,0.0,0.0,0.0,0.0,0.0,0.0,0.0,0.0,0.0,0.0,0.0,0.0,0.0,0.0,0.0,0.0,0.0,0.0,0.0,0.2892,0.3108,0.0,0.0,0.0,0.0,0.0,0.0,0.0,0.0,0.469,0.0,0.0,0.0,0.0,0.0,0.0,0.0,0.0,0.0,0.0,0.0,0.0,0.0,0.0,0.0,0.0,0.0,0.0,0.0,0.0,0.0,0.0,0.0,0.0,0.0,0.0,0.0,0.0,0.0,0.0,0.0,0.0,0.0,0.0,0.0,0.0,0.0,0.0,0.0,0.0,0.0,0.0,0.0,0.0,0.0,0.0,0.0,0.0,0.0,0.0,0.0,0.0,0.0,0.0,0.0,0.0,-0.2796,-0.3335,-0.3275,-0.2614,-0.2436,-0.1474,0.0317,0.098,0.179,0.2831,0.0,0.0,0.0,0.0,0.0,0.0,0.0,0.0,0.0,0.0,0.0,0.0,0.0,0.0,0.0,0.0,0.0,0.0,0.0,0.0,0.0,0.0,0.0,0.0,0.0,0.0,0.0,0.0,0.0,0.0,0.0,0.0,0.0,0.0,0.0,0.0,0.0,0.0,0.0,0.282,0.3081,0.0,0.0,0.0,0.0,0.0,0.0,0.0,0.0,0.4241,0.0,0.0,0.0,0.0,0.0,0.0,0.0,0.0,0.0,0.0,0.0,0.0,0.0,0.0,0.0,0.0,0.0,0.0,0.0,0.0,0.0,0.0,0.0,0.0,0.0,0.0,0.0,0.0,0.0,0.0,0.0,0.0,0.0,0.0,0.0,0.0,0.0,0.0,0.0,0.0,0.0,0.0,0.0,0.0,0.0,0.0,0.0,0.0,0.0,0.0,0.0,0.0,0.0,0.0,0.0,-0.3221,-0.3556,-0.3523,-0.3014,-0.2818,-0.1942,-0.0363,0.0294,0.1228,0.0,0.0,0.0,0.0,0.0,0.0,0.0,0.0,0.0,0.0,0.0,0.0,0.0,0.0,0.0,0.0,0.0,0.0,0.0,0.0,0.0,0.0,0.0,0.0,0.0,0.0,0.0,0.0,0.0,0.0,0.0,0.0,0.0,0.0,0.0,0.0,0.0,0.0,0.0,0.0,0.2637,0.2882,0.3412,0.0,0.0,0.0,0.0,0.0,0.0,0.3605,0.3435,0.0,0.0,0.0,0.0,0.0,0.0,0.0,0.0,0.0,0.0,0.0,0.0,0.0,0.0,0.0,0.0,0.0,0.0,0.0,0.0,0.0,0.0,0.0,0.0,0.0,0.0,0.0,0.0,0.0,0.0,0.0,0.0,0.0,0.0,0.0,0.0,0.0,0.0,0.0,0.0,0.0,0.0,0.0,0.0,0.0,0.0,0.0,0.0,0.0,0.0,0.0,0.0,0.0,0.0,0.0,-0.3598,-0.3775,-0.361,-0.3184,-0.2888,-0.2052,-0.064,-0.0068,0.0837,0.0,0.0,0.0,0.0,0.0,0.0,0.0,0.0,0.0,0.0,0.0,0.0,0.0,0.0,0.0,0.0,0.0,0.0,0.0,0.0,0.0,0.0,0.0,0.0,0.0,0.0,0.0,0.0,0.0,0.0,0.0,0.0,0.0,0.0,0.0,0.0,0.0,0.0,0.0,0.0,0.0,0.2757,0.3163,0.2811,0.0,0.0,0.0,0.0,0.3342,0.3101,0.0,0.0,0.0,0.0,0.0,0.0,0.0,0.0,0.0,0.0,0.0,0.0,0.0,0.0,0.0,0.0,0.0,0.0,0.0,0.0,0.0,0.0,0.0,0.0,0.0,0.0,0.0,0.0,0.0,0.0,0.0,0.0,0.0,0.0,0.0,0.0,0.0,0.0,0.0,0.0,0.0,0.0,0.0,0.0,0.0,0.0,0.0,0.0,0.0,0.0,0.0,0.0,0.0,0.0,0.0,0.0,-0.391,-0.3802,-0.3401,-0.2702,-0.2152,-0.1234,0.0046,0.0394,0.0923,0.0,0.0,0.0,0.0,0.0,0.0,0.0,0.0,0.0,0.0,0.0,0.0,0.0,0.0,0.0,0.0,0.0,0.0,0.0,0.0,0.0,0.0,0.0,0.0,0.0,0.0,0.0,0.0,0.0,0.0,0.0,0.0,0.0,0.0,0.0,0.0,0.0,0.0,0.0,0.0,0.0,0.2689,0.2906,0.2553,0.2518,0.0,0.0,0.3203,0.3737,0.3792,0.0,0.0,0.0,0.0,0.0,0.0,0.0,0.0,0.0,0.0,0.0,0.0,0.0,0.0,0.0,0.0,0.0,0.0,0.0,0.0,0.0,0.0,0.0,0.0,0.0,0.0,0.0,0.0,0.0,0.0,0.0,0.0,0.0,0.0,0.0,0.0,0.0,0.0,0.0,0.0,0.0,0.0,0.0,0.0,0.0,0.0,0.0,0.0,0.0,0.0,0.0,0.0,0.0,0.0,0.0,-0.3992,-0.4358,-0.3918,-0.3544,-0.333,-0.2508,-0.1579,-0.0523,-0.0044,0.0643,0.0,0.0,0.0,0.0,0.0,0.0,0.0,0.0,0.0,0.0,0.0,0.0,0.0,0.0,0.0,0.0,0.0,0.0,0.0,0.0,0.0,0.0,0.0,0.0,0.0,0.0,0.0,0.0,0.0,0.0,0.0,0.0,0.0,0.0,0.0,0.0,0.0,0.0,0.0,0.0,0.0,0.0,0.2409,0.2164,0.0,0.0,0.0,0.2352,0.2803,0.0,0.0,0.0,0.0,0.0,0.0,0.0,0.0,0.0,0.0,0.0,0.0,0.0,0.0,0.0,0.0,0.0,0.0,0.0,0.0,0.0,0.0,0.0,0.0,0.0,0.0,0.0,0.0,0.0,0.0,0.0,0.0,0.0,0.0,0.0,0.0,0.0,0.0,0.0,0.0,0.0,0.0,0.0,0.0,0.0,0.0,0.0,0.0,0.0,0.0,0.0,0.0,0.0,0.0,0.0,0.0,0.0,-0.4546,-0.4047,-0.3701,-0.3579,-0.2736,-0.1809,-0.0885,-0.0348,0.0,0.0,0.0,0.0,0.0,0.0,0.0,0.0,0.0,0.0,0.0,0.0,0.0,0.0,0.0,0.0,0.0,0.0,0.0,0.0,0.0,0.0,0.0,0.0,0.0,0.0,0.0,0.2239,0.0,0.0,0.0,0.0,0.0,0.0,0.0,0.0,0.0,0.0,0.0,0.0,0.0,0.0,0.2078,0.1832,0.1591,0.1566,0.0,0.0,0.1529,0.2101,0.2359,0.2259,0.0,0.0,0.0,0.0,0.0,0.0,0.0,0.0,0.0,0.0,0.0,0.0,0.0,0.0,0.0,0.0,0.0,0.0,0.0,0.0,0.0,0.0,0.0,0.0,0.0,0.0,0.0,0.0,0.0,0.0,0.0,0.0,0.0,0.0,0.0,0.0,0.0,0.0,0.0,0.0,0.0,0.0,0.0,0.0,0.0,0.0,0.0,0.0,0.0,0.0,0.0,0.0,0.0,0.0,-0.4253,-0.4241,-0.4255,-0.377,-0.2816,-0.2223,-0.1465,-0.0488,-0.0169,0.0344,0.0,0.0,0.0,0.0,0.0,0.0,0.0,0.0,0.0,0.0,0.0,0.0,0.0,0.0,0.0,0.0,0.0,0.0,0.0,0.0,0.0,0.0,0.0,0.0,0.0,0.0,0.0,0.0,0.0,0.0,0.0,0.0,0.0,0.0,0.0,0.0,0.0,0.0,0.0,0.0,0.0,0.1278,0.1249,0.0763,0.0857,0.0,0.1522,0.1274,0.2324,0.2533,0.2275,0.1294,0.0,0.0,0.0,0.0,0.0,0.0,0.0,0.0,0.0,0.0,0.0,0.0,0.0,0.0,0.0,0.0,0.0,0.0,0.0,0.0,0.0,0.0,0.0,0.0,0.0,0.0,0.0,0.0,0.0,0.0,0.0,0.0,0.0,0.0,0.0,0.0,0.0,0.0,0.0,0.0,0.0,0.0,0.0,0.0,0.0,0.0,0.0,0.0,0.0,0.0,0.0,0.0,0.0,-0.4467,-0.4786,-0.4268,-0.3864,-0.3593,-0.281,-0.2049,-0.1359,-0.0768,-0.0163,0.0,0.0,0.0,0.0,0.0,0.0,0.0,0.0,0.0,0.0,0.0,0.0,0.0,0.0,0.0,0.0,0.0,0.0,0.0,0.0,0.0,0.0,0.0,0.0,0.0,0.0,0.0,0.0,0.2169,0.1965,0.1402,0.0,0.0,0.0,0.0,0.0,0.0,0.0,0.0,0.0,0.0,0.0438,0.0187,0.0128,0.0,0.0,0.0467,0.0533,0.1069,0.1185,0.1007,0.036,0.0445,0.0,0.0,0.0,0.0,0.0,0.0,0.0,0.0,0.0,0.0,0.0,0.0,0.0,0.0,0.0,0.0,0.0,0.0,0.0,0.0,0.0,0.0,0.0,0.0,0.0,0.0,0.0,0.0,0.0,0.0,0.0,0.0,0.0,0.0,0.0,0.0,0.0,0.0,0.0,0.0,0.0,0.0,0.0,0.0,0.0,0.0,0.0,0.0,0.0,0.0,0.0,0.0,-0.4704,-0.4933,-0.4387,-0.4096,-0.4068,-0.3328,-0.2642,-0.2022,-0.1437,-0.0774,0.0,0.0,0.0,0.0,0.0,0.0,0.0,0.0,0.0,0.0,0.0,0.0,0.0,0.0,0.0,0.0,0.0,0.0,0.0,0.0,0.0,0.0,0.0,0.0,0.0,0.0,0.0,0.0,0.1709,0.1431,0.0771,0.0,0.0,0.0,0.0,0.0,0.0,0.0,0.0,0.0,0.0,-0.0564,-0.0758,-0.0641,-0.0532,-0.0495,-0.0456,-0.0306,0.0043,0.0086,-0.0127,-0.0625,0.0,0.0,0.0,0.0,0.0,0.0,0.0,0.0,0.0,0.0,0.0,0.0,0.0,0.0,0.0,0.0,0.0,0.0,0.0,0.0,0.0,0.0,0.0,0.0,0.0,0.0,0.0,0.2668,0.0,0.0,0.2267,0.0,0.0,0.0,0.0,0.0,0.0,0.0,0.0,0.0,0.0,0.0,0.0,0.0,0.0,0.0,0.0,0.0,0.0,0.0,0.0,0.0,0.0,-0.5023,-0.4351,-0.4686,-0.4482,-0.3764,-0.3573,-0.3067,-0.2251,-0.1972,-0.1414,-0.0428,0.0,0.0,0.0,0.0,0.0,0.0,0.0,0.0,0.0,0.0,0.0,0.0,0.0,0.0,0.0,0.0,0.0,0.0,0.0,0.0,0.0,0.0,0.0,0.0,0.0,0.0,0.1033,0.0735,0.0387,0.0,0.0,0.0,0.0,0.0,0.0,0.0,0.0,0.0,-0.2194,-0.1933,-0.1699,-0.1537,-0.1659,-0.1528,-0.0851,-0.1121,-0.1158,-0.0545,-0.0652,-0.0984,0.0,0.0,0.0,0.0,0.0,0.0,0.0,0.0,0.0,0.0,0.0,0.0,0.0,0.0,0.0,0.0,0.0,0.0,0.0,0.0,0.0,0.0,0.0,0.0,0.0,0.0,0.0,0.2466,0.2364,0.0,0.0,0.0,0.0,0.0,0.0,0.0,0.0,0.0,0.0,0.0,-0.0139,-0.0545,0.0,0.0,0.0,0.0,0.0,0.0,0.0,0.0,0.0,0.0,0.0,0.0,-0.5078,-0.5348,-0.4998,-0.4724,-0.4508,-0.3934,-0.3451,-0.3088,-0.2436,-0.1654,-0.0693,0.0,0.0,0.0,0.0,0.0,0.0,0.0,0.0,0.0,0.0,0.0,0.0,0.0,0.0,0.0,0.0,0.0,0.0,0.0,0.0,0.0,0.0,0.0,0.0,0.0,0.0298,0.0,0.0,0.0,0.0,0.0,0.0,0.0,0.0,0.0,0.0,-0.298,-0.3027,-0.3226,-0.3063,-0.3019,-0.3325,-0.3154,-0.2993,0.0,0.0,0.0,0.0,0.0,0.0,0.0,0.0,0.0,0.0,0.0,0.0,0.0,0.0,-0.1628,-0.1312,-0.1297,-0.1297,-0.1189,0.0,0.0,0.0,0.0,0.0,0.0,0.0,0.0,0.0,0.0,0.0,0.0,0.0,0.0,0.2244,0.22,0.2234,0.0,0.0,0.0,0.0,0.0,0.0,0.0,0.0,-0.0529,-0.0784,-0.1022,-0.1558,-0.2187,-0.2929,-0.3457,-0.3662,0.0,0.0,0.0,0.0,0.0,0.0,0.0,0.0,-0.5232,-0.5555,-0.5147,-0.4892,-0.4822,-0.4289,-0.3841,-0.3507,-0.266,-0.1863,-0.1168,-0.0554,-0.004,0.0,0.0,0.0,0.0,0.0,0.0,0.0,0.0,0.0,0.0,0.0,0.0,0.0,0.0,0.0,0.0,0.0,0.0,0.0,0.0,0.0,0.0,0.0,-0.0662,0.0,0.0,0.0,0.0,0.0,0.0,0.0,0.0,0.0,-0.3964,-0.3857,-0.3937,-0.4211,-0.4246,-0.4375,-0.476,0.0,0.0,0.0,0.0,0.0,0.0,0.0,-0.4911,-0.4838,-0.4897,-0.4945,-0.4945,-0.4517,-0.4301,-0.4574,0.0,0.0,-0.2738,-0.2619,-0.2664,-0.2561,-0.2516,-0.25,-0.2512,-0.2553,-0.2602,0.0,0.0,0.0,0.0,-0.032,0.0,0.0,0.0,0.1524,0.175,0.0,0.2214,0.0,0.0,0.0,0.0,0.0074,0.0178,0.0,0.0,-0.1261,-0.1808,-0.2695,-0.3027,-0.3605,-0.4351,-0.4861,-0.5479,-0.6109,-0.5621,0.0,0.0,0.0,0.0,0.0,0.0,-0.5469,-0.5124,-0.52,-0.5086,-0.4801,-0.4709,-0.4297,-0.3582,-0.2752,-0.2179,-0.185,-0.1236,-0.066,-0.0204,0.0019,0.0,0.0,0.0,0.0,0.0,0.0,0.0,0.0,0.0,0.0,0.0,0.0,0.0,0.0,0.0,0.0,0.0,0.0,0.0,0.0,-0.1415,0.0,0.0,0.0,0.0,0.0,0.0,0.0,0.0,0.0,-0.5179,-0.4908,-0.484,-0.4914,-0.5158,0.0,0.0,0.0,0.0,-0.5952,-0.5977,-0.5977,-0.5957,-0.5957,-0.5751,-0.5717,-0.6012,0.0,0.0,-0.6266,-0.6103,-0.5967,-0.6179,-0.6003,-0.5311,-0.3491,-0.3459,-0.3663,-0.3756,-0.387,-0.4005,-0.4099,-0.4004,-0.4008,-0.2009,0.0,0.0,0.0,0.0,-0.0332,0.0464,0.1578,0.1217,0.1373,0.1884,0.1383,0.0,0.0,0.0,0.0,0.0,0.0,-0.1268,-0.212,-0.2756,-0.3275,-0.366,-0.4533,-0.5284,-0.5893,-0.6636,-0.7375,-0.8101,-0.8349,-0.7658,-0.6056,0.0,0.0,0.0,0.0,-0.5708,-0.6371,-0.618,-0.6103,-0.622,-0.6001,-0.5468,-0.4577,-0.4112,-0.3607,-0.3089,-0.2449,-0.1942,-0.1599,-0.1226,0.0,0.0,0.0,0.0,0.0,0.0,0.0,0.0,0.0,0.0,0.0,0.0,0.0,0.0,0.0,0.0,0.0,0.0,0.0,-0.246,-0.3048,-0.3535,0.0,0.0,0.0,0.0,0.0,0.0,0.0,0.0,0.0,-0.723,-0.6532,-0.6179,0.0,0.0,-0.6763,-0.7407,-0.7159,-0.7035,-0.7477,-0.7424,0.0,-0.7405,-0.7458,-0.7472,-0.7384,-0.7197,-0.7168,-0.7412,-0.7113,-0.6866,-0.6973,-0.6574,-0.6042,-0.5569,-0.5076,-0.4864,-0.4926,-0.4739,-0.4523,-0.4574,-0.4475,-0.4378,-0.3368,-0.2767,-0.224,-0.1854,-0.1539,-0.1135,-0.0388,0.0494,0.0118,0.0235,0.0674,0.0163,-0.0431,-0.1064,-0.1216,0.0,0.0,0.0,-0.2374,-0.3082,-0.4061,-0.4601,-0.4854,-0.5976,-0.687,-0.7521,-0.8526,-0.9275,-0.9706,-1.0305,-0.9854,-0.8438,0.0,-0.6867,-0.6808,-0.6527,-0.6709,-0.7315,-0.7119,-0.7026,-0.7053,-0.6594,-0.5956,-0.5145,-0.4883,-0.4493,-0.3972,-0.3406,-0.2837,-0.2332,-0.1979,-0.1518,0.0,0.0,0.0,0.0,0.0,0.0,0.0,0.0,0.0,0.0,0.0,-0.1497,-0.2536,0.0,0.0,0.0,-0.3413,-0.3851,-0.4098,-0.4542,0.0,0.0,0.0,0.0,0.0,0.0,0.0,-0.8279,-0.8207,-0.8355,-0.8913,-0.85,-0.8052,-0.7855,-0.7896,-0.82,-0.8923,0.0,-0.8866,-0.9357,-0.9326,-0.9217,-0.9106,-0.8954,-0.8674,-0.8205,-0.8125,-0.8131,-0.8179,-0.8025,-0.7885,-0.7755,-0.7376,-0.7044,-0.7145,-0.6523,-0.5972,-0.5834,-0.5553,-0.5312,-0.5229,-0.5115,-0.506,-0.4679,-0.4435,-0.3058,-0.2657,-0.2838,-0.2022,-0.1494,-0.1213,-0.1492,-0.1428,-0.1156,-0.1353,-0.1899,-0.2702,-0.2535,0.0,-0.2855,-0.3221,-0.3663,-0.416,-0.5248,-0.5953,-0.6351,-0.7502,-0.8461,-0.9293,-1.051,-1.1076,-1.1157,-1.1692,-1.1692,-1.1067,-0.989,-0.8691,-0.7578,-0.79,-0.8056,-0.7952,-0.7906,-0.7792,-0.7603,-0.6798,-0.6082,-0.5525,-0.5315,-0.5016,-0.4635,-0.4166,-0.3533,-0.2745,-0.2473,-0.2032,-0.1395,0.0,0.0,0.0,0.0,0.0,0.0,0.0,0.0,0.0,0.0,0.0,0.0,0.0,0.0,0.0,-0.4925,0.0,-0.5831,-0.5942,0.0,0.0,0.0,-0.7008,-0.7466,-0.7678,-0.8157,-0.9087,0.0,0.0,-1.0216,-1.0578,-1.0322,-0.9113,-0.9361,-0.9846,-1.0378,-1.0637,-1.0973,-1.1208,-1.1298,-1.1219,-1.0915,-1.0454,-0.9843,-0.914,-0.8914,-0.9009,-0.8946,-0.8915,-0.8891,-0.8607,-0.83,-0.813,-0.8333,-0.7772,-0.7125,-0.6715,-0.641,-0.6214,-0.5967,-0.5949,-0.5921,-0.534,-0.5016,-0.4808,-0.4209,-0.3343,-0.3106,-0.2617,-0.1998,-0.2436,-0.2538,-0.2424,-0.3038,-0.3789,-0.4567,-0.4666,-0.4764,-0.4878,-0.4976,-0.5387,-0.6076,-0.6749,-0.7696,-0.8829,-0.9591,-1.0465,-1.1453,-1.2188,-1.2702,-1.2899,-1.3301,-1.3179,-1.2599,-1.2282,-1.1092,-0.9098,-0.797,-0.779,-0.8488,-0.8108,-0.8112,-0.8536,-0.7971,-0.7549,-0.7292,-0.6556,-0.6033,-0.5722,-0.5294,-0.4829,-0.4406,-0.391,-0.356,-0.3398,-0.3135,0.0,0.0,0.0,0.0,0.0,0.0,0.0,0.0,0.0,-0.3991,-0.5599,0.0,-0.612,0.0,-0.6396,-0.645,-0.6339,-0.7281,0.0,0.0,-0.8394,-0.9015,-0.9331,-0.9837,-1.0346,-1.0769,-1.1217,-1.1623,-1.2036,-1.215,-1.2163,-1.2029,-1.1357,-1.1066,-1.1643,-1.1417,-1.1331,-1.1753,-1.167,-1.1652,-1.2128,-1.227,-1.1983,-1.1481,-1.1012,-1.0654,-1.0501,-0.9817,-0.9258,-0.912,-0.8881,-0.8784,-0.8942,-0.8932,-0.8891,-0.8676,-0.757,-0.6594,-0.6734,-0.6614,-0.6429,-0.6494,-0.6244,-0.6305,-0.5784,-0.4893,-0.4522,-0.4262,-0.4124,-0.4296,-0.4487,-0.4732,-0.526,-0.5904,-0.6611,-0.659,-0.6595,-0.6712,-0.714,-0.7645,-0.811,-0.8886,-0.9564,-1.0132,-1.0916,-1.1697,-1.2393,-1.3146,-1.3633,-1.3855,-1.4233,-1.4137,-1.3682,-1.3337,-1.2492,-1.1189,-1.0001,-0.9702,-1.0245,-0.9718,-0.9527,-0.9635,-0.9088,-0.8653,-0.8421,-0.7461,-0.6855,-0.664,-0.6096,-0.5666,-0.5351,-0.4919,-0.4633,-0.456,-0.446,-0.4501,0.0,0.0,0.0,0.0,0.0,0.0,0.0,0.0,0.0,0.0,0.0,-0.8032,-0.8485,-0.8474,-0.8421,-0.8401,-0.9124,-0.9647,-0.9729,-1.0114,-1.0473,-1.0777,-1.1332,-1.1736,-1.186,-1.2458,-1.2934,-1.3139,-1.3276,-1.3422,-1.3577,-1.311,-1.281,-1.2911,-1.2725,-1.2736,-1.3081,-1.302,-1.2883,-1.3088,-1.3114,-1.3025,-1.2562,-1.2263,-1.2,-1.184,-1.1192,-1.0605,-1.0428,-0.9926,-0.9601,-0.9776,-0.971,-0.9669,-0.9584,-0.8852,-0.7982,-0.7564,-0.7175,-0.6828,-0.8137,-0.7885,-0.7838,-0.7552,-0.7048,-0.6374,-0.6332,-0.6746,-0.6546,-0.6917,-0.7675,-0.7847,-0.8308,-0.8874,-0.8521,-0.8423,-0.8551,-0.9391,-0.9861,-1.0034,-1.0963,-1.125,-1.1001,-1.1871,-1.2513,-1.2944,-1.3748,-1.4222,-1.4405,-1.4787,-1.4866,-1.4562,-1.383,-1.3412,-1.3308,-1.2722,-1.2283,-1.2086,-1.1643,-1.117,-1.0702,-1.0096,-0.9615,-0.9292,-0.8302,-0.7712,-0.7547,-0.6933,-0.648,-0.6224,-0.5873,-0.5628,-0.5528,-0.5704,-0.6072,0.0,-0.698,0.0,0.0,0.0,0.0,0.0,0.0,0.0,0.0,-0.9204,-0.996,-1.0697,-1.065,-1.0698,-1.0899,-1.1074,-1.1368,-1.1771,-1.1681,-1.1706,-1.2021,-1.2478,-1.2761,-1.2731,-1.3429,-1.3901,-1.3913,-1.4172,-1.4381,-1.4411,-1.452,-1.4479,-1.4202,-1.4124,-1.4232,-1.462,-1.4739,-1.448,-1.3986,-1.381,-1.3674,-1.3259,-1.3229,-1.3215,-1.3081,-1.2628,-1.2243,-1.1913,-1.1139,-1.0636,-1.0777,-1.0403,-1.016,-1.0346,-1.0051,-0.9449,-0.8408,-0.7768,-0.7325,-1.0454,-0.9959,-1.0025,-0.9761,-0.9316,-0.9596,-0.911,-0.8246,-0.8724,-0.9558,-1.0607,-1.1118,-1.1432,-1.1514,-1.1033,-1.0928,-1.1053,-1.0855,-1.0835,-1.1033,-1.1245,-1.1911,-1.2901,-1.2879,-1.3488,-1.4586,-1.4803,-1.4923,-1.4964,-1.5306,-1.555,-1.5686,-1.4789,-1.4441,-1.459,0.0,0.0,0.0,-1.1483,-1.1432,-1.1328,-1.0952,-1.0588,-1.0303,-0.9605,0.0,-0.9002,-0.8474,-0.824,-0.8361,-0.7661,0.0,0.0,0.0,0.0,0.0,0.0,0.0,0.0,0.0,0.0,0.0,-1.2802,-1.2116,-1.0205,-1.0706,-1.1272,-1.1494,-1.1949,-1.2067,-1.1668,-1.2271,-1.2545,-1.2181,-1.2661,-1.3108,-1.3403,-1.384,-1.4115,-1.4146,-1.4741,-1.5093,-1.4869,-1.5116,-1.5304,-1.5326,-1.5394,-1.5372,-1.5271,-1.4857,-1.4679,-1.4967,-1.5442,-1.5639,-1.5271,-1.5378,-1.5317,-1.5119,-1.4834,-1.4557,-1.4142,-1.3596,-1.3067,-1.2772,-1.2153,-1.17,-1.185,-1.1623,-1.139,-1.1457,-1.1012,-1.0195,-0.8932,-0.8581,-0.8356,-1.2162,-1.1845,-1.1862,-1.1697,0.0,-1.2059,-1.2017,-1.147,-1.0993,-1.1524,-1.2759,-1.263,-1.2884,-1.3337,-1.306,-1.3098,-1.3393,-1.3525,-1.3668,-1.3753,-1.3557,-1.378,-1.4393,-1.3976,-1.4232,-1.5042,-1.5233,-1.5408,-1.5637,-1.5858,-1.6075,-1.6322,-1.546,-1.5023,-1.4973,-1.4235,-1.3347,-1.2351,-1.2399,-1.2443,-1.2404,-1.1894,-1.1583,-1.1516,-1.0616,0.0,0.0,0.0,0.0,0.0,0.0,0.0,0.0,-0.9183,-0.9543,-1.0185,-1.0707,-1.1426,-1.2398,-1.2922,-1.3452,-1.4078,-1.445,-1.4048,-1.2621,-1.3121,-1.3434,-1.3343,-1.3601,-1.3558,-1.3096,-1.3257,-1.3401,-1.3411,-1.3614,-1.3995,-1.454,-1.4852,-1.5024,-1.5186,-1.5576,-1.5841,-1.5724,-1.5835,-1.5957,-1.5946,-1.6098,-1.6134,-1.5995,-1.5617,-1.5453,-1.5769,-1.6183,-1.6419,-1.6153,-1.6164,-1.6194,-1.5898,-1.572,-1.5464,-1.5104,-1.451,-1.3985,-1.3683,-1.3083,-1.2666,-1.2687,-1.2434,-1.2116,-1.2077,-1.1527,-1.0732,-0.9724,-0.9241,-0.8846,-1.3997,-1.3758,-1.3661,-1.3602,-1.3627,-1.4197,-1.4747,-1.5085,-1.3381,0.0,0.0,-1.3839,-1.4074,-1.507,-1.485,-1.4994,-1.5454,-1.5983,-1.6281,-1.6405,-1.6079,-1.5795,-1.5547,-1.5247,-1.5134,-1.5248,-1.5625,-1.5937,-1.6224,-1.6336,-1.6493,-1.6603,-1.5885,-1.5288,-1.4922,-1.4311,-1.3863,-1.36,-1.3514,-1.3495,-1.3495,-1.2794,-1.245,-1.2572,-1.1576,-1.1044,-1.1126,-1.0757,-1.0466,-1.032,-1.0259,-1.0286,-1.0392,-1.0853,-1.1513,-1.2295,-1.2772,-1.347,-1.4485,-1.4622,-1.4863,-1.5397,-1.5505,-1.5372,-1.4972,-1.5187,-1.5353,-1.5295,-1.5225,-1.5083,-1.4772,-1.459,-1.452,-1.4801,-1.4681,-1.4862,-1.5411,-1.5596,-1.5649,-1.5857,-1.6117,-1.6355,-1.627,-1.626,-1.6291,-1.6278,-1.6398,-1.6644,-1.6525,-1.6351,-1.6294,-1.6508,-1.6755,-1.6873,-1.6655,-1.6508,-1.6401,-1.6135,-1.6176,-1.6156,-1.5802,-1.5398,-1.5001,-1.4666,-1.4002,-1.3596,-1.344,-1.3076,-1.2672,-1.2554,-1.1983,-1.126,-1.0584,-0.985,-0.9222,-1.6818,-1.5988,-1.5729,-1.5814,-1.6171,-1.6202,-1.6857,-1.7678,-1.5861,-1.5677,-1.6564,-1.5953,-1.6487,-1.778,-1.6518,-1.6385,-1.7089,-1.6489,-1.6453,-1.6904,-1.6848,-1.6775,-1.6672,-1.689,-1.6688,-1.6196,-1.6764,-1.6786,-1.6386,-1.6571,-1.6732,-1.6613,-1.5916,-1.5197,-1.4576,-1.4189,-1.4071,-1.4175,-1.4014,-1.3929,-1.3889,-1.3453,-1.3119,-1.2836,-1.2511,-1.2348,-1.2321,-1.2067,-1.2012,-1.2184,-1.1986,-1.209,-1.2617,-1.2974,-1.3454,-1.4084,-1.4463,-1.4945,-1.5558,-1.5807,-1.6293,-1.7072,-1.7411,-1.7078,-1.5856,-1.547,-1.5616,-1.6265,-1.6551,-1.6661,-1.6547,-1.6867,-1.6664,-1.5813,-1.5865,-1.5898,-1.5751,-1.5929,-1.6097,-1.615,-1.6413,-1.6559,-1.6387,-1.6344,-1.628,-1.6117,-1.628,-1.6334,-1.6805,-1.6858,-1.6896,-1.6932,-1.6961,-1.6961,-1.6955,-1.6696,-1.646,-1.6146,-1.6531,-1.6626,-1.6156,-1.6112,-1.5952,-1.559,-1.4884,-1.4409,-1.42,-1.3819,-1.3342,-1.2904,-1.2553,-1.2065,-1.1252,-1.0533,-0.9844,-1.7631,-1.7456,-1.6977,-1.7337,-1.8206,-1.8035,-1.8136,-1.8325,-1.7507,-1.7351,-1.7706,-1.766,-1.8094,-1.8814,-1.8367,-1.8378,-1.8749,-1.8686,-1.869,-1.8775,-1.8596,-1.8477,-1.8478,-1.8294,-1.7997,-1.763,-1.8077,-1.8066,-1.7564,-1.7513,-1.7347,-1.7085,-1.6286,-1.5711,-1.5358,-1.5056,-1.5008,-1.5204,-1.4712,-1.4282,-1.4014,-1.3997,-1.3784,-1.3344,-1.3241,-1.3148,-1.3046,-1.2921,-1.301,-1.3345,-1.3222,-1.345,-1.4086,-1.436,-1.4776,-1.5389,-1.5654,-1.6079,-1.6685,-1.6979,-1.7386,-1.7933,-1.8093,-1.8128,-1.7975,-1.7353,-1.7231,-1.7761,-1.7667,-1.7563,-1.7687,-1.763,-1.7414,-1.6971,-1.7095,-1.7196,-1.7285,-1.7404,-1.7418,-1.7191,-1.7288,-1.7212,-1.6731,-1.6689,-1.6657,-1.6579,-1.6613,-1.6948,-1.7505,-1.7428,-1.7404,-1.7631,-1.7446,-1.7369,-1.7422,-1.7073,-1.6825,-1.6791,-1.6907,-1.6896,-1.6596,-1.6633,-1.6368,-1.5892,-1.5438,-1.5128,-1.484,-1.4387,-1.3976,-1.3681,-1.2881,-1.229,-1.1747,-1.0993,-0.9983,-1.7994,-1.8377,-1.7873,-1.844,-1.9622,-1.9656,-1.9417,-1.8995,-1.8921,-1.889,-1.8896,-1.8968,-1.928,-1.9789,-1.995,-2.0064,-2.0156,-2.0512,-2.0586,-2.0387,-2.0184,-2.0042,-1.9863,-1.9494,-1.9206,-1.8891,-1.928,-1.9234,-1.874,-1.8527,-1.8235,-1.775,-1.6997,-1.6551,-1.6361,-1.6054,-1.5944,-1.5966,-1.5545,-1.5013,-1.4404,-1.4438,-1.4292,-1.3965,-1.3865,-1.385,-1.3807,-1.3788,-1.3996,-1.4508,-1.4481,-1.4766,-1.5387,-1.5649,-1.6011,-1.6518,-1.6808,-1.7125,-1.7613,-1.7883,-1.8094,-1.8348,-1.838,-1.8747,-1.9442,-1.9022,-1.8779,-1.9035,-1.8676,-1.8453,-1.8667,-1.8469,-1.8135,-1.8197,-1.8166,-1.8198,-1.8459,-1.8589,-1.8534,-1.8192,-1.8033,-1.7765,-1.7357,-1.7163,-1.7119,-1.716,-1.7326,-1.7646,-1.8084,-1.7889,-1.7943,-1.8197,-1.7992,-1.7636,-1.7768,-1.7488,-1.7262,-1.7344,-1.7209,-1.7073,-1.6967,-1.6844,-1.6604,-1.6143,-1.596,-1.5696,-1.5395,-1.5078,-1.47,-1.4388,-1.3586,-1.2738,-1.2133,-1.1228,-1.0156,-1.8652,-1.8507,-1.8508,-1.9076,-2.0119,-2.0953,-2.1099,-2.0758,-2.0524,-2.0397,-2.0251,-1.9607,-2.0082,-2.1207,-2.0879,-2.0816,-2.1002,-2.0818,-2.0696,-2.0715,-2.0954,-2.0699,-2.0206,-2.0624,-2.0239,-1.9343,-2.0011,-1.9992,-1.9168,-1.9571,-1.9403,-1.8659,-1.8203,-1.7668,-1.7163,-1.6815,-1.6445,-1.6029,-1.6549,-1.638,-1.5558,-1.4729,-1.4457,-1.4696,-1.4406,-1.4521,-1.5042,-1.4932,-1.5268,-1.6077,-1.6,-1.6176,-1.6706,-1.7044,-1.7356,-1.7715,-1.7998,-1.8184,-1.8215,-1.8239,-1.8282,-1.8313,-1.8564,-1.8895,-1.931,-1.9277,-1.9489,-1.9861,-1.974,-1.9612,-1.9929,-2.0055,-1.9827,-1.915,-1.9035,-1.8788,-1.8393,-1.8352,-1.8512,-1.8472,-1.8323,-1.7969,-1.7969,-1.7711,-1.7548,-1.7646,-1.7699,-1.7859,-1.8186,-1.8225,-1.8318,-1.8681,-1.8379,-1.7859,-1.7696,-1.7762,-1.7631,-1.7262,-1.7303,-1.7357,-1.7233,-1.7097,-1.6874,-1.6692,-1.6483,-1.6243,-1.5901,-1.5748,-1.5577,-1.4914,-1.437,-1.3868,-1.2463,-1.142,-1.0599,-1.9269,-1.9865,-1.9682,-2.0071,-2.0864,-2.1549,-2.1639,-2.1247,-2.1001,-2.0757,-2.0567,-2.057,-2.0881,-2.1284,-2.1082,-2.1057,-2.1182,-2.1225,-2.1142,-2.1036,-2.1278,-2.1272,-2.1051,-2.1254,-2.0982,-2.038,-2.0919,-2.0792,-2.0094,-1.9858,-1.9509,-1.8979,-1.8776,-1.8502,-1.8099,-1.8258,-1.7982,-1.7227,-1.763,-1.7618,-1.7064,-1.6371,-1.594,-1.5753,-1.5618,-1.5639,-1.5918,-1.5865,-1.6348,-1.7411,-1.7451,-1.7865,-1.8839,-1.8683,-1.8562,-1.8726,-1.8441,-1.83,-1.83,-1.8432,-1.856,-1.8529,-1.8975,-1.9374,-1.9719,-1.975,-2.0033,-2.0537,-2.0276,-2.0177,-2.0626,-2.0824,-2.0697,-2.0348,-2.0284,-2.0157,-1.989,-1.9922,-1.9922,-1.9539,-1.9348,-1.9156,-1.8964,-1.8655,-1.8384,-1.8267,-1.8152,-1.8203,-1.8462,-1.8395,-1.8396,-1.8541,-1.8432,-1.8379,-1.8209,-1.8149,-1.8112,-1.8033,-1.7967,-1.7895,-1.7973,-1.7697,-1.7464,-1.718,-1.6979,-1.6696,-1.6247,-1.624,-1.6135,-1.5502,-1.4778,-1.4143,-1.2699,-1.2005,-1.1363,-1.9649,-2.0659,-2.0813,-2.112,-2.1502,-2.176,-2.1713,-2.1397,-2.1186,-2.0908,-2.068,-2.1019,-2.1227,-2.1235,-2.1397,-2.1447,-2.1354,-2.1695,-2.166,-2.1388,-2.161,-2.1706,-2.1611,-2.161,-2.1425,-2.1204,-2.1425,-2.1457,-2.1077,-2.0557,-2.0144,-1.9954,-1.9934,-1.9616,-1.9128,-1.9459,-1.9156,-1.8305,-1.8557,-1.8624,-1.8289,-1.8066,-1.7541,-1.6779,-1.6621,-1.6652,-1.6829,-1.6763,-1.7261,-1.845,-1.844,-1.8852,-1.9754,-1.9448,-1.9253,-1.9193,-1.8815,-1.8536,-1.8505,-1.8686,-1.8858,-1.8964,-1.9377,-1.9743,-2.0043,-2.017,-2.0456,-2.0843,-2.064,-2.0658,-2.0992,-2.1109,-2.1109,-2.1109,-2.1109,-2.1109,-2.1046,-2.1172,-2.1001,-2.0589,-2.0399,-2.024,-1.989,-1.9488,-1.9188,-1.9291,-1.903,-1.8959,-1.9337,-1.9324,-1.9181,-1.9199,-1.9331,-1.9124,-1.8738,-1.8512,-1.8555,-1.8673,-1.8551,-1.8392,-1.8697,-1.835,-1.7986,-1.7691,-1.7452,-1.7244,-1.6986,-1.6885,-1.6606,-1.6146,-1.5413,-1.454,-1.3706,-1.3036,-1.2376,-1.9666,-2.049,-2.1766,-2.2111,-2.1958,-2.1724,-2.1541,-2.143,-2.1182,-2.098,-2.0862,-2.0655,-2.0874,-2.1503,-2.2078,-2.2097,-2.1732,-2.2203,-2.2121,-2.1644,-2.1896,-2.1878,-2.1606,-2.1592,-2.1439,-2.1221,-2.1475,-2.1872,-2.2349,-2.2101,-2.1978,-2.1898,-2.1817,-2.1235,-2.017,-2.0036,-1.9608,-1.8782,-1.9179,-1.9274,-1.9057,-1.9456,-1.894,-1.768,-1.7173,-1.7367,-1.7827,-1.7687,-1.8024,-1.9024,-1.8882,-1.8803,-1.89,-1.9081,-1.9211,-1.9147,-1.9088,-1.9056,-1.9076,-1.9088,-1.9196,-1.9495,-1.9596,-1.9756,-2.0113,-2.0463,-2.0641,-2.0679,-2.0893,-2.1019,-2.1064,-2.1109,-2.1109,-2.1109,-2.1109,-2.1109,-2.1109,-2.133,-2.1551,-2.1457,-2.1235,-2.0969,-2.0608,-1.9985,-2.0144,-2.0475,-2.0341,-2.022,-2.084,-2.0966,-2.0908,-2.0989,-2.0863,-2.0375,-1.884,-1.8883,-1.9082,-1.9243,-1.9212,-1.8637,-1.8729,-1.8784,-1.8521,-1.8263,-1.8118,-1.7929,-1.777,-1.7458,-1.7051,-1.6525,-1.5772,-1.4997,-1.448,-1.4043,-1.3384,-1.9684,-2.0964,-2.1621,-2.1911,-2.1977,-2.1903,-2.1793,-2.1731,-2.1654,-2.1463,-2.1275,-2.1301,-2.1432,-2.1529,-2.2137,-2.22,-2.1892,-2.2103,-2.2092,-2.1896,-2.1994,-2.1961,-2.1882,-2.1873,-2.18,-2.1735,-2.18,-2.1962,-2.2221,-2.2545,-2.2415,-2.1961,-2.2221,-2.1742,-2.0651,-2.0586,-2.0288,-1.9558,-1.9853,-1.9902,-1.967,-1.9799,-1.9585,-1.9088,-1.8932,-1.8965,-1.9229,-1.9134,-1.9462,-2.0235,-2.0133,-2.0309,-2.0663,-2.0458,-2.0118,-1.9754,-1.9715,-1.9647,-1.9456,-1.9424,-1.9434,-1.956,-1.9941,-2.0199,-2.0438,-2.0876,-2.1163,-2.1004,-2.0982,-2.1077,-2.1109,-2.1109,-2.1109,-2.1109,-2.1109,-2.1109,-2.1109,-2.1204,-2.1362,-2.1583,-2.1835,-2.1853,-2.1411,-2.119,-2.1159,-2.1077,-2.0887,-2.0982,-2.1141,-2.1172,-2.1312,-2.1267,-2.1172,-2.0884,-2.0349,-2.0179,-2.0312,-2.0354,-2.0253,-1.9927,-1.9888,-1.9479,-1.9162,-1.8703,-1.8562,-1.8329,-1.8077,-1.7758,-1.7401,-1.7056,-1.6313,-1.5615,-1.5175,-1.4679,-1.4052,-1.9883,-2.1087,-2.1542,-2.1839,-2.2098,-2.2025,-2.2005,-2.2039,-2.2091,-2.195,-2.1747,-2.1922,-2.1987,-2.199,-2.2236,-2.2357,-2.2305,-2.2277,-2.2257,-2.2124,-2.2124,-2.2124,-2.2111,-2.2064,-2.2024,-2.201,-2.2024,-2.2076,-2.2353,-2.2845,-2.2832,-2.2475,-2.2881,-2.2623,-2.1892,-2.1911,-2.1725,-2.1238,-2.1188,-2.1206,-2.1039,-2.0927,-2.0944,-2.1011,-2.1045,-2.0621,-1.996,-1.9881,-2.0081,-2.0501,-2.058,-2.08,-2.1139,-2.0895,-2.0481,-2.0078,-2.0066,-2.0011,-1.9775,-1.9679,-1.9663,-1.9825,-2.0221,-2.0526,-2.0546,-2.1162,-2.1307,-2.1107,-2.1184,-2.1229,-2.1176,-2.1283,-2.1309,-2.1162,-2.1109,-2.1109,-2.1109,-2.133,-2.1632,-2.2087,-2.2449,-2.248,-2.2181,-2.2073,-2.1978,-2.1727,-2.1677,-2.1646,-2.1992,-2.217,-2.2226,-2.224,-2.243,-2.2358,-2.2125,-2.2089,-2.1538,-2.1475,-2.106,-2.0874,-2.069,-2.0255,-1.9757,-1.923,-1.8862,-1.8603,-1.8334,-1.8067,-1.7795,-1.7537,-1.694,-1.6223,-1.5739,-1.5247,-1.47,-2.0324,-2.0857,-2.1576,-2.1979,-2.2144,-2.2085,-2.2124,-2.2277,-2.2403,-2.2396,-2.2266,-2.2318,-2.2485,-2.2716,-2.2485,-2.2524,-2.2773,-2.2795,-2.2653,-2.2418,-2.2418,-2.2418,-2.2405,-2.2191,-2.2117,-2.2117,-2.2064,-2.2361,-2.2915,-2.306,-2.336,-2.3873,-2.3956,-2.3891,-2.4068,-2.3811,-2.3779,-2.3323,-2.2951,-2.2994,-2.337,-2.2917,-2.2847,-2.3147,-2.3168,-2.218,-2.0175,-2.0063,-2.0121,-2.0109,-2.0042,-1.9938,-2.0184,-2.0162,-2.0108,-2.0173,-2.0136,-2.0157,-2.0081,-1.9882,-1.9988,-2.0356,-2.0532,-2.0615,-2.0771,-2.1254,-2.1459,-2.1035,-2.1275,-2.1489,-2.1296,-2.159,-2.1697,-2.1243,-2.1221,-2.1279,-2.1271,-2.1691,-2.2338,-2.2837,-2.3041,-2.3074,-2.295,-2.2574,-2.2386,-2.2668,-2.2637,-2.2731,-2.3399,-2.3686,-2.4305,-2.4317,-2.3912,-2.3547,-2.3793,-2.3963,-2.3153,-2.2427,-2.1868,-2.1461,-2.1407,-2.1083,-2.0364,-1.9846,-1.915,-1.887,-1.8717,-1.8416,-1.8185,-1.7869,-1.728,-1.6722,-1.62,-1.5733,-1.5536,-1.9793,-2.0413,-2.0969,-2.1399,-2.1723,-2.2104,-2.2304,-2.243,-2.2862,-2.295,-2.2743,-2.2722,-2.2791,-2.2859,-2.2756,-2.2756,-2.2893,-2.2889,-2.2862,-2.276,-2.2726,-2.2746,-2.2746,-2.2666,-2.2626,-2.2626,-2.2626,-2.2727,-2.2971,-2.3408,-2.3741,-2.3757,-2.4225,-2.4276,-2.4144,-2.3909,-2.3741,-2.3803,-2.3498,-2.3507,-2.3736,-2.3658,-2.3645,-2.3713,-2.3543,-2.2991,-2.2334,-2.1846,-2.1484,-2.1198,-2.0938,-2.0801,-2.0773,-2.0868,-2.0898,-2.0927,-2.1214,-2.1169,-2.0699,-2.0568,-2.0636,-2.1022,-2.1119,-2.1232,-2.1453,-2.1859,-2.1958,-2.1587,-2.1771,-2.1756,-2.1596,-2.1783,-2.1817,-2.1489,-2.1816,-2.1943,-2.1838,-2.2167,-2.2613,-2.3001,-2.3095,-2.3089,-2.3089,-2.2808,-2.2853,-2.3041,-2.2995,-2.323,-2.3632,-2.3934,-2.4034,-2.419,-2.4203,-2.4372,-2.4316,-2.4177,-2.3629,-2.3088,-2.261,-2.2121,-2.202,-2.1695,-2.1032,-2.0272,-1.9584,-1.9164,-1.8991,-1.8787,-1.8529,-1.8105,-1.7534,-1.7032,-1.6517,-1.6164,-1.5918,-1.9725,-2.0229,-2.0773,-2.1137,-2.1398,-2.2211,-2.2468,-2.2462,-2.3071,-2.3172,-2.2954,-2.2893,-2.2893,-2.2893,-2.2893,-2.2893,-2.2893,-2.2893,-2.296,-2.3027,-2.2934,-2.296,-2.3067,-2.3188,-2.3161,-2.3046,-2.3033,-2.2966,-2.2928,-2.3372,-2.3672,-2.3908,-2.4583,-2.5021,-2.5021,-2.5201,-2.529,-2.5158,-2.4999,-2.5023,-2.5183,-2.5042,-2.4974,-2.5062,-2.4824,-2.4553,-2.438,-2.368,-2.2825,-2.1957,-2.1411,-2.1145,-2.1047,-2.1137,-2.1216,-2.1213,-2.1466,-2.1483,-2.0999,-2.0862,-2.1014,-2.1289,-2.1386,-2.1555,-2.1846,-2.2217,-2.2251,-2.2044,-2.2071,-2.2064,-2.1863,-2.2131,-2.2184,-2.1943,-2.2206,-2.2504,-2.2542,-2.2665,-2.2988,-2.3318,-2.338,-2.3327,-2.3408,-2.3325,-2.3296,-2.3281,-2.3273,-2.3412,-2.3674,-2.3914,-2.4095,-2.4319,-2.455,-2.4612,-2.4503,-2.428,-2.4001,-2.3688,-2.3356,-2.2918,-2.2603,-2.2149,-2.1538,-2.0557,-1.9763,-1.9424,-1.9211,-1.9003,-1.8748,-1.827,-1.7745,-1.7264,-1.6735,-1.6335,-1.6084,-2.0075,-2.0214,-2.0861,-2.117,-2.1333,-2.2289,-2.2549,-2.2431,-2.3022,-2.3169,-2.2934,-2.2893,-2.2928,-2.2928,-2.2928,-2.2893,-2.2928,-2.2893,-2.3014,-2.31,-2.3006,-2.302,-2.327,-2.3413,-2.3289,-2.3139,-2.3222,-2.3097,-2.2817,-2.3016,-2.3385,-2.426,-2.4933,-2.5854,-2.6288,-2.7533,-2.7416,-2.7032,-2.708,-2.7204,-2.7466,-2.6991,-2.6771,-2.7078,-2.6744,-2.6423,-2.604,-2.5124,-2.3783,-2.2121,-2.142,-2.1059,-2.0924,-2.1106,-2.1224,-2.1139,-2.1317,-2.134,-2.1089,-2.1087,-2.1184,-2.1522,-2.1599,-2.1654,-2.2157,-2.2415,-2.2465,-2.2258,-2.2352,-2.2325,-2.2178,-2.2492,-2.2666,-2.2526,-2.2504,-2.2764,-2.3397,-2.3173,-2.3168,-2.3638,-2.3699,-2.3587,-2.3843,-2.3674,-2.3545,-2.3579,-2.3531,-2.3612,-2.3931,-2.4174,-2.4619,-2.4762,-2.4776,-2.4712,-2.4573,-2.3977,-2.3717,-2.3447,-2.3206,-2.284,-2.2745,-2.2401,-2.201,-2.1001,-2.0081,-1.9731,-1.9444,-1.9223,-1.8796,-1.8163,-1.7721,-1.7377,-1.6948,-1.6534,-1.6289,-1.9994,-2.0527,-2.0735,-2.0977,-2.1289,-2.2091,-2.2388,-2.2392,-2.3042,-2.3172,-2.2941,-2.2893,-2.303,-2.3236,-2.2996,-2.303,-2.3133,-2.2996,-2.292,-2.2987,-2.2947,-2.3028,-2.3108,-2.3002,-2.2805,-2.2621,-2.3011,-2.2946,-2.2535,-2.2935,-2.3473,-2.4078,-2.4408,-2.5213,-2.6451,-2.6912,-2.7386,-2.7844,-2.7934,-2.7975,-2.8019,-2.7849,-2.7849,-2.7868,-2.7548,-2.7307,-2.7069,-2.5449,-2.3796,-2.2294,-2.148,-2.1345,-2.1705,-2.1868,-2.1935,-2.2111,-2.2233,-2.2091,-2.1692,-2.1622,-2.189,-2.2336,-2.223,-2.2563,-2.3231,-2.3137,-2.3038,-2.2905,-2.2873,-2.2619,-2.2432,-2.2679,-2.2916,-2.3079,-2.2727,-2.2705,-2.3222,-2.3003,-2.2799,-2.3177,-2.3282,-2.344,-2.358,-2.356,-2.3457,-2.3576,-2.3522,-2.3516,-2.4,-2.4027,-2.425,-2.4585,-2.4663,-2.4676,-2.4488,-2.3841,-2.3379,-2.3093,-2.2672,-2.2188,-2.2338,-2.248,-2.2167,-2.1632,-2.0589,-2.0049,-1.9731,-1.9483,-1.8836,-1.813,-1.7923,-1.7607,-1.7071,-1.6602,-1.6483,-2.0284,-2.07,-2.07,-2.0908,-2.1267,-2.1956,-2.2289,-2.2418,-2.3027,-2.3172,-2.292,-2.2893,-2.2996,-2.3167,-2.3133,-2.3099,-2.3167,-2.3133,-2.3111,-2.3086,-2.3207,-2.3236,-2.3197,-2.2983,-2.2815,-2.2609,-2.2916,-2.285,-2.2588,-2.2863,-2.3276,-2.3701,-2.4059,-2.4819,-2.576,-2.6742,-2.7254,-2.7795,-2.8262,-2.8614,-2.8471,-2.7951,-2.7706,-2.75,-2.6969,-2.6459,-2.6213,-2.469,-2.3403,-2.2656,-2.1944,-2.1735,-2.2264,-2.2342,-2.2413,-2.2525,-2.2583,-2.2313,-2.174,-2.1802,-2.2174,-2.247,-2.2553,-2.2921,-2.3332,-2.3395,-2.3257,-2.3029,-2.2929,-2.2806,-2.2686,-2.28,-2.2983,-2.3045,-2.2694,-2.27,-2.339,-2.3037,-2.2907,-2.3116,-2.3262,-2.3463,-2.3828,-2.3771,-2.3834,-2.391,-2.3825,-2.3951,-2.4195,-2.3978,-2.3972,-2.4425,-2.455,-2.4521,-2.4481,-2.3991,-2.3074,-2.2693,-2.191,-2.1452,-2.1853,-2.223,-2.2198,-2.179,-2.1001,-2.0399,-2.0081,-1.9603,-1.8836,-1.8323,-1.813,-1.7742,-1.716,-1.6849,-1.6741,-2.07,-2.07,-2.0735,-2.0908,-2.1279,-2.1909,-2.2241,-2.2423,-2.2961,-2.3121,-2.2947,-2.2893,-2.2962,-2.2962,-2.3167,-2.3236,-2.3099,-2.3304,-2.3316,-2.3324,-2.3363,-2.3328,-2.3096,-2.2991,-2.2874,-2.2737,-2.2836,-2.2716,-2.2598,-2.2659,-2.2885,-2.3252,-2.39,-2.4498,-2.5228,-2.6585,-2.7317,-2.7619,-2.8613,-2.9043,-2.8763,-2.8098,-2.7672,-2.727,-2.6431,-2.5605,-2.5171,-2.4228,-2.3665,-2.333,-2.2432,-2.2237,-2.2544,-2.265,-2.2601,-2.2521,-2.2637,-2.2285,-2.1577,-2.1868,-2.2158,-2.2375,-2.2635,-2.2855,-2.3308,-2.3417,-2.3253,-2.2942,-2.2873,-2.2873,-2.2867,-2.2893,-2.2893,-2.2901,-2.2619,-2.2788,-2.3122,-2.3122,-2.3055,-2.3337,-2.3376,-2.3778,-2.4208,-2.4458,-2.4463,-2.4247,-2.4148,-2.4136,-2.426,-2.4151,-2.4324,-2.4723,-2.4621,-2.4356,-2.4287,-2.4174,-2.3115,-2.2273,-2.1189,-2.0729,-2.1285,-2.1695,-2.1947,-2.1727,-2.0969,-2.0589,-2.0399,-1.9763,-1.8912,-1.8431,-1.8162,-1.7711,-1.7238,-1.7151,-1.7032,-2.0943,-2.07,-2.0965,-2.1151,-2.1323,-2.1961,-2.2306,-2.2358,-2.2802,-2.2974,-2.2907,-2.2893,-2.303,-2.3236,-2.3133,-2.327,-2.3707,-2.3687,-2.3393,-2.3358,-2.2994,-2.2915,-2.2782,-2.2627,-2.2298,-2.2202,-2.2178,-2.2105,-2.2187,-2.2706,-2.2834,-2.2604,-2.3367,-2.3987,-2.496,-2.6111,-2.7212,-2.7885,-2.884,-2.925,-2.9151,-2.8781,-2.8244,-2.7725,-2.729,-2.6626,-2.5975,-2.6228,-2.5715,-2.4132,-2.2884,-2.2617,-2.3088,-2.3042,-2.3055,-2.3344,-2.3075,-2.2707,-2.2352,-2.219,-2.2399,-2.2732,-2.3004,-2.3428,-2.3885,-2.3736,-2.3519,-2.3213,-2.3012,-2.2947,-2.2934,-2.2907,-2.2893,-2.2867,-2.2827,-2.2727,-2.2653,-2.2586,-2.262,-2.272,-2.2935,-2.33,-2.3984,-2.3956,-2.4092,-2.443,-2.4485,-2.4338,-2.4338,-2.4353,-2.4573,-2.491,-2.469,-2.4408,-2.4218,-2.3897,-2.2804,-2.1862,-2.0844,-2.0163,-2.0714,-2.1054,-2.1303,-2.1231,-2.0969,-2.0684,-2.043,-1.9775,-1.888,-1.8527,-1.8141,-1.7711,-1.74,-1.7368,-1.7227,-2.1051,-2.1184,-2.12,-2.149,-2.1925,-2.2203,-2.2413,-2.2585,-2.2791,-2.2893,-2.2893,-2.2893,-2.2996,-2.3167,-2.3181,-2.3612,-2.4485,-2.504,-2.5095,-2.4921,-2.449,-2.4086,-2.3542,-2.2921,-2.245,-2.2227,-2.2154,-2.2178,-2.247,-2.2806,-2.3034,-2.294,-2.3351,-2.3878,-2.4701,-2.5863,-2.6812,-2.7641,-2.8707,-2.9298,-2.9262,-2.8707,-2.797,-2.7245,-2.7027,-2.6612,-2.6233,-2.6393,-2.6198,-2.5394,-2.4369,-2.3585,-2.3497,-2.3232,-2.3296,-2.3566,-2.3296,-2.2729,-2.2385,-2.246,-2.2633,-2.2819,-2.3205,-2.3482,-2.3697,-2.3585,-2.3501,-2.3298,-2.3147,-2.3073,-2.3108,-2.2947,-2.292,-2.2893,-2.2893,-2.2827,-2.2679,-2.2512,-2.2418,-2.2485,-2.2754,-2.3288,-2.3624,-2.3723,-2.418,-2.4688,-2.4851,-2.4719,-2.4749,-2.4763,-2.4763,-2.488,-2.4719,-2.4492,-2.4239,-2.3539,-2.2402,-2.1509,-2.0668,-2.014,-2.0198,-2.0424,-2.0612,-2.0643,-2.0723,-2.0494,-2.0144,-1.9475,-1.888,-1.8387,-1.7969,-1.7711,-1.7453,-1.7238,-1.7141,-2.1184,-2.1625,-2.1533,-2.1976,-2.2636,-2.2536,-2.2638,-2.2859,-2.2893,-2.2893,-2.2893,-2.2893,-2.2893,-2.2962,-2.3338,-2.412,-2.5201,-2.6131,-2.6325,-2.6224,-2.5968,-2.5554,-2.4973,-2.4178,-2.3445,-2.2847,-2.2508,-2.2606,-2.2865,-2.3093,-2.3241,-2.3611,-2.3834,-2.4013,-2.449,-2.5768,-2.6763,-2.7252,-2.8563,-2.9298,-2.9226,-2.8454,-2.7535,-2.6648,-2.6575,-2.6612,-2.6648,-2.6721,-2.6656,-2.6953,-2.6364,-2.5312,-2.4256,-2.3641,-2.334,-2.3698,-2.345,-2.304,-2.2632,-2.2695,-2.2916,-2.2813,-2.3222,-2.3476,-2.3471,-2.3443,-2.3412,-2.3346,-2.3298,-2.3238,-2.33,-2.3046,-2.2989,-2.3065,-2.3099,-2.3099,-2.3161,-2.2971,-2.2943,-2.2546,-2.2768,-2.3208,-2.3698,-2.3995,-2.4486,-2.4916,-2.5018,-2.51,-2.51,-2.5086,-2.5012,-2.4983,-2.4851,-2.4661,-2.4392,-2.3842,-2.2605,-2.1818,-2.0899,-2.036,-2.0009,-1.9944,-2.0187,-2.049,-2.0521,-2.0215,-1.9858,-1.9392,-1.8784,-1.8226,-1.7905,-1.7711,-1.7421,-1.7109,-1.7034,-2.1687,-2.1388,-2.2448,-2.27,-2.2488,-2.291,-2.3052,-2.2886,-2.2893,-2.2893,-2.2893,-2.2893,-2.2893,-2.3065,-2.3611,-2.4633,-2.5721,-2.6549,-2.6729,-2.6763,-2.6723,-2.6564,-2.6289,-2.5589,-2.5,-2.4399,-2.3591,-2.3063,-2.3178,-2.3359,-2.3458,-2.338,-2.3839,-2.4159,-2.4739,-2.5902,-2.6946,-2.7297,-2.8583,-2.9309,-2.9237,-2.8974,-2.8346,-2.7354,-2.7463,-2.7499,-2.7571,-2.815,-2.8244,-2.7248,-2.6916,-2.6388,-2.5767,-2.539,-2.5015,-2.4589,-2.438,-2.4007,-2.3376,-2.3289,-2.3524,-2.3632,-2.3741,-2.382,-2.3902,-2.3855,-2.391,-2.3812,-2.3638,-2.3423,-2.3278,-2.3342,-2.3358,-2.3591,-2.3864,-2.3986,-2.4379,-2.4322,-2.3927,-2.3236,-2.3127,-2.3243,-2.391,-2.4394,-2.4713,-2.5086,-2.5255,-2.5255,-2.5221,-2.5153,-2.5105,-2.509,-2.5056,-2.4836,-2.4613,-2.3975,-2.3156,-2.2553,-2.1707,-2.0755,-2.0335,-1.9826,-1.9821,-2.0058,-1.9996,-1.9628,-1.9328,-1.9072,-1.8623,-1.8001,-1.784,-1.7744,-1.7389,-1.7077,-1.7109,-2.1925,-2.2288,-2.2981,-2.3214,-2.3165,-2.344,-2.3452,-2.316,-2.2996,-2.2996,-2.3065,-2.2996,-2.3147,-2.3475,-2.3782,-2.4868,-2.6216,-2.7695,-2.7881,-2.7881,-2.7947,-2.7907,-2.7689,-2.7094,-2.6867,-2.6388,-2.5285,-2.4061,-2.3666,-2.3733,-2.3799,-2.3946,-2.4239,-2.4466,-2.5005,-2.6359,-2.718,-2.7696,-2.8773,-2.9552,-2.9536,-2.9409,-2.8866,-2.8671,-2.8563,-2.8599,-2.8599,-2.8851,-2.8967,-2.8377,-2.8038,-2.7719,-2.7386,-2.7011,-2.6603,-2.5908,-2.5566,-2.512,-2.4499,-2.4433,-2.463,-2.4432,-2.4519,-2.4829,-2.5054,-2.5072,-2.4949,-2.5064,-2.5115,-2.496,-2.501,-2.4491,-2.4541,-2.4676,-2.4678,-2.4728,-2.495,-2.5018,-2.4631,-2.4088,-2.4196,-2.4385,-2.4617,-2.495,-2.5052,-2.5221,-2.5457,-2.5457,-2.5356,-2.5356,-2.5322,-2.5153,-2.5119,-2.4998,-2.4759,-2.4238,-2.3827,-2.3264,-2.2356,-2.143,-2.0656,-2.0096,-1.965,-1.9532,-1.9301,-1.9052,-1.8848,-1.8635,-1.8206,-1.7852,-1.7679,-1.7518,-1.726,-1.7077,-1.7141,-2.2217,-2.3192,-2.3479,-2.369,-2.3836,-2.4022,-2.3887,-2.3516,-2.327,-2.3236,-2.3338,-2.327,-2.3475,-2.398,-2.4547,-2.5504,-2.705,-2.8862,-2.9065,-2.8964,-2.9225,-2.9289,-2.9012,-2.8699,-2.8424,-2.832,-2.6983,-2.5896,-2.476,-2.4277,-2.4327,-2.4412,-2.4549,-2.4783,-2.532,-2.6378,-2.7268,-2.8141,-2.8927,-2.9529,-2.959,-2.9457,-2.9298,-2.9298,-2.9298,-2.9262,-2.919,-2.9226,-2.9226,-2.8927,-2.8691,-2.8547,-2.8599,-2.8372,-2.7957,-2.7401,-2.6846,-2.615,-2.5695,-2.5718,-2.5738,-2.5439,-2.5717,-2.6013,-2.6197,-2.617,-2.6312,-2.6609,-2.6435,-2.6306,-2.6082,-2.5944,-2.5805,-2.5825,-2.5584,-2.5411,-2.5648,-2.5768,-2.576,-2.5476,-2.5408,-2.5274,-2.5255,-2.5288,-2.5322,-2.5457,-2.5659,-2.5794,-2.5727,-2.5693,-2.5626,-2.5322,-2.5187,-2.5119,-2.4882,-2.4564,-2.4286,-2.408,-2.2975,-2.1857,-2.1071,-2.036,-1.9846,-1.9289,-1.8768,-1.8527,-1.8334,-1.8217,-1.7884,-1.7658,-1.7497,-1.7379,-1.7228,-1.7206,-1.7238,-2.3001,-2.3033,-2.4145,-2.4404,-2.4094,-2.4526,-2.4435,-2.3926,-2.383,-2.3645,-2.3509,-2.3741,-2.3926,-2.4425,-2.5652,-2.6866,-2.7896,-2.8592,-2.9103,-2.9187,-2.9761,-3.0053,-3.0075,-2.977,-2.9733,-2.9629,-2.8257,-2.7041,-2.6143,-2.5239,-2.4599,-2.4673,-2.4686,-2.4783,-2.5163,-2.6075,-2.6865,-2.7803,-2.8505,-2.9023,-2.9281,-2.9329,-2.9298,-2.9298,-2.9298,-2.9298,-2.9298,-2.9298,-2.9154,-2.8779,-2.8382,-2.8382,-2.8609,-2.8654,-2.8777,-2.8563,-2.806,-2.71,-2.6508,-2.6633,-2.6808,-2.6525,-2.6561,-2.6612,-2.693,-2.7074,-2.7178,-2.7335,-2.6997,-2.6795,-2.6807,-2.634,-2.6444,-2.6642,-2.6668,-2.6808,-2.6985,-2.6547,-2.6537,-2.6545,-2.6408,-2.5843,-2.551,-2.5558,-2.5592,-2.5742,-2.5876,-2.6029,-2.6029,-2.5996,-2.5895,-2.5641,-2.5371,-2.5269,-2.5153,-2.4815,-2.4593,-2.4607,-2.3557,-2.2297,-2.1506,-2.0732,-1.9733,-1.9161,-1.8587,-1.8148,-1.8063,-1.789,-1.7638,-1.7476,-1.7402,-1.7369,-1.7346,-1.7346,-1.7389,-2.3694,-2.3846,-2.4582,-2.4526,-2.4067,-2.4651,-2.4579,-2.409,-2.4,-2.402,-2.4028,-2.4162,-2.4647,-2.55,-2.6577,-2.7386,-2.8145,-2.8614,-2.8872,-2.9166,-2.9722,-3.0104,-3.0176,-3.0354,-3.0629,-3.0389,-2.9805,-2.9221,-2.8088,-2.6457,-2.5286,-2.5226,-2.4871,-2.4783,-2.52,-2.5888,-2.6842,-2.7857,-2.8764,-2.9247,-2.9285,-2.9298,-2.9298,-2.9298,-2.9298,-2.9314,-2.9314,-2.9298,-2.9102,-2.8635,-2.797,-2.755,-2.7565,-2.7342,-2.7122,-2.7203,-2.7567,-2.7473,-2.7386,-2.7494,-2.7456,-2.7441,-2.739,-2.7701,-2.813,-2.8238,-2.8269,-2.8479,-2.8279,-2.8059,-2.7947,-2.7808,-2.7826,-2.7881,-2.7628,-2.7677,-2.7776,-2.7591,-2.7365,-2.7372,-2.7292,-2.6675,-2.6176,-2.6231,-2.6347,-2.6432,-2.6499,-2.6532,-2.6398,-2.6164,-2.6063,-2.5944,-2.5674,-2.5438,-2.5322,-2.5143,-2.478,-2.4602,-2.4046,-2.288,-2.2005,-2.1147,-2.0128,-1.9274,-1.8759,-1.8337,-1.7939,-1.7631,-1.7391,-1.7358,-1.7347,-1.7433,-1.7518,-1.7583,-1.7593,-2.3776,-2.4261,-2.4691,-2.4622,-2.4344,-2.4913,-2.4796,-2.432,-2.4306,-2.4374,-2.4479,-2.4653,-2.5418,-2.6504,-2.7158,-2.7752,-2.8218,-2.8706,-2.8869,-2.9138,-2.9515,-2.9874,-3.014,-3.0532,-3.099,-3.1128,-3.062,-3.0319,-2.9627,-2.8206,-2.6712,-2.6353,-2.5769,-2.5398,-2.5497,-2.6014,-2.686,-2.8148,-2.9198,-2.9502,-2.9361,-2.9298,-2.9298,-2.9329,-2.9377,-2.9425,-2.9425,-2.9568,-2.9402,-2.8566,-2.7996,-2.7482,-2.6939,-2.6645,-2.6183,-2.6273,-2.6663,-2.7224,-2.7459,-2.767,-2.787,-2.7913,-2.8109,-2.8465,-2.9152,-2.9393,-2.9341,-2.9271,-2.915,-2.919,-2.9234,-2.8956,-2.8842,-2.8648,-2.8478,-2.8421,-2.8262,-2.8043,-2.7818,-2.7738,-2.7627,-2.7455,-2.7107,-2.7097,-2.7116,-2.7134,-2.7134,-2.7067,-2.68,-2.6465,-2.6365,-2.6231,-2.5843,-2.5607,-2.5472,-2.5326,-2.5029,-2.4703,-2.4147,-2.3437,-2.2544,-2.1486,-2.0404,-1.9675,-1.9047,-1.8429,-1.7982,-1.7575,-1.7227,-1.739,-1.7519,-1.7638,-1.7712,-1.7798,-1.7819,-2.2737,-2.3879,-2.4275,-2.4781,-2.5299,-2.5466,-2.5276,-2.4883,-2.495,-2.4795,-2.4698,-2.5114,-2.578,-2.6668,-2.7507,-2.8053,-2.8232,-2.8949,-2.9103,-2.9329,-2.9676,-2.9767,-3.0036,-3.0461,-3.1126,-3.1361,-3.1198,-3.1071,-3.0736,-2.9871,-2.8648,-2.791,-2.6914,-2.6489,-2.6206,-2.6215,-2.7045,-2.8258,-2.9284,-2.9579,-2.9377,-2.9298,-2.9314,-2.9409,-2.96,-2.9754,-2.9806,-2.9866,-2.9495,-2.8477,-2.7939,-2.7254,-2.6373,-2.6215,-2.5792,-2.5506,-2.5943,-2.639,-2.6602,-2.7327,-2.7979,-2.813,-2.8362,-2.8764,-2.9371,-2.9373,-2.942,-2.9563,-2.9409,-2.9314,-2.9298,-2.9266,-2.9171,-2.9075,-2.89,-2.8805,-2.863,-2.8376,-2.8201,-2.8103,-2.7929,-2.7691,-2.75,-2.7439,-2.7264,-2.7232,-2.72,-2.7134,-2.7067,-2.68,-2.6733,-2.6532,-2.6029,-2.5742,-2.5622,-2.5442,-2.5196,-2.4959,-2.4559,-2.3815,-2.303,-2.1934,-2.1112,-2.0127,-1.9538,-1.8777,-1.8118,-1.791,-1.7768,-1.769,-1.7744,-1.7841,-1.7981,-1.8065,-1.8089,-2.261,-2.4126,-2.3908,-2.4202,-2.4921,-2.5125,-2.5067,-2.4795,-2.4984,-2.5101,-2.5105,-2.5407,-2.5918,-2.6713,-2.7438,-2.8031,-2.829,-2.896,-2.9103,-2.9159,-2.9317,-2.9388,-2.9622,-3.0179,-3.0838,-3.1246,-3.1421,-3.1663,-3.1609,-3.1067,-3.0483,-2.9513,-2.7992,-2.6797,-2.6333,-2.6475,-2.732,-2.8161,-2.9034,-2.9373,-2.9361,-2.9314,-2.9393,-2.9647,-2.9659,-2.9912,-2.9997,-2.9455,-2.8844,-2.8071,-2.724,-2.6323,-2.5634,-2.5537,-2.5125,-2.4618,-2.5188,-2.5374,-2.5519,-2.6381,-2.7202,-2.7804,-2.8145,-2.8568,-2.9137,-2.9181,-2.9309,-2.9393,-2.9357,-2.919,-2.9298,-2.9298,-2.9266,-2.925,-2.9186,-2.9127,-2.8948,-2.8694,-2.8583,-2.8519,-2.8214,-2.7929,-2.7754,-2.758,-2.7423,-2.7248,-2.7216,-2.7167,-2.7134,-2.71,-2.6967,-2.6833,-2.6398,-2.6087,-2.5997,-2.5711,-2.5411,-2.514,-2.4882,-2.4235,-2.3525,-2.3174,-2.2298,-2.1155,-2.0138,-1.9554,-1.9002,-1.8542,-1.8259,-1.8026,-1.7992,-1.8056,-1.8207,-1.8323,-1.8293,-2.1874,-2.3455,-2.33,-2.3804,-2.4741,-2.5028,-2.495,-2.4781,-2.4984,-2.5301,-2.5632,-2.5681,-2.6055,-2.6762,-2.7479,-2.7937,-2.8288,-2.8794,-2.8992,-2.9063,-2.9095,-2.9079,-2.9344,-2.9848,-3.0593,-3.0979,-3.1608,-3.1977,-3.1429,-3.2023,-3.1088,-2.9796,-2.863,-2.7357,-2.6603,-2.6714,-2.7369,-2.8109,-2.894,-2.9405,-2.9457,-2.96,-2.9294,-2.9629,-2.9813,-2.969,-2.9548,-2.8988,-2.8474,-2.7564,-2.6558,-2.5433,-2.4906,-2.4546,-2.4239,-2.4099,-2.4175,-2.4478,-2.4753,-2.5636,-2.6813,-2.7686,-2.7948,-2.8252,-2.8521,-2.8779,-2.8846,-2.8882,-2.8902,-2.8959,-2.903,-2.9066,-2.919,-2.9194,-2.9266,-2.9202,-2.9206,-2.9012,-2.8964,-2.8936,-2.8443,-2.7845,-2.7512,-2.7292,-2.7124,-2.7039,-2.7216,-2.72,-2.7167,-2.7167,-2.7134,-2.7,-2.6767,-2.6555,-2.6423,-2.5911,-2.5434,-2.5212,-2.4941,-2.4606,-2.408,-2.3713,-2.3133,-2.1911,-2.1017,-2.0433,-1.9808,-1.9219,-1.8688,-1.8253,-1.8229,-1.8239,-1.8258,-1.8366,-1.8323,-2.0333,-2.1672,-2.2493,-2.3803,-2.528,-2.5183,-2.5052,-2.5018,-2.51,-2.5408,-2.5871,-2.5944,-2.6266,-2.6921,-2.7587,-2.792,-2.8059,-2.8526,-2.8846,-2.9004,-2.8948,-2.8996,-2.9408,-2.9929,-3.0488,-3.0684,-3.1342,-3.1515,-3.0659,-3.1326,-3.0693,-2.9647,-2.8587,-2.7834,-2.7005,-2.6969,-2.7369,-2.8154,-2.9284,-2.9701,-2.9817,-2.9881,-2.9378,-2.9486,-2.9831,-2.969,-2.9192,-2.8728,-2.8167,-2.7273,-2.6229,-2.5218,-2.4425,-2.4569,-2.4236,-2.3558,-2.3649,-2.3919,-2.4303,-2.5783,-2.6819,-2.7555,-2.7689,-2.7886,-2.804,-2.8181,-2.8166,-2.8166,-2.8093,-2.8274,-2.8475,-2.8619,-2.8743,-2.8851,-2.8851,-2.8959,-2.8891,-2.9127,-2.9012,-2.8893,-2.8222,-2.7545,-2.7191,-2.6894,-2.6737,-2.6756,-2.7095,-2.715,-2.7012,-2.68,-2.6633,-2.6599,-2.6398,-2.6369,-2.6088,-2.5817,-2.5506,-2.525,-2.4946,-2.4578,-2.419,-2.3747,-2.3099,-2.2413,-2.1794,-2.1138,-2.048,-1.9796,-1.9125,-1.85,-1.8404,-1.8355,-1.8398,-1.8387,-1.8355,-2.0406,-2.1595,-2.2975,-2.4209,-2.5164,-2.5144,-2.51,-2.51,-2.5115,-2.5335,-2.5681,-2.59,-2.6091,-2.6576,-2.7284,-2.7698,-2.7594,-2.812,-2.8511,-2.8577,-2.868,-2.8837,-2.9244,-2.9932,-3.0505,-3.0863,-3.1407,-3.1532,-3.0854,-3.1044,-3.0397,-2.9375,-2.8137,-2.7567,-2.7385,-2.7459,-2.7791,-2.8783,-2.9655,-3.0119,-3.0045,-2.9614,-2.9317,-2.952,-2.9677,-2.945,-2.8851,-2.8399,-2.7639,-2.6811,-2.5793,-2.4808,-2.4348,-2.4574,-2.4464,-2.4025,-2.409,-2.4151,-2.4631,-2.5531,-2.6057,-2.6762,-2.7225,-2.7355,-2.7622,-2.7728,-2.7631,-2.7369,-2.7202,-2.7296,-2.7426,-2.7281,-2.7318,-2.7623,-2.7768,-2.7985,-2.8114,-2.8619,-2.8804,-2.8696,-2.8228,-2.7329,-2.673,-2.6284,-2.6067,-2.5992,-2.6179,-2.6273,-2.6156,-2.5813,-2.5558,-2.5659,-2.5641,-2.5741,-2.5718,-2.5697,-2.5561,-2.5315,-2.4902,-2.4442,-2.4054,-2.3816,-2.3543,-2.3099,-2.2448,-2.1794,-2.1126,-2.0364,-1.9367,-1.8773,-1.8608,-1.8433,-1.8398,-1.8398,-1.8387,-2.0931,-2.1897,-2.3378,-2.4265,-2.474,-2.4998,-2.5144,-2.5232,-2.5261,-2.5403,-2.5725,-2.6047,-2.6208,-2.6475,-2.7057,-2.7512,-2.7329,-2.7707,-2.8313,-2.8333,-2.8503,-2.8865,-2.9383,-2.9955,-3.0543,-3.1021,-3.1507,-3.1666,-3.0971,-3.0791,-2.9645,-2.8094,-2.7203,-2.6756,-2.6749,-2.6864,-2.7607,-2.8631,-2.9555,-3.0168,-3.0178,-2.9918,-2.9367,-2.9222,-2.906,-2.8697,-2.8091,-2.7403,-2.6644,-2.5951,-2.5069,-2.4206,-2.4261,-2.4331,-2.4404,-2.4246,-2.4192,-2.4187,-2.4472,-2.4589,-2.5165,-2.602,-2.6295,-2.6542,-2.6776,-2.6757,-2.6751,-2.6583,-2.633,-2.6463,-2.6551,-2.6316,-2.6436,-2.6779,-2.7202,-2.742,-2.774,-2.8248,-2.8506,-2.8398,-2.7825,-2.6974,-2.6149,-2.5775,-2.5375,-2.5292,-2.5243,-2.534,-2.5482,-2.5235,-2.5047,-2.5183,-2.5446,-2.5705,-2.5808,-2.5775,-2.5635,-2.5413,-2.4921,-2.4408,-2.4394,-2.4238,-2.3986,-2.3782,-2.3236,-2.2619,-2.1829,-2.0965,-1.9785,-1.9052,-1.8749,-1.8608,-1.8433,-1.8398,-1.8398,-2.1771,-2.2514,-2.3551,-2.4099,-2.4302,-2.4954,-2.5286,-2.5486,-2.55,-2.5676,-2.6018,-2.631,-2.6442,-2.6601,-2.722,-2.7484,-2.7482,-2.7549,-2.7962,-2.8366,-2.844,-2.8905,-2.9388,-2.9997,-3.0118,-3.0888,-3.1268,-3.0815,-3.0736,-2.9993,-2.8337,-2.6755,-2.6421,-2.614,-2.6057,-2.629,-2.7251,-2.8469,-2.9465,-3.018,-3.0561,-3.0268,-2.9293,-2.8743,-2.823,-2.7343,-2.652,-2.5661,-2.5361,-2.4786,-2.4027,-2.3806,-2.3756,-2.38,-2.38,-2.3828,-2.3816,-2.3908,-2.3948,-2.4,-2.4268,-2.5045,-2.5466,-2.5541,-2.5684,-2.5793,-2.5838,-2.5821,-2.565,-2.5847,-2.5968,-2.6001,-2.6045,-2.6457,-2.6925,-2.721,-2.7487,-2.78,-2.8046,-2.7813,-2.7129,-2.6291,-2.5327,-2.4842,-2.5016,-2.4911,-2.4919,-2.5046,-2.5136,-2.5179,-2.5057,-2.5183,-2.5493,-2.5899,-2.5912,-2.5778,-2.5693,-2.5495,-2.4945,-2.4476,-2.4544,-2.451,-2.4224,-2.402,-2.3952,-2.327,-2.1829,-2.0827,-2.0028,-1.9448,-1.8993,-1.8643,-1.8468,-1.8398,-1.8398,-2.1726,-2.2629,-2.3628,-2.4626,-2.5474,-2.5667,-2.5632,-2.5529,-2.5719,-2.5909,-2.5997,-2.6369,-2.65,-2.6544,-2.6982,-2.7136,-2.7178,-2.7239,-2.7485,-2.7829,-2.8304,-2.8381,-2.8705,-2.9174,-2.9122,-2.9042,-2.9188,-2.9568,-2.8661,-2.8237,-2.7614,-2.609,-2.6038,-2.5939,-2.5896,-2.6003,-2.7136,-2.8276,-2.9296,-3.0268,-3.033,-2.972,-2.8861,-2.841,-2.7158,-2.6304,-2.5857,-2.5387,-2.5242,-2.4846,-2.4105,-2.3804,-2.3776,-2.38,-2.38,-2.38,-2.38,-2.38,-2.38,-2.38,-2.396,-2.424,-2.446,-2.4863,-2.5024,-2.5176,-2.5107,-2.5094,-2.4926,-2.4999,-2.5199,-2.5268,-2.5374,-2.5735,-2.6261,-2.6745,-2.7033,-2.7497,-2.7709,-2.7445,-2.6753,-2.5971,-2.4962,-2.4713,-2.4854,-2.467,-2.4616,-2.4788,-2.487,-2.4911,-2.4915,-2.5044,-2.5511,-2.5897,-2.5781,-2.5653,-2.5646,-2.5527,-2.5013,-2.4578,-2.4495,-2.4428,-2.4326,-2.4054,-2.3747,-2.2688,-2.1242,-2.0561,-2.0249,-1.968,-1.9192,-1.8854,-1.8538,-1.8503,-1.8433,-2.2261,-2.3023,-2.3762,-2.4882,-2.5948,-2.6026,-2.6029,-2.6055,-2.5883,-2.59,-2.6187,-2.6413,-2.6515,-2.6559,-2.6859,-2.702,-2.7041,-2.7054,-2.7271,-2.7719,-2.8116,-2.81,-2.8213,-2.8475,-2.8547,-2.813,-2.8133,-2.8728,-2.7668,-2.6969,-2.6399,-2.5853,-2.5916,-2.5872,-2.5889,-2.6096,-2.6763,-2.7903,-2.8999,-3.0098,-2.9912,-2.9119,-2.8686,-2.7901,-2.6385,-2.5754,-2.5479,-2.5133,-2.4893,-2.4589,-2.386,-2.3643,-2.3643,-2.3643,-2.374,-2.3752,-2.38,-2.38,-2.38,-2.38,-2.392,-2.396,-2.3932,-2.4234,-2.4535,-2.4673,-2.4699,-2.4674,-2.4301,-2.4073,-2.4252,-2.4419,-2.4648,-2.4878,-2.5494,-2.6172,-2.6668,-2.7176,-2.7204,-2.7084,-2.6485,-2.576,-2.5232,-2.4958,-2.4706,-2.4626,-2.4586,-2.4643,-2.4673,-2.4661,-2.4652,-2.4698,-2.5305,-2.5894,-2.5717,-2.5648,-2.5838,-2.5726,-2.5134,-2.4766,-2.4597,-2.4292,-2.4068,-2.3713,-2.3338,-2.2242,-2.1173,-2.0977,-2.0665,-2.0063,-1.9576,-1.9343,-1.8993,-1.8608,-1.8503,-2.3102,-2.3528,-2.4018,-2.4955,-2.5963,-2.6026,-2.634,-2.6861,-2.5873,-2.5789,-2.637,-2.6544,-2.653,-2.6486,-2.672,-2.6837,-2.6778,-2.6763,-2.6936,-2.7505,-2.7725,-2.7704,-2.7831,-2.8295,-2.797,-2.8206,-2.8116,-2.762,-2.7494,-2.6815,-2.6103,-2.5681,-2.5677,-2.5776,-2.6063,-2.6092,-2.6685,-2.7625,-2.8253,-2.8993,-2.97,-2.9242,-2.8325,-2.7278,-2.5925,-2.4773,-2.4215,-2.392,-2.384,-2.3808,-2.3711,-2.359,-2.3511,-2.3535,-2.3643,-2.3716,-2.38,-2.38,-2.38,-2.38,-2.4,-2.4052,-2.4092,-2.4108,-2.4212,-2.4271,-2.4259,-2.4626,-2.4423,-2.4556,-2.4764,-2.4585,-2.4637,-2.4893,-2.5398,-2.5937,-2.6428,-2.6706,-2.6705,-2.6504,-2.6052,-2.537,-2.5232,-2.4943,-2.4903,-2.4756,-2.4679,-2.4693,-2.4586,-2.4532,-2.4506,-2.4516,-2.5216,-2.5798,-2.5651,-2.5676,-2.6083,-2.5922,-2.5299,-2.5071,-2.495,-2.4442,-2.3761,-2.3393,-2.2987,-2.2289,-2.1484,-2.1151,-2.077,-2.0388,-2.0005,-1.9901,-1.9517,-1.8993,-1.8749,-2.2544,-2.3589,-2.4762,-2.5437,-2.5667,-2.5921,-2.6097,-2.619,-2.566,-2.5854,-2.6465,-2.6705,-2.6603,-2.6339,-2.653,-2.6574,-2.6383,-2.6471,-2.6478,-2.6911,-2.7272,-2.7235,-2.707,-2.7571,-2.7245,-2.6531,-2.6251,-2.6379,-2.6228,-2.5978,-2.5817,-2.5639,-2.5717,-2.5992,-2.6446,-2.6384,-2.6491,-2.7374,-2.7333,-2.7681,-2.8216,-2.7889,-2.703,-2.6083,-2.4866,-2.44,-2.4092,-2.4292,-2.4292,-2.4295,-2.4283,-2.4087,-2.3756,-2.3704,-2.3728,-2.3788,-2.38,-2.38,-2.38,-2.38,-2.3932,-2.392,-2.3932,-2.392,-2.3896,-2.386,-2.4074,-2.4485,-2.479,-2.5029,-2.5111,-2.484,-2.4726,-2.5048,-2.534,-2.5761,-2.6219,-2.6253,-2.6247,-2.5884,-2.5523,-2.5276,-2.5149,-2.5077,-2.5074,-2.5048,-2.4997,-2.4943,-2.473,-2.4599,-2.4559,-2.4693,-2.5304,-2.5695,-2.552,-2.5624,-2.6006,-2.5888,-2.5352,-2.5255,-2.5221,-2.4374,-2.3502,-2.3054,-2.2554,-2.1918,-2.138,-2.0943,-2.0596,-2.0422,-2.0318,-2.0179,-1.997,-1.9506,-1.9203,-2.2532,-2.3393,-2.4424,-2.5146,-2.5482,-2.5679,-2.5924,-2.6158,-2.5974,-2.6111,-2.6465,-2.6661,-2.6632,-2.6369,-2.6515,-2.6398,-2.6193,-2.6252,-2.6398,-2.6679,-2.6919,-2.6859,-2.6888,-2.6969,-2.6422,-2.574,-2.5239,-2.514,-2.5463,-2.5418,-2.5464,-2.5805,-2.6099,-2.6259,-2.6744,-2.6267,-2.6215,-2.6931,-2.64,-2.6334,-2.6653,-2.6308,-2.6215,-2.5382,-2.4719,-2.416,-2.4132,-2.4292,-2.4332,-2.431,-2.4197,-2.4004,-2.3781,-2.3809,-2.3866,-2.3844,-2.38,-2.38,-2.38,-2.38,-2.3892,-2.3932,-2.3852,-2.384,-2.4132,-2.4083,-2.3844,-2.4215,-2.4534,-2.4736,-2.4974,-2.4835,-2.5046,-2.5348,-2.5557,-2.5855,-2.6225,-2.6353,-2.6232,-2.5952,-2.5556,-2.5208,-2.5155,-2.5277,-2.5211,-2.5101,-2.5115,-2.5064,-2.4877,-2.473,-2.4653,-2.472,-2.5231,-2.5383,-2.5144,-2.5386,-2.58,-2.5612,-2.525,-2.4849,-2.4442,-2.383,-2.3208,-2.2701,-2.2172,-2.1685,-2.1185,-2.0816,-2.0712,-2.0596,-2.0492,-2.0388,-2.0214,-2.0005,-1.9645,-2.2712,-2.307,-2.3683,-2.4527,-2.5353,-2.5435,-2.5792,-2.6354,-2.6471,-2.6457,-2.6427,-2.6486,-2.6676,-2.6676,-2.6544,-2.6413,-2.6266,-2.6105,-2.6252,-2.6471,-2.6756,-2.6779,-2.6779,-2.6765,-2.629,-2.5856,-2.5382,-2.5625,-2.5998,-2.5807,-2.5851,-2.6307,-2.6325,-2.6211,-2.6319,-2.6096,-2.603,-2.6109,-2.5723,-2.5097,-2.5029,-2.5044,-2.5341,-2.5065,-2.448,-2.3892,-2.4037,-2.4145,-2.4225,-2.4228,-2.4209,-2.3912,-2.3876,-2.394,-2.3894,-2.3884,-2.38,-2.38,-2.38,-2.38,-2.4,-2.4132,-2.3932,-2.3972,-2.4212,-2.4132,-2.3892,-2.3972,-2.4292,-2.4572,-2.4771,-2.4878,-2.5184,-2.5372,-2.5583,-2.5728,-2.6024,-2.63,-2.6121,-2.5864,-2.5583,-2.5208,-2.5329,-2.5451,-2.5358,-2.5197,-2.5141,-2.5064,-2.501,-2.4903,-2.4836,-2.4723,-2.4906,-2.4905,-2.4725,-2.5038,-2.5469,-2.5056,-2.4624,-2.4158,-2.3769,-2.3474,-2.2977,-2.2219,-2.1754,-2.1483,-2.1143,-2.083,-2.0736,-2.0712,-2.0631,-2.0527,-2.0492,-2.0249,-1.9959,-2.2528,-2.3042,-2.3431,-2.4171,-2.5023,-2.5149,-2.554,-2.6091,-2.6383,-2.6369,-2.6237,-2.6369,-2.6442,-2.6193,-2.5822,-2.571,-2.5681,-2.574,-2.5895,-2.6085,-2.6457,-2.6648,-2.6816,-2.6801,-2.6619,-2.6273,-2.6047,-2.6257,-2.6301,-2.6197,-2.6243,-2.641,-2.6384,-2.6542,-2.7042,-2.6584,-2.5898,-2.5897,-2.5326,-2.4674,-2.4741,-2.4716,-2.4612,-2.436,-2.396,-2.4186,-2.4489,-2.4551,-2.4625,-2.4625,-2.4514,-2.4179,-2.409,-2.4117,-2.4139,-2.3884,-2.38,-2.38,-2.38,-2.38,-2.4,-2.396,-2.38,-2.384,-2.396,-2.396,-2.384,-2.388,-2.4172,-2.4572,-2.4771,-2.4652,-2.4826,-2.4941,-2.5114,-2.5205,-2.5397,-2.5692,-2.5742,-2.5626,-2.5481,-2.5453,-2.56,-2.5626,-2.5455,-2.5386,-2.5384,-2.5317,-2.5077,-2.501,-2.497,-2.4908,-2.479,-2.4475,-2.4318,-2.4648,-2.4911,-2.4455,-2.4073,-2.3667,-2.3397,-2.3367,-2.2876,-2.2134,-2.1732,-2.1494,-2.1152,-2.0821,-2.0785,-2.0761,-2.0712,-2.0665,-2.0643,-2.0596,-2.0353]},{"header":{"parameterUnit":"m.s-1","parameterCategory":1,"la1":31.0,"la2":29.5877,"lo1":-88.7671,"lo2":-86.6584,"dy":0.0162,"dx":0.0185,"nx":115,"ny":88,"refTime":"2023-09-20T06:00:00:Z","depth":0,"parameterNumber":3,"parameterNumberName":"V-component_of_WINDS"},"data":[0.0,0.0,0.0,0.0,0.0,0.0,0.0,0.0,0.0,0.0,0.0,0.0,0.0,0.0,0.0,0.0,0.0,0.0,0.0,0.0,0.0,0.0,0.0,0.0,0.0,0.0,0.0,0.0,0.0,0.0,0.0,0.0,0.0,0.0,0.0,0.0,0.0,0.0,0.0,0.0,0.0,0.0,0.0,0.0,0.0,0.0,0.0,0.0,0.0,0.0,0.0,0.0,0.0,0.0,0.0,0.0,0.0,0.0,0.0,0.0,0.0,0.0,0.0,0.0,0.0,0.0,0.0,0.0,0.0,0.0,0.0,0.0,0.0,0.0,0.0,0.0,0.0,0.0,0.0,0.0,0.0,0.0,0.0,0.0,0.0,0.0,0.0,0.0,0.0,0.0,0.0,0.0,0.0,0.0,0.0,0.0,0.0,0.0,0.0,0.0,0.0,0.0,0.0,0.0,0.0,0.0,0.0,0.0,0.0,0.0,0.0,0.0,0.0,0.0,0.0,0.0,0.0,0.0,0.0,0.0,0.0,0.0,0.0,0.0,0.0,0.0,0.0,0.0,0.0,0.0,0.0,0.0,0.0,0.0,0.0,0.0,0.0,0.0,0.0,0.0,0.0,0.0,0.0,0.0,0.0,0.0,0.0,0.0,0.0,0.0,0.0,0.0,0.0,0.0,0.0,0.0,0.0,0.0,0.0,0.0,0.0,0.0,0.0,0.0,0.0,0.0,0.0,0.0,0.0,0.0,0.0,0.0,0.0,0.0,0.0,0.0,0.0,0.0,0.0,0.0,0.0,0.0,0.0,0.0,0.0,0.0,0.0,0.0,0.0,0.0,0.0,0.0,0.0,0.0,0.0,0.0,0.0,0.0,0.0,0.0,0.0,0.0,0.0,0.0,0.0,0.0,0.0,0.0,0.0,0.0,0.0,0.0,0.0,0.0,0.0,0.0,0.0,0.0,0.0,0.0,0.0,0.0,0.0,0.0,0.0,0.0,0.0,0.0,0.0,0.0,0.0,0.0,0.0,0.0,0.0,0.0,0.0,0.0,0.0,0.0,0.0,0.0,0.0,0.0,0.0,0.0,0.0,0.0,0.0,0.0,0.0,0.0,0.0,0.0,0.0,0.0,0.0,0.0,0.0,0.0,0.0,0.0,0.0,0.0,0.0,0.0,0.0,0.0,0.0,0.0,0.0,0.0,0.0,0.0,0.0,0.0,0.0,0.0,0.0,0.0,0.0,0.0,0.0,0.0,0.0,0.0,0.0,0.0,0.0,0.0,0.0,0.0,0.0,0.0,0.0,0.0,0.0,0.0,0.0,0.0,0.0,0.0,0.0,0.0,0.0,0.0,0.0,0.0,0.0,0.0,0.0,0.0,0.0,0.0,0.0,0.0,0.0,0.0,0.0,0.0,0.0,0.0,0.0,0.0,0.0,0.0,0.0,0.0,0.0,0.0,0.0,0.0,0.0,0.0,0.0,0.0,0.0,0.0,0.0,0.0,0.0,0.0,0.0,0.0,0.0,0.0,0.0,0.0,0.0,0.0,0.0,0.0,0.0,0.0,0.0,0.0,0.0,0.0,0.0,0.0,0.0,0.0,0.0,0.0,0.0,0.0,0.0,0.0,0.0,0.0,0.0,0.0,0.0,0.0,0.0,0.0,0.0,0.0,0.0,0.0,0.0,0.0,0.0,0.0,0.0,0.0,0.0,0.0,0.0,0.0,0.0,0.0,0.0,0.0,0.0,0.0,0.0,0.0,0.0,0.0,0.0,0.0,0.0,0.0,0.0,0.0,0.0,0.0,0.0,0.0,0.0,0.0,0.0,0.0,0.0,0.0,0.0,0.0,0.0,0.0,0.0,0.0,0.0,0.0,0.0,0.0,0.0,0.0,0.0,0.0,0.0,0.0,0.0,0.0,0.0,0.0,0.0,0.0,0.0,0.0,0.0,0.0,0.0,0.0,0.0,0.0,0.0,0.0,0.0,0.0,0.0,0.0,0.0,0.0,0.0,0.0,0.0,0.0,0.0,0.0,0.0,0.0,0.0,0.0,0.0,0.0,0.0,0.0,0.0,0.0,0.0,0.0,0.0,0.0,0.0,0.0,0.0,0.0,0.0,0.0,0.0,0.0,0.0,0.0,0.0,0.0,0.0,0.0,0.0,0.0,0.0,0.0,0.0,0.0,0.0,0.0,0.0,0.0,0.0,0.0,0.0,0.0,0.0,0.0,0.0,0.0,0.0,0.0,0.0,0.0,0.0,0.0,0.0,0.0,0.0,0.0,0.0,0.0,0.0,0.0,0.0,0.0,0.0,0.0,0.0,0.0,0.0,0.0,0.0,0.0,0.0,0.0,0.0,0.0,0.0,0.0,0.0,0.0,0.0,0.0,0.0,0.0,0.0,0.0,0.0,0.0,0.0,0.0,0.0,0.0,0.0,0.0,0.0,0.0,0.0,0.0,0.0,0.0,0.0,0.0,0.0,0.0,0.0,0.0,0.0,0.0,0.0,0.0,0.0,0.0,0.0,0.0,0.0,0.0,0.0,0.0,0.0,0.0,0.0,0.0,0.0,0.0,0.0,0.0,0.0,0.0,0.0,0.0,0.0,0.0,0.0,0.0,0.0,0.0,0.0,0.0,0.0,0.0,0.0,0.0,0.0,0.0,0.0,0.0,0.0,0.0,0.0,0.0,0.0,0.0,0.0,0.0,0.0,0.0,0.0,0.0,0.0,0.0,0.0,0.0,0.0,0.0,0.0,0.0,0.0,0.0,0.0,0.0,0.0,0.0,0.0,0.0,0.0,0.0,0.0,0.0,0.0,0.0,0.0,0.0,0.0,0.0,0.0,0.0,0.0,0.0,0.0,0.0,0.0,0.0,0.0,0.0,0.0,0.0,0.0,0.0,0.0,0.0,0.0,0.0,0.0,0.0,0.0,0.0,0.0,0.0,0.0,0.0,0.0,0.0,0.0,0.0,0.0,0.0,0.0,0.0,0.0,0.0,0.0,0.0,0.0,0.0,0.0,0.0,0.0,0.0,0.0,0.0,0.0,0.0,0.0,0.0,0.0,0.0,0.0,0.0,0.0,0.0,0.0,0.0,0.0,0.0,0.0,0.0,0.0,0.0,0.0,0.0,0.0,0.0,0.0,0.0,0.0,0.0,0.0,0.0,0.0,0.0,0.0,0.0,0.0,0.0,0.0,0.0,0.0,0.0,0.0,0.0,0.0,0.0,0.0,0.0,0.0,0.0,0.0,0.0,0.0,0.0,0.0,0.0,0.0,0.0,0.0,0.0,0.0,0.0,0.0,0.0,0.0,0.0,0.0,0.0,0.0,0.0,0.0,0.0,0.0,0.0,0.0,0.0,0.0,0.0,0.0,0.0,0.0,0.0,0.0,0.0,0.0,0.0,0.0,0.0,0.0,0.0,0.0,0.0,0.0,0.0,0.0,0.0,0.0,0.0,0.0,0.0,0.0,0.0,0.0,0.0,0.0,0.0,0.0,0.0,0.0,0.0,0.0,0.0,0.0,0.0,0.0,0.0,0.0,0.0,0.0,0.0,0.0,0.0,0.0,0.0,0.0,0.0,0.0,0.0,0.0,0.0,0.0,0.0,0.0,0.0,0.0,0.0,0.0,0.0,0.0,0.0,0.0,0.0,0.0,0.0,0.0,0.0,0.0,0.0,0.0,0.0,0.0,0.0,0.0,0.0,0.0,0.0,0.0,0.0,0.0,0.0,0.0,0.0,0.0,0.0,0.0,0.0,0.0,0.0,0.0,0.0,0.0,0.0,0.0,0.0,0.0,0.0,0.0,0.0,0.0,0.0,0.0,0.0,0.0,0.0,0.0,0.0,0.0,0.0,0.0,0.0,0.0,0.0,0.0,0.0,0.0,0.0,0.0,0.0,0.0,0.0,0.0,0.0,0.0,0.0,0.0,0.0,0.0,0.0,0.0,0.0,0.0,0.0,0.0,0.0,0.0,0.0,0.0,0.0,0.0,0.0,0.0,0.0,0.0,0.0,0.0,0.0,0.0,0.0,0.0,0.0,0.0,0.0,0.0,0.0,0.0,0.0,0.0,0.0,0.0,0.0,0.0,0.0,0.0,0.0,0.0,0.0,0.0,0.0,0.0,0.0,0.0,0.0,0.0,0.0,0.0,0.0,0.0,0.0,0.0,0.0,0.0,0.0,0.0,0.0,0.0,0.0,0.0,0.0,0.0,0.0,0.0,0.0,0.0,0.0,0.0,0.0,0.0,0.0,0.0,0.0,0.0,0.0,1.3813,0.0,0.0,0.0,0.0,0.0,0.0,0.0,0.0,0.0,0.0,0.0,0.0,0.0,0.0,0.0,0.0,0.0,0.0,0.0,0.0,0.0,0.0,0.0,0.0,0.0,0.0,0.0,0.0,0.0,0.0,0.0,0.0,0.0,0.0,0.0,0.0,0.0,0.0,0.0,0.0,0.0,0.0,0.0,0.0,0.0,0.0,0.0,0.0,0.0,0.0,0.0,0.0,0.0,0.0,0.0,0.0,0.0,0.0,0.0,0.0,0.0,0.0,0.0,0.0,0.0,0.0,0.0,0.0,0.0,0.0,0.0,0.0,0.0,0.0,0.0,0.0,0.0,0.0,0.0,0.0,0.0,0.0,0.0,0.0,0.0,0.0,0.0,0.0,0.0,0.0,0.0,0.0,0.0,0.0,0.0,0.0,0.0,0.0,0.0,0.0,0.0,0.0,0.0,0.0,0.0,0.0,0.0,0.0,0.0,0.0,1.4989,1.4971,1.5013,1.4893,1.4497,0.0,0.0,0.0,0.0,0.0,0.0,0.0,0.0,0.0,0.0,0.0,0.0,0.0,0.0,0.0,0.0,0.0,0.0,0.0,0.0,0.0,0.0,0.0,0.0,0.0,0.0,0.0,0.0,0.0,0.0,0.0,0.0,0.0,0.0,0.0,0.0,0.0,0.0,0.0,0.0,0.0,0.0,0.0,0.0,0.0,0.0,0.0,0.0,0.0,0.0,0.0,0.0,0.0,0.0,0.0,0.0,0.0,0.0,0.0,0.0,0.0,0.0,0.0,0.0,0.0,0.0,0.0,0.0,0.0,0.0,0.0,0.0,0.0,0.0,0.0,0.0,0.0,0.0,0.0,0.0,0.0,0.0,0.0,0.0,0.0,0.0,0.0,0.0,0.0,0.0,0.0,0.0,0.0,0.0,0.0,0.0,0.0,0.0,0.0,0.0,0.0,0.0,0.0,0.0,0.0,0.0,0.0,0.0,0.0,0.0,0.0,0.0,1.5466,1.5303,1.5118,0.0,0.0,0.0,0.0,0.0,0.0,0.0,0.0,0.0,0.0,0.0,0.0,0.0,0.0,0.0,0.0,0.0,0.0,0.0,0.0,0.0,0.0,0.0,0.0,0.0,0.0,0.0,0.0,0.0,0.0,0.0,0.0,0.0,0.0,0.0,0.0,0.0,0.0,0.0,0.0,0.0,0.0,0.0,0.0,0.0,0.0,0.0,0.0,0.0,0.0,0.0,0.0,0.0,0.0,0.0,0.0,0.0,0.0,0.0,0.0,0.0,0.0,0.0,0.0,0.0,0.0,0.0,0.0,0.0,0.0,0.0,0.0,0.0,0.0,0.0,0.0,0.0,0.0,0.0,0.0,0.0,0.0,0.0,0.0,0.0,0.0,0.0,0.0,0.0,0.0,0.0,0.0,0.0,0.0,0.0,0.0,0.0,0.0,0.0,0.0,0.0,0.0,0.0,0.0,0.0,0.0,0.0,0.0,0.0,0.0,1.7394,1.7441,1.6699,0.0,1.5219,0.0,0.0,0.0,0.0,0.0,0.0,0.0,0.0,0.0,0.0,0.0,0.0,0.0,0.0,0.0,0.0,0.0,0.0,0.0,0.0,0.0,0.0,0.0,0.0,0.0,0.0,0.0,0.0,0.0,0.0,0.0,0.0,0.0,0.0,0.0,0.0,0.0,0.0,0.0,0.0,0.0,0.0,0.0,0.0,0.0,0.0,0.0,0.0,0.0,0.0,0.0,0.0,0.0,0.0,0.0,0.0,0.0,0.0,0.0,0.0,0.0,0.0,0.0,0.0,0.0,0.0,0.0,0.0,0.0,0.0,0.0,0.0,0.0,0.0,0.0,0.0,0.0,0.0,0.0,0.0,0.0,0.0,0.0,0.0,0.0,0.0,0.0,0.0,0.0,0.0,0.0,0.0,0.0,0.0,0.0,0.0,0.0,0.0,0.0,0.0,0.0,0.0,0.0,0.0,0.0,0.0,0.0,0.0,0.0,0.0,1.767,1.7706,1.7368,1.6811,0.0,0.0,0.0,0.0,0.0,0.0,0.0,0.0,0.0,0.0,0.0,0.0,0.0,0.0,0.0,0.0,0.0,0.0,0.0,0.0,0.0,0.0,0.0,0.0,0.0,0.0,0.0,0.0,0.0,0.0,0.0,0.0,0.0,0.0,0.0,0.0,0.0,0.0,0.0,0.0,0.0,0.0,0.0,0.0,0.0,0.0,0.0,0.0,0.0,0.0,0.0,0.0,0.0,0.0,0.0,0.0,0.0,0.0,0.0,0.0,0.0,0.0,0.0,0.0,0.0,0.0,0.0,0.0,0.0,0.0,0.0,0.0,0.0,0.0,0.0,0.0,0.0,0.0,0.0,0.0,0.0,0.0,0.0,0.0,0.0,0.0,0.0,0.0,0.0,0.0,0.0,0.0,0.0,0.0,0.0,0.0,0.0,0.0,0.0,0.0,0.0,0.0,0.0,0.0,0.0,0.0,0.0,0.0,0.0,0.0,1.8423,1.8322,1.8099,1.8074,1.7698,1.6896,0.0,0.0,0.0,0.0,0.0,0.0,0.0,0.0,0.0,0.0,0.0,0.0,0.0,0.0,0.0,0.0,0.0,0.0,0.0,0.0,0.0,0.0,0.0,0.0,0.0,0.0,0.0,0.0,0.0,0.0,0.0,0.0,0.0,0.0,0.0,0.0,0.0,0.0,0.0,0.0,0.0,0.0,0.0,0.0,0.0,0.0,0.0,0.0,0.0,0.0,0.0,0.0,0.0,0.0,0.0,0.0,0.0,0.0,0.0,0.0,0.0,0.0,0.0,0.0,0.0,0.0,0.0,0.0,0.0,0.0,0.0,0.0,0.0,0.0,0.0,0.0,0.0,0.0,0.0,0.0,0.0,0.0,0.0,0.0,0.0,0.0,0.0,0.0,0.0,0.0,0.0,0.0,0.0,0.0,0.0,0.0,0.0,0.0,0.0,0.0,0.0,0.0,0.0,0.0,0.0,0.0,0.0,0.0,2.0063,2.0173,1.9821,1.9086,1.9054,1.8659,0.0,0.0,0.0,0.0,0.0,0.0,0.0,0.0,0.0,0.0,0.0,0.0,0.0,0.0,0.0,0.0,0.0,0.0,0.0,0.0,0.0,0.0,0.0,0.0,0.0,0.0,0.0,0.0,0.0,0.0,0.0,0.0,0.0,0.0,0.0,0.0,0.0,0.0,0.0,0.0,0.0,0.0,0.0,0.0,0.0,0.0,0.0,0.0,0.0,0.0,0.0,0.0,0.0,0.0,0.0,0.0,0.0,0.0,0.0,0.0,0.0,0.0,0.0,0.0,0.0,0.0,0.0,0.0,0.0,0.0,0.0,0.0,0.0,0.0,0.0,0.0,0.0,0.0,0.0,0.0,0.0,0.0,0.0,0.0,0.0,0.0,0.0,0.0,0.0,0.0,0.0,0.0,0.0,0.0,0.0,0.0,0.0,0.0,0.0,0.0,0.0,0.0,0.0,0.0,0.0,0.0,0.0,0.0,0.0,2.1178,2.1746,2.1607,2.0804,2.0752,2.0134,0.0,0.0,0.0,0.0,0.0,0.0,0.0,0.0,0.0,0.0,0.0,0.0,0.0,0.0,0.0,0.0,0.0,0.0,0.0,0.0,0.0,0.0,0.0,0.0,0.0,0.0,0.0,0.0,0.0,0.0,0.0,0.0,0.0,0.0,0.0,0.0,0.0,0.0,0.0,0.0,0.0,0.0,0.0,0.0,0.0,0.0,0.0,0.0,0.0,0.0,0.0,0.0,0.0,0.0,0.0,0.0,0.0,0.0,0.0,0.0,0.0,0.0,0.0,0.0,0.0,0.0,0.0,0.0,0.0,0.0,0.0,0.0,0.0,0.0,0.0,0.0,0.0,0.0,0.0,0.0,0.0,0.0,0.0,0.0,0.0,0.0,0.0,0.0,0.0,0.0,0.0,0.0,0.0,0.0,0.0,0.0,0.0,0.0,0.0,0.0,0.0,0.0,0.0,0.0,0.0,0.0,0.0,0.0,0.0,2.2134,0.0,2.2684,2.2146,2.1857,2.1205,0.0,0.0,0.0,0.0,0.0,0.0,0.0,0.0,0.0,0.0,0.0,0.0,0.0,0.0,0.0,0.0,0.0,0.0,0.0,0.0,0.0,0.0,0.0,0.0,0.0,0.0,0.0,0.0,0.0,0.0,0.0,0.0,0.0,0.0,0.0,0.0,0.0,0.0,0.0,0.0,0.0,0.0,0.0,0.0,0.0,0.0,0.0,0.0,0.0,0.0,0.0,0.0,0.0,0.0,0.0,0.0,0.0,0.0,0.0,0.0,0.0,0.0,0.0,0.0,0.0,0.0,0.0,0.0,0.0,0.0,0.0,0.0,0.0,0.0,0.0,0.0,0.0,0.0,0.0,0.0,0.0,0.0,0.0,0.0,0.0,0.0,0.0,0.0,0.0,0.0,0.0,0.0,0.0,0.0,0.0,0.0,0.0,0.0,0.0,0.0,0.0,0.0,0.0,0.0,0.0,0.0,0.0,0.0,2.3147,2.3085,2.3064,2.3143,2.2997,2.2339,2.184,0.0,0.0,0.0,0.0,0.0,0.0,0.0,0.0,0.0,0.0,0.0,0.0,0.0,0.0,0.0,0.0,0.0,0.0,0.0,0.0,0.0,0.0,0.0,0.0,0.0,0.0,0.0,0.0,0.0,0.0,0.0,0.0,0.0,0.0,0.0,0.0,0.0,0.0,0.0,0.0,0.0,0.0,0.0,0.0,0.0,0.0,0.0,0.0,0.0,0.0,0.0,0.0,0.0,0.0,0.0,0.0,0.0,0.0,0.0,0.0,0.0,0.0,0.0,0.0,0.0,0.0,0.0,0.0,0.0,0.0,0.0,0.0,0.0,0.0,0.0,0.0,0.0,0.0,0.0,0.0,0.0,0.0,0.0,0.0,0.0,0.0,0.0,0.0,0.0,0.0,0.0,0.0,0.0,0.0,0.0,0.0,0.0,0.0,0.0,0.0,0.0,0.0,0.0,0.0,0.0,0.0,0.0,0.0,0.0,2.6603,2.6578,2.5994,2.4849,2.4553,2.3584,0.0,0.0,0.0,0.0,0.0,0.0,0.0,0.0,0.0,0.0,0.0,0.0,0.0,0.0,0.0,0.0,0.0,0.0,0.0,0.0,0.0,0.0,0.0,0.0,0.0,0.0,0.0,0.0,0.0,0.0,0.0,0.0,0.0,0.0,0.0,0.0,0.0,0.0,0.0,0.0,0.0,0.0,0.0,0.0,0.0,0.0,0.0,0.0,0.0,0.0,0.0,0.0,0.0,0.0,0.0,0.0,0.0,0.0,0.0,0.0,0.0,0.0,0.0,0.0,0.0,0.0,0.0,0.0,0.0,0.0,0.0,0.0,0.0,0.0,0.0,0.0,0.0,0.0,0.0,0.0,0.0,0.0,0.0,0.0,0.0,0.0,0.0,0.0,0.0,0.0,0.0,0.0,0.0,0.0,0.0,0.0,0.0,0.0,0.0,0.0,0.0,0.0,0.0,0.0,0.0,0.0,0.0,0.0,0.0,3.1047,2.9802,2.8626,2.7556,2.6582,2.5176,2.3297,0.0,0.0,0.0,0.0,0.0,0.0,0.0,0.0,0.0,0.0,0.0,0.0,0.0,0.0,0.0,0.0,0.0,0.0,0.0,0.0,0.0,0.0,0.0,0.0,0.0,0.0,0.0,0.0,0.0,0.0,0.0,0.0,0.0,0.0,0.0,0.0,0.0,0.0,0.0,0.0,0.0,0.0,0.0,0.0,0.0,0.0,0.0,0.0,0.0,0.0,0.0,0.0,0.0,0.0,0.0,0.0,0.0,0.0,0.0,0.0,0.0,0.0,0.0,0.0,0.0,0.0,0.0,0.0,0.0,0.0,0.0,0.0,0.0,0.0,0.0,0.0,0.0,0.0,0.0,0.0,0.0,0.0,0.0,0.0,0.0,0.0,0.0,0.0,0.0,0.0,0.0,0.0,0.0,0.0,0.0,0.0,0.0,0.0,0.0,0.0,0.0,0.0,0.0,0.0,0.0,0.0,0.0,0.0,3.6146,3.2924,3.115,3.0869,2.851,2.6662,0.0,0.0,0.0,0.0,0.0,0.0,0.0,0.0,0.0,0.0,0.0,0.0,0.0,0.0,0.0,0.0,0.0,0.0,0.0,0.0,0.0,0.0,0.0,0.0,0.0,0.0,0.0,0.0,0.0,0.0,0.0,0.0,0.0,0.0,0.0,0.0,0.0,0.0,0.0,0.0,0.0,0.0,0.0,0.0,0.0,0.0,0.0,0.0,0.0,0.0,0.0,0.0,0.0,0.0,0.0,0.0,0.0,0.0,0.0,0.0,0.0,0.0,0.0,0.0,0.0,0.0,0.0,0.0,0.0,0.0,0.0,0.0,0.0,0.0,0.0,0.0,0.0,0.0,0.0,0.0,0.0,0.0,0.0,0.0,0.0,0.0,0.0,0.0,0.0,0.0,0.0,0.0,0.0,0.0,0.0,0.0,0.0,0.0,0.0,0.0,0.0,0.0,0.0,0.0,0.0,0.0,0.0,0.0,0.0,3.9554,3.8191,3.5875,3.275,3.1333,2.9051,0.0,0.0,0.0,0.0,0.0,0.0,0.0,0.0,0.0,0.0,0.0,0.0,0.0,0.0,0.0,0.0,0.0,0.0,0.0,0.0,0.0,0.0,0.0,0.0,0.0,0.0,0.0,0.0,0.0,0.0,0.0,0.0,0.0,0.0,0.0,0.0,0.0,0.0,0.0,0.0,0.0,0.0,0.0,0.0,0.0,0.0,0.0,0.0,0.0,0.0,0.0,0.0,0.0,0.0,0.0,0.0,0.0,0.0,0.0,0.0,0.0,0.0,0.0,0.0,0.0,0.0,0.0,0.0,0.0,0.0,0.0,0.0,0.0,0.0,0.0,0.0,0.0,0.0,0.0,0.0,0.0,0.0,0.0,0.0,0.0,0.0,0.0,0.0,0.0,0.0,0.0,0.0,0.0,0.0,0.0,0.0,0.0,0.0,0.0,0.0,0.0,0.0,0.0,0.0,0.0,0.0,0.0,0.0,3.9799,4.1612,4.15,3.9843,3.661,3.3945,3.0876,0.0,0.0,0.0,0.0,0.0,0.0,0.0,0.0,0.0,0.0,0.0,0.0,0.0,0.0,0.0,0.0,0.0,0.0,0.0,0.0,0.0,0.0,0.0,0.0,0.0,0.0,0.0,0.0,0.0,0.0,0.0,0.0,0.0,0.0,0.0,0.0,0.0,0.0,0.0,0.0,0.0,0.0,0.0,0.0,0.0,0.0,0.0,0.0,0.0,0.0,0.0,0.0,0.0,0.0,0.0,0.0,0.0,0.0,0.0,0.0,0.0,0.0,0.0,0.0,0.0,0.0,0.0,0.0,0.0,0.0,0.0,0.0,0.0,0.0,0.0,0.0,0.0,0.0,0.0,0.0,0.0,0.0,0.0,0.0,0.0,0.0,0.0,0.0,0.0,0.0,0.0,0.0,0.0,0.0,0.0,0.0,0.0,0.0,0.0,0.0,0.0,0.0,0.0,0.0,0.0,0.0,0.0,0.0,4.1715,4.2769,4.3394,4.2868,4.1104,3.6281,3.2421,0.0,0.0,0.0,0.0,0.0,0.0,0.0,0.0,0.0,0.0,0.0,0.0,0.0,0.0,0.0,0.0,0.0,0.0,0.0,0.0,0.0,0.0,0.0,0.0,0.0,0.0,0.0,0.0,0.0,0.0,0.0,0.0,0.0,0.0,0.0,0.0,0.0,0.0,0.0,0.0,0.0,0.0,0.0,0.0,0.0,0.0,0.0,0.0,0.0,0.0,0.0,0.0,0.0,0.0,0.0,0.0,0.0,0.0,0.0,0.0,0.0,0.0,0.0,0.0,0.0,0.0,0.0,0.0,0.0,0.0,0.0,0.0,0.0,0.0,0.0,0.0,0.0,0.0,0.0,0.0,0.0,0.0,0.0,0.0,0.0,0.0,0.0,0.0,0.0,0.0,0.0,0.0,0.0,0.0,0.0,0.0,0.0,0.0,0.0,0.0,0.0,0.0,0.0,0.0,0.0,0.0,0.0,0.0,4.3196,4.5387,4.4296,4.3161,4.2102,3.8342,3.4713,0.0,0.0,0.0,0.0,0.0,0.0,0.0,0.0,0.0,0.0,0.0,0.0,0.0,0.0,0.0,0.0,0.0,0.0,0.0,0.0,0.0,0.0,0.0,0.0,0.0,0.0,0.0,0.0,0.0,0.0,0.0,0.0,0.0,0.0,0.0,0.0,0.0,0.0,0.0,0.0,0.0,0.0,0.0,0.0,0.0,0.0,0.0,0.0,2.3211,0.0,0.0,0.0,0.0,0.0,0.0,0.0,0.0,0.0,0.0,0.0,0.0,0.0,0.0,0.0,0.0,0.0,0.0,0.0,0.0,0.0,0.0,0.0,0.0,0.0,0.0,0.0,0.0,0.0,0.0,0.0,0.0,0.0,0.0,0.0,0.0,0.0,0.0,0.0,0.0,0.0,0.0,0.0,0.0,0.0,0.0,0.0,0.0,0.0,0.0,0.0,0.0,0.0,0.0,0.0,0.0,0.0,0.0,0.0,4.4841,4.6189,4.5372,4.4256,4.2904,3.9942,3.6477,0.0,0.0,0.0,0.0,0.0,0.0,0.0,0.0,0.0,0.0,0.0,0.0,0.0,0.0,0.0,0.0,0.0,0.0,0.0,0.0,0.0,0.0,0.0,0.0,0.0,0.0,0.0,0.0,0.0,0.0,0.0,0.0,0.0,0.0,0.0,0.0,0.0,0.0,0.0,0.0,0.0,0.0,0.0,0.0,0.0,0.0,0.0,0.0,0.0,0.0,0.0,0.0,0.0,0.0,0.0,0.0,0.0,0.0,0.0,0.0,0.0,0.0,0.0,0.0,0.0,0.0,0.0,0.0,0.0,0.0,0.0,0.0,0.0,0.0,0.0,0.0,0.0,0.0,0.0,0.0,0.0,0.0,0.0,0.0,0.0,0.0,0.0,0.0,0.0,0.0,0.0,0.0,0.0,0.0,0.0,0.0,0.0,0.0,0.0,0.0,0.0,0.0,0.0,0.0,0.0,0.0,0.0,4.4689,4.6414,4.6942,4.6355,4.5299,4.3814,4.1026,3.7663,3.3755,0.0,0.0,0.0,0.0,0.0,0.0,0.0,0.0,0.0,0.0,0.0,0.0,0.0,0.0,0.0,0.0,0.0,0.0,0.0,0.0,0.0,0.0,0.0,0.0,0.0,0.0,0.0,0.0,0.0,0.0,0.0,0.0,0.0,0.0,0.0,0.0,0.0,0.0,2.05,2.2205,0.0,0.0,0.0,0.0,0.0,0.0,0.0,0.0,2.4556,0.0,0.0,0.0,0.0,0.0,0.0,0.0,0.0,0.0,0.0,0.0,0.0,0.0,0.0,0.0,0.0,0.0,0.0,0.0,0.0,0.0,0.0,0.0,0.0,0.0,0.0,0.0,0.0,0.0,0.0,0.0,0.0,0.0,0.0,0.0,0.0,0.0,0.0,0.0,0.0,0.0,0.0,0.0,0.0,0.0,0.0,0.0,0.0,0.0,0.0,0.0,0.0,0.0,0.0,0.0,0.0,4.5304,4.5895,4.7583,5.0401,4.6968,4.5015,4.4686,4.0848,3.7692,3.5473,0.0,0.0,0.0,0.0,0.0,0.0,0.0,0.0,0.0,0.0,0.0,0.0,0.0,0.0,0.0,0.0,0.0,0.0,0.0,0.0,0.0,0.0,0.0,0.0,0.0,0.0,0.0,0.0,0.0,0.0,0.0,0.0,0.0,0.0,0.0,0.0,0.0,0.0,0.0,2.4054,2.5439,0.0,0.0,0.0,0.0,0.0,0.0,0.0,0.0,2.6222,0.0,0.0,0.0,0.0,0.0,0.0,0.0,0.0,0.0,0.0,0.0,0.0,0.0,0.0,0.0,0.0,0.0,0.0,0.0,0.0,0.0,0.0,0.0,0.0,0.0,0.0,0.0,0.0,0.0,0.0,0.0,0.0,0.0,0.0,0.0,0.0,0.0,0.0,0.0,0.0,0.0,0.0,0.0,0.0,0.0,0.0,0.0,0.0,0.0,0.0,0.0,0.0,0.0,0.0,0.0,4.5354,4.6818,4.8113,4.9283,4.7338,4.5623,4.4334,4.1405,3.8809,0.0,0.0,0.0,0.0,0.0,0.0,0.0,0.0,0.0,0.0,0.0,0.0,0.0,0.0,0.0,0.0,0.0,0.0,0.0,0.0,0.0,0.0,0.0,0.0,0.0,0.0,0.0,0.0,0.0,0.0,0.0,0.0,0.0,0.0,0.0,0.0,0.0,0.0,0.0,0.0,2.5764,2.672,2.7917,0.0,0.0,0.0,0.0,0.0,0.0,2.7972,2.7481,0.0,0.0,0.0,0.0,0.0,0.0,0.0,0.0,0.0,0.0,0.0,0.0,0.0,0.0,0.0,0.0,0.0,0.0,0.0,0.0,0.0,0.0,0.0,0.0,0.0,0.0,0.0,0.0,0.0,0.0,0.0,0.0,0.0,0.0,0.0,0.0,0.0,0.0,0.0,0.0,0.0,0.0,0.0,0.0,0.0,0.0,0.0,0.0,0.0,0.0,0.0,0.0,0.0,0.0,0.0,4.5091,4.731,4.8224,4.7785,4.7216,4.5852,4.3472,4.1562,3.9366,0.0,0.0,0.0,0.0,0.0,0.0,0.0,0.0,0.0,0.0,0.0,0.0,0.0,0.0,0.0,0.0,0.0,0.0,0.0,0.0,0.0,0.0,0.0,0.0,0.0,0.0,0.0,0.0,0.0,0.0,0.0,0.0,0.0,0.0,0.0,0.0,0.0,0.0,0.0,0.0,0.0,2.8147,2.9479,2.9358,0.0,0.0,0.0,0.0,2.8909,2.8897,0.0,0.0,0.0,0.0,0.0,0.0,0.0,0.0,0.0,0.0,0.0,0.0,0.0,0.0,0.0,0.0,0.0,0.0,0.0,0.0,0.0,0.0,0.0,0.0,0.0,0.0,0.0,0.0,0.0,0.0,0.0,0.0,0.0,0.0,0.0,0.0,0.0,0.0,0.0,0.0,0.0,0.0,0.0,0.0,0.0,0.0,0.0,0.0,0.0,0.0,0.0,0.0,0.0,0.0,0.0,0.0,4.5849,4.6995,4.7887,4.8518,4.6395,4.4358,4.2578,4.0115,3.7606,0.0,0.0,0.0,0.0,0.0,0.0,0.0,0.0,0.0,0.0,0.0,0.0,0.0,0.0,0.0,0.0,0.0,0.0,0.0,0.0,0.0,0.0,0.0,0.0,0.0,0.0,0.0,0.0,0.0,0.0,0.0,0.0,0.0,0.0,0.0,0.0,0.0,0.0,0.0,0.0,0.0,3.035,3.0526,3.1773,3.2676,0.0,0.0,3.2342,3.1576,3.1452,0.0,0.0,0.0,0.0,0.0,0.0,0.0,0.0,0.0,0.0,0.0,0.0,0.0,0.0,0.0,0.0,0.0,0.0,0.0,0.0,0.0,0.0,0.0,0.0,0.0,0.0,0.0,0.0,0.0,0.0,0.0,0.0,0.0,0.0,0.0,0.0,0.0,0.0,0.0,0.0,0.0,0.0,0.0,0.0,0.0,0.0,0.0,0.0,0.0,0.0,0.0,0.0,0.0,0.0,0.0,4.243,4.5259,4.624,4.6662,4.6522,4.5478,4.3839,4.1715,4.0078,3.8041,0.0,0.0,0.0,0.0,0.0,0.0,0.0,0.0,0.0,0.0,0.0,0.0,0.0,0.0,0.0,0.0,0.0,0.0,0.0,0.0,0.0,0.0,0.0,0.0,0.0,0.0,0.0,0.0,0.0,0.0,0.0,0.0,0.0,0.0,0.0,0.0,0.0,0.0,0.0,0.0,0.0,0.0,3.2176,3.3289,0.0,0.0,0.0,3.3903,3.3516,0.0,0.0,0.0,0.0,0.0,0.0,0.0,0.0,0.0,0.0,0.0,0.0,0.0,0.0,0.0,0.0,0.0,0.0,0.0,0.0,0.0,0.0,0.0,0.0,0.0,0.0,0.0,0.0,0.0,0.0,0.0,0.0,0.0,0.0,0.0,0.0,0.0,0.0,0.0,0.0,0.0,0.0,0.0,0.0,0.0,0.0,0.0,0.0,0.0,0.0,0.0,0.0,0.0,0.0,0.0,0.0,0.0,4.4416,4.5406,4.5435,4.4544,4.433,4.3048,4.0576,3.9842,0.0,0.0,0.0,0.0,0.0,0.0,0.0,0.0,0.0,0.0,0.0,0.0,0.0,0.0,0.0,0.0,0.0,0.0,0.0,0.0,0.0,0.0,0.0,0.0,0.0,0.0,0.0,2.1996,0.0,0.0,0.0,0.0,0.0,0.0,0.0,0.0,0.0,0.0,0.0,0.0,0.0,0.0,3.3373,3.4248,3.512,3.5434,0.0,0.0,3.5475,3.4976,3.5116,3.5044,0.0,0.0,0.0,0.0,0.0,0.0,0.0,0.0,0.0,0.0,0.0,0.0,0.0,0.0,0.0,0.0,0.0,0.0,0.0,0.0,0.0,0.0,0.0,0.0,0.0,0.0,0.0,0.0,0.0,0.0,0.0,0.0,0.0,0.0,0.0,0.0,0.0,0.0,0.0,0.0,0.0,0.0,0.0,0.0,0.0,0.0,0.0,0.0,0.0,0.0,0.0,0.0,0.0,0.0,4.1776,4.3544,4.4445,4.4489,4.3698,4.2872,4.1302,3.8864,3.871,3.7108,0.0,0.0,0.0,0.0,0.0,0.0,0.0,0.0,0.0,0.0,0.0,0.0,0.0,0.0,0.0,0.0,0.0,0.0,0.0,0.0,0.0,0.0,0.0,0.0,0.0,0.0,0.0,0.0,0.0,0.0,0.0,0.0,0.0,0.0,0.0,0.0,0.0,0.0,0.0,0.0,0.0,3.6032,3.6932,3.7805,3.8311,0.0,3.8212,3.7674,3.6058,3.6514,3.6218,3.3881,0.0,0.0,0.0,0.0,0.0,0.0,0.0,0.0,0.0,0.0,0.0,0.0,0.0,0.0,0.0,0.0,0.0,0.0,0.0,0.0,0.0,0.0,0.0,0.0,0.0,0.0,0.0,0.0,0.0,0.0,0.0,0.0,0.0,0.0,0.0,0.0,0.0,0.0,0.0,0.0,0.0,0.0,0.0,0.0,0.0,0.0,0.0,0.0,0.0,0.0,0.0,0.0,0.0,4.0379,4.2623,4.358,4.3893,4.3524,4.3229,4.2177,4.0172,3.9094,3.7421,0.0,0.0,0.0,0.0,0.0,0.0,0.0,0.0,0.0,0.0,0.0,0.0,0.0,0.0,0.0,0.0,0.0,0.0,0.0,0.0,0.0,0.0,0.0,0.0,0.0,0.0,0.0,0.0,2.9843,3.0758,3.1336,0.0,0.0,0.0,0.0,0.0,0.0,0.0,0.0,0.0,0.0,3.8279,3.8085,3.9218,0.0,0.0,3.8942,3.9059,3.8423,3.8106,3.7682,3.6678,3.5505,0.0,0.0,0.0,0.0,0.0,0.0,0.0,0.0,0.0,0.0,0.0,0.0,0.0,0.0,0.0,0.0,0.0,0.0,0.0,0.0,0.0,0.0,0.0,0.0,0.0,0.0,0.0,0.0,0.0,0.0,0.0,0.0,0.0,0.0,0.0,0.0,0.0,0.0,0.0,0.0,0.0,0.0,0.0,0.0,0.0,0.0,0.0,0.0,0.0,0.0,0.0,0.0,4.0312,4.2881,4.3333,4.3793,4.4267,4.3819,4.2809,4.1161,3.9896,3.8351,0.0,0.0,0.0,0.0,0.0,0.0,0.0,0.0,0.0,0.0,0.0,0.0,0.0,0.0,0.0,0.0,0.0,0.0,0.0,0.0,0.0,0.0,0.0,0.0,0.0,0.0,0.0,0.0,3.1946,3.2781,3.3663,0.0,0.0,0.0,0.0,0.0,0.0,0.0,0.0,0.0,0.0,3.9762,3.968,4.0503,4.066,3.945,3.9802,4.0116,3.9844,3.9297,3.8711,3.8198,0.0,0.0,0.0,0.0,0.0,0.0,0.0,0.0,0.0,0.0,0.0,0.0,0.0,0.0,0.0,0.0,0.0,0.0,0.0,0.0,0.0,0.0,0.0,0.0,0.0,0.0,0.0,2.1633,0.0,0.0,2.1679,0.0,0.0,0.0,0.0,0.0,0.0,0.0,0.0,0.0,0.0,0.0,0.0,0.0,0.0,0.0,0.0,0.0,0.0,0.0,0.0,0.0,0.0,4.2045,4.4671,4.3891,4.4266,4.5901,4.4466,4.2859,4.1228,4.1046,3.9858,3.7341,0.0,0.0,0.0,0.0,0.0,0.0,0.0,0.0,0.0,0.0,0.0,0.0,0.0,0.0,0.0,0.0,0.0,0.0,0.0,0.0,0.0,0.0,0.0,0.0,0.0,0.0,3.2093,3.2882,3.3748,0.0,0.0,0.0,0.0,0.0,0.0,0.0,0.0,0.0,3.9392,3.9797,4.0433,4.2042,4.1647,4.1182,4.1046,4.1078,4.0804,3.9996,3.9838,3.9206,0.0,0.0,0.0,0.0,0.0,0.0,0.0,0.0,0.0,0.0,0.0,0.0,0.0,0.0,0.0,0.0,0.0,0.0,0.0,0.0,0.0,0.0,0.0,0.0,0.0,0.0,0.0,2.6055,2.6849,0.0,0.0,0.0,0.0,0.0,0.0,0.0,0.0,0.0,0.0,0.0,3.6445,3.7027,0.0,0.0,0.0,0.0,0.0,0.0,0.0,0.0,0.0,0.0,0.0,0.0,4.2117,4.4563,4.4957,4.5419,4.603,4.5533,4.4476,4.2818,4.1687,3.9887,3.7376,0.0,0.0,0.0,0.0,0.0,0.0,0.0,0.0,0.0,0.0,0.0,0.0,0.0,0.0,0.0,0.0,0.0,0.0,0.0,0.0,0.0,0.0,0.0,0.0,0.0,3.4178,0.0,0.0,0.0,0.0,0.0,0.0,0.0,0.0,0.0,0.0,3.84,3.9846,4.128,4.2468,4.3176,4.3153,4.3401,4.3138,0.0,0.0,0.0,0.0,0.0,0.0,0.0,0.0,0.0,0.0,0.0,0.0,0.0,0.0,3.9263,3.6422,3.5484,3.5484,3.6934,0.0,0.0,0.0,0.0,0.0,0.0,0.0,0.0,0.0,0.0,0.0,0.0,0.0,0.0,3.019,3.1212,3.0974,0.0,0.0,0.0,0.0,0.0,0.0,0.0,0.0,3.7301,3.882,3.987,4.0204,4.0879,4.189,4.2163,4.1087,0.0,0.0,0.0,0.0,0.0,0.0,0.0,0.0,4.3003,4.5443,4.5845,4.6305,4.6862,4.6678,4.562,4.3648,4.1986,4.0152,3.8224,3.7613,3.6523,0.0,0.0,0.0,0.0,0.0,0.0,0.0,0.0,0.0,0.0,0.0,0.0,0.0,0.0,0.0,0.0,0.0,0.0,0.0,0.0,0.0,0.0,0.0,3.6791,0.0,0.0,0.0,0.0,0.0,0.0,0.0,0.0,0.0,3.9371,4.052,4.1846,4.2997,4.4093,4.4669,4.4355,0.0,0.0,0.0,0.0,0.0,0.0,0.0,4.3316,4.3089,4.2571,4.2172,4.2172,4.3202,4.4166,4.4688,0.0,0.0,4.0102,3.8975,3.9011,4.0427,4.1134,4.1996,4.3404,4.4106,4.4533,0.0,0.0,0.0,0.0,3.0897,0.0,0.0,0.0,3.2464,3.3392,0.0,3.4069,0.0,0.0,0.0,0.0,3.3711,3.6249,0.0,0.0,4.127,4.2461,4.2532,4.3293,4.3679,4.369,4.4383,4.4626,4.4347,4.2166,0.0,0.0,0.0,0.0,0.0,0.0,4.4745,4.7262,4.6546,4.6912,4.8474,4.7815,4.6207,4.3681,4.198,4.0723,3.9879,3.9746,3.9018,3.7421,3.5703,0.0,0.0,0.0,0.0,0.0,0.0,0.0,0.0,0.0,0.0,0.0,0.0,0.0,0.0,0.0,0.0,0.0,0.0,0.0,0.0,3.8138,0.0,0.0,0.0,0.0,0.0,0.0,0.0,0.0,0.0,4.1986,4.1272,4.187,4.2923,4.4625,0.0,0.0,0.0,0.0,4.5984,4.598,4.598,4.6022,4.6022,4.6009,4.5738,4.4912,0.0,0.0,4.4759,4.6161,4.732,4.7333,4.7395,4.6612,4.4355,4.3652,4.3792,4.4608,4.4794,4.5213,4.5989,4.6351,4.639,4.1357,0.0,0.0,0.0,0.0,3.578,3.695,3.8561,3.9122,3.9312,3.9213,3.8999,0.0,0.0,0.0,0.0,0.0,0.0,4.0761,4.2212,4.3506,4.4724,4.587,4.6027,4.638,4.6936,4.7034,4.6726,4.609,4.5887,4.4859,4.3092,0.0,0.0,0.0,0.0,4.6487,4.8805,4.816,4.7973,4.847,4.8222,4.6634,4.3549,4.2458,4.1484,4.0664,4.0042,3.9523,3.9069,3.7441,0.0,0.0,0.0,0.0,0.0,0.0,0.0,0.0,0.0,0.0,0.0,0.0,0.0,0.0,0.0,0.0,0.0,0.0,0.0,4.0589,4.102,4.1451,0.0,0.0,0.0,0.0,0.0,0.0,0.0,0.0,0.0,4.5167,4.4879,4.5402,0.0,0.0,4.7371,4.7433,4.755,4.7608,4.7541,4.8063,0.0,4.8461,4.8453,4.8371,4.8148,4.7623,4.743,4.7985,4.9057,5.0039,5.0616,5.0787,5.0578,4.9846,4.7306,4.5797,4.638,4.7067,4.7794,4.8613,4.9289,4.9729,4.742,4.4054,4.1033,3.9957,4.0283,4.0804,4.1834,4.3122,4.3281,4.3046,4.2612,4.2617,4.156,3.979,3.9786,0.0,0.0,0.0,4.349,4.5129,4.5561,4.6452,4.7683,4.7595,4.775,4.8166,4.8355,4.8138,4.7575,4.7968,4.7504,4.6228,0.0,4.629,4.6773,4.6813,4.7734,4.9501,4.9096,4.8833,4.8829,4.7868,4.6416,4.4508,4.328,4.2301,4.149,4.0991,4.0565,4.0284,3.8973,3.7586,0.0,0.0,0.0,0.0,0.0,0.0,0.0,0.0,0.0,0.0,0.0,3.2661,3.4634,0.0,0.0,0.0,4.0011,4.1658,4.3558,4.3671,0.0,0.0,0.0,0.0,0.0,0.0,0.0,4.5781,4.7301,4.8465,4.8683,4.836,4.812,4.8232,4.8819,4.9165,4.9038,0.0,5.012,5.0031,5.0474,5.0811,5.0831,5.062,5.0312,5.0035,4.9889,4.9928,5.0395,5.1211,5.1983,5.2477,5.2689,5.2616,5.2287,5.04,4.8855,4.8832,4.9219,4.9756,5.0276,5.1073,5.1667,5.2173,5.1018,4.6266,4.4647,4.5184,4.5189,4.564,4.6312,4.5561,4.5134,4.5102,4.5097,4.4608,4.3784,4.3794,0.0,4.5066,4.5002,4.5909,4.7553,4.7445,4.7834,4.865,4.8565,4.8446,4.8373,4.8923,4.9198,4.918,4.9055,4.9055,4.916,4.8613,4.8366,4.8355,4.8343,4.8792,4.968,4.9569,4.9547,4.9577,4.7248,4.6006,4.6037,4.4488,4.3186,4.2325,4.2295,4.1961,4.1198,4.0432,3.9596,3.8725,0.0,0.0,0.0,0.0,0.0,0.0,0.0,0.0,0.0,0.0,0.0,0.0,0.0,0.0,0.0,4.3433,0.0,4.6038,4.6103,0.0,0.0,0.0,4.6032,4.6,4.7469,4.8419,4.8293,0.0,0.0,5.1656,5.1702,5.0877,4.8725,4.9752,5.0653,5.0587,5.185,5.2897,5.2728,5.2869,5.2925,5.2909,5.2405,5.1688,5.1024,5.1539,5.1919,5.1891,5.257,5.3128,5.3215,5.3342,5.321,5.2428,5.279,5.3,5.1438,5.128,5.1305,5.1373,5.1965,5.2479,5.3916,5.3005,5.1102,4.9352,4.7813,4.779,4.7936,4.8162,4.7985,4.7432,4.6734,4.6737,4.6212,4.5356,4.5346,4.5808,4.666,4.661,4.7508,4.9039,4.899,4.9641,5.088,5.0821,5.1008,5.1396,5.1507,5.1544,5.1495,5.1433,5.1424,5.1489,5.1405,5.0555,4.9086,4.9796,5.0615,5.1413,5.013,4.9812,5.0336,4.8609,4.7331,4.67,4.5743,4.4515,4.3098,4.3114,4.3011,4.2821,4.2045,4.1214,4.0365,3.9563,0.0,0.0,0.0,0.0,0.0,0.0,0.0,0.0,0.0,3.8583,3.9685,0.0,4.2373,0.0,4.5332,4.6823,4.7745,4.765,0.0,0.0,4.822,4.8346,4.8286,4.974,5.0713,5.0665,5.1527,5.2158,5.2265,5.2238,5.2035,5.1464,5.1897,5.2199,5.2114,5.2443,5.3021,5.3569,5.3748,5.3951,5.4287,5.3814,5.2958,5.219,5.237,5.2365,5.1758,5.2488,5.3184,5.3248,5.3249,5.3384,5.3793,5.3557,5.3128,5.2728,5.282,5.299,5.2933,5.3145,5.3325,5.5913,5.4802,5.4283,5.2809,5.082,5.0109,4.9975,5.03,5.0364,5.0033,4.9422,4.9015,4.8745,4.8576,4.8618,4.8657,4.8719,4.9053,4.9491,4.9971,5.0236,5.0827,5.1672,5.1911,5.2222,5.2502,5.2359,5.2477,5.2742,5.2317,5.2303,5.2787,5.2875,5.2158,5.0734,5.13,5.1874,5.2247,5.1036,5.0635,5.1052,4.9485,4.8611,4.8533,4.7108,4.57,4.4428,4.4072,4.3775,4.3382,4.2961,4.2522,4.2058,4.1558,4.0689,0.0,0.0,0.0,0.0,0.0,0.0,0.0,0.0,0.0,0.0,0.0,4.4555,4.5783,4.7452,4.8691,4.921,4.9836,5.0214,5.0199,5.0561,5.0767,5.0703,5.1782,5.2533,5.2545,5.3169,5.3618,5.3568,5.3494,5.3458,5.3459,5.3575,5.3487,5.3141,5.3387,5.3826,5.4226,5.4361,5.4313,5.4385,5.3976,5.3355,5.2703,5.2854,5.3034,5.259,5.337,5.4087,5.4122,5.4216,5.4274,5.4402,5.4374,5.4143,5.3841,5.4164,5.422,5.3609,5.3821,5.4141,5.7671,5.6326,5.6214,5.5267,5.3759,5.2151,5.1802,5.234,5.2366,5.2318,5.2133,5.1357,5.1364,5.1982,5.1962,5.1543,5.0928,5.1455,5.1327,5.0736,5.1302,5.168,5.1894,5.2463,5.2755,5.2772,5.2568,5.2846,5.3525,5.265,5.2709,5.3644,5.3717,5.342,5.2882,5.2866,5.2809,5.2614,5.2114,5.1857,5.1876,5.0325,4.9902,5.0599,4.8474,4.687,4.6026,4.5372,4.4689,4.3936,4.3866,4.3859,4.3832,4.3692,4.3208,0.0,4.2279,0.0,0.0,0.0,0.0,0.0,0.0,0.0,0.0,4.5365,4.6484,4.7882,4.9572,5.06,5.0597,5.1958,5.2774,5.2685,5.2825,5.294,5.2989,5.3646,5.4061,5.4068,5.4623,5.4989,5.4784,5.4799,5.4744,5.4615,5.4546,5.4274,5.3822,5.4246,5.4662,5.4681,5.4649,5.4395,5.3959,5.3762,5.3475,5.2935,5.3305,5.3751,5.3583,5.4293,5.4941,5.5014,5.5056,5.5036,5.4491,5.5121,5.5325,5.4654,5.5067,5.5173,5.4235,5.4409,5.4943,5.7812,5.7582,5.6857,5.6071,5.5117,5.4077,5.3368,5.2995,5.2839,5.2695,5.2573,5.2308,5.224,5.2342,5.1767,5.1829,5.2282,5.1765,5.1809,5.2326,5.2481,5.2774,5.3224,5.339,5.3723,5.4083,5.4065,5.4153,5.4304,5.4046,5.4342,5.5157,5.4716,5.4728,5.5174,0.0,0.0,0.0,5.3308,5.3639,5.3581,5.1944,5.1182,5.1359,4.9705,0.0,4.7554,4.7452,4.7335,4.7115,4.6561,0.0,0.0,0.0,0.0,0.0,0.0,0.0,0.0,0.0,0.0,0.0,4.7363,4.7382,4.6151,4.792,4.9314,4.9664,5.1122,5.2137,5.2228,5.237,5.2506,5.2632,5.3121,5.3696,5.4388,5.5125,5.5579,5.5571,5.5619,5.5362,5.4775,5.4505,5.4493,5.4568,5.4468,5.4393,5.4259,5.4495,5.4665,5.4546,5.4414,5.4317,5.4259,5.4188,5.4084,5.4058,5.4178,5.4091,5.3595,5.3656,5.3908,5.3978,5.4121,5.446,5.4868,5.5275,5.5364,5.523,5.5361,5.5517,5.5417,5.5552,5.5705,5.8794,5.8381,5.7979,5.7334,0.0,5.5542,5.4911,5.4549,5.3731,5.3499,5.366,5.3249,5.3027,5.2875,5.2502,5.2291,5.2256,5.2182,5.2145,5.2122,5.2658,5.3044,5.3366,5.3921,5.4541,5.5174,5.5162,5.5559,5.6266,5.5879,5.6061,5.6803,5.5747,5.5462,5.588,5.567,5.4804,5.3234,5.3704,5.3895,5.3863,5.2698,5.2247,5.2622,5.1176,0.0,0.0,0.0,0.0,0.0,0.0,0.0,0.0,4.7241,4.7169,4.7035,4.7319,4.7593,4.7833,4.8544,4.9129,4.94,5.0188,5.0018,4.8583,4.9946,5.0914,5.1018,5.2122,5.29,5.3016,5.3419,5.3624,5.3662,5.3974,5.4481,5.5227,5.567,5.6069,5.643,5.6404,5.6168,5.5755,5.5683,5.5648,5.561,5.5567,5.5353,5.4986,5.4689,5.4451,5.432,5.4198,5.4127,5.4207,5.4244,5.4235,5.4323,5.4375,5.4042,5.3332,5.3335,5.3354,5.3029,5.3341,5.3923,5.4279,5.4538,5.465,5.4618,5.4377,5.4261,5.4451,5.4852,5.5075,5.9589,5.9003,5.9026,5.8478,5.7589,5.6807,5.6263,5.5931,5.4555,0.0,0.0,5.4118,5.3694,5.3545,5.3322,5.2835,5.2173,5.2586,5.2535,5.2128,5.3005,5.3539,5.3774,5.4631,5.5392,5.6049,5.5985,5.6628,5.7887,5.7205,5.7282,5.7901,5.6561,5.5835,5.5934,5.6094,5.5602,5.442,5.42,5.4124,5.4124,5.329,5.3131,5.3785,5.2488,5.1405,5.0708,5.0068,4.9371,4.8684,4.8657,4.8651,4.8629,4.9208,4.9499,4.9311,4.9835,5.0379,5.0828,5.0992,5.141,5.219,5.224,5.179,5.0849,5.1478,5.204,5.2261,5.3095,5.3703,5.3952,5.4689,5.5152,5.5117,5.515,5.5465,5.6166,5.6237,5.6546,5.7056,5.7146,5.7037,5.6858,5.6821,5.6812,5.6653,5.6374,5.6302,5.5563,5.4759,5.4246,5.41,5.4065,5.4028,5.4055,5.41,5.4173,5.4253,5.4282,5.4002,5.3455,5.337,5.3077,5.2441,5.3066,5.3656,5.3655,5.3946,5.4082,5.4109,5.3638,5.3116,5.3056,5.3634,5.4023,5.9261,5.941,5.9479,5.889,5.7942,5.7811,5.7135,5.6068,5.4862,5.4672,5.5144,5.451,5.4351,5.4518,5.3402,5.3075,5.3386,5.3002,5.3504,5.4755,5.4894,5.5407,5.6172,5.6229,5.6452,5.6717,5.6593,5.6668,5.7028,5.6853,5.7172,5.7817,5.6553,5.586,5.5985,5.6125,5.6436,5.6853,5.6209,5.5868,5.5837,5.4336,5.3613,5.3722,5.2876,5.2312,5.2198,5.2137,5.203,5.1869,5.1916,5.1851,5.1685,5.1677,5.1676,5.1548,5.1605,5.159,5.149,5.2108,5.2777,5.3433,5.3487,5.2856,5.1562,5.2331,5.3144,5.3725,5.4454,5.5359,5.6086,5.6154,5.6256,5.6541,5.6608,5.6964,5.7774,5.7806,5.78,5.7988,5.7955,5.7629,5.715,5.7,5.6774,5.609,5.6083,5.5701,5.5398,5.4605,5.4103,5.401,5.4,5.4,5.4084,5.4083,5.4155,5.429,5.4175,5.4064,5.4002,5.3852,5.3533,5.2948,5.3556,5.4009,5.358,5.4163,5.4524,5.4669,5.4511,5.4141,5.3078,5.3106,5.3278,5.988,5.989,6.0069,5.9722,5.8972,5.8534,5.7521,5.6189,5.5631,5.5557,5.5731,5.5377,5.5278,5.5326,5.4694,5.4236,5.4068,5.4172,5.4377,5.472,5.5276,5.5727,5.6139,5.6199,5.6541,5.7106,5.7007,5.7297,5.7902,5.7959,5.8212,5.8615,5.7626,5.7137,5.7192,5.7313,5.777,5.8526,5.7402,5.6625,5.6209,5.5367,5.4776,5.4403,5.3986,5.3606,5.3189,5.3179,5.2916,5.2309,5.23,5.2242,5.2114,5.2445,5.2613,5.2477,5.2847,5.3005,5.2818,5.3544,5.4111,5.4385,5.4867,5.4773,5.3918,5.3506,5.3628,5.4359,5.4883,5.549,5.6311,5.6452,5.6518,5.6612,5.6575,5.6912,5.766,5.7828,5.7987,5.8503,5.8597,5.8456,5.823,5.8201,5.8089,5.7582,5.6881,5.6089,5.5836,5.4754,5.427,5.4976,5.4502,5.4158,5.4428,5.4252,5.4289,5.4708,5.4345,5.4103,5.4073,5.3775,5.3121,5.2491,5.3074,5.3528,5.3285,5.3692,5.4042,5.4118,5.3912,5.3369,5.2851,5.2853,5.2894,6.0384,6.0227,6.0216,5.9963,5.9504,5.8958,5.7926,5.6667,5.665,5.6661,5.6576,5.6181,5.5992,5.598,5.5757,5.5218,5.4726,5.5136,5.515,5.4891,5.5548,5.6014,5.6285,5.6414,5.6884,5.7606,5.7519,5.7905,5.8764,5.8872,5.8841,5.8744,5.8315,5.8078,5.8132,5.8258,5.8734,5.9456,5.8396,5.7405,5.6715,5.6464,5.6018,5.5496,5.5481,5.5163,5.4489,5.4292,5.3876,5.3214,5.2776,5.2575,5.2682,5.3256,5.3515,5.3402,5.413,5.4522,5.4408,5.4936,5.5278,5.5235,5.5842,5.6132,5.5771,5.4759,5.4347,5.5085,5.5414,5.5859,5.6611,5.684,5.6866,5.6846,5.6856,5.7173,5.7664,5.7746,5.8009,5.8813,5.8984,5.9025,5.9187,5.9244,5.9094,5.8634,5.7566,5.661,5.639,5.5262,5.5122,5.5902,5.527,5.4277,5.4686,5.453,5.4438,5.4904,5.4373,5.4047,5.3917,5.3423,5.2761,5.2291,5.2715,5.3202,5.3249,5.3461,5.3688,5.3813,5.3618,5.3183,5.3084,5.2964,5.2861,6.0184,6.0065,5.9492,5.882,5.8637,5.8966,5.8665,5.7916,5.7958,5.8002,5.7888,5.6541,5.6125,5.6252,5.575,5.5398,5.516,5.5313,5.5818,5.6435,5.6514,5.7065,5.7862,5.7839,5.8058,5.8445,5.8219,5.8267,5.8667,5.8492,5.8095,5.7641,5.7623,5.7789,5.7941,5.8043,5.8555,5.956,5.9296,5.8816,5.819,5.76,5.7185,5.7084,5.7117,5.7048,5.663,5.6093,5.5881,5.6182,5.4782,5.4282,5.4856,5.4997,5.4941,5.4826,5.5597,5.607,5.606,5.6134,5.6162,5.6152,5.6193,5.6165,5.5982,5.5787,5.6003,5.6576,5.6825,5.7159,5.8082,5.8039,5.7993,5.8179,5.8258,5.8584,5.8669,5.8763,5.8713,5.8808,5.8895,5.9004,5.9004,5.9082,5.8886,5.8286,5.733,5.6748,5.7136,5.6509,5.6273,5.7387,5.6459,5.4862,5.4463,5.4564,5.4771,5.4438,5.4056,5.4121,5.4242,5.4121,5.3618,5.3143,5.329,5.365,5.3467,5.3593,5.4213,5.4237,5.4222,5.4231,5.385,5.3442,5.3133,6.0768,6.0576,6.08,6.0755,6.0487,6.0122,5.9757,5.9483,5.8492,5.8414,5.8895,5.819,5.7664,5.7308,5.7049,5.6601,5.6095,5.658,5.6736,5.6733,5.7102,5.7562,5.7935,5.7902,5.8042,5.8257,5.8065,5.8111,5.8356,5.8395,5.8307,5.8194,5.8219,5.8348,5.8515,5.8915,5.9163,5.9225,5.9636,5.9477,5.8784,5.8048,5.7479,5.7044,5.7041,5.6995,5.6917,5.6608,5.643,5.6397,5.5771,5.5393,5.54,5.5535,5.5576,5.5562,5.6027,5.632,5.632,5.6729,5.7016,5.7026,5.7332,5.7487,5.737,5.7359,5.7467,5.7497,5.7258,5.7376,5.8046,5.8099,5.8145,5.8268,5.829,5.8334,5.8385,5.8374,5.8374,5.8503,5.8566,5.8629,5.8692,5.8832,5.8753,5.8381,5.768,5.7295,5.7458,5.6823,5.6617,5.7063,5.6729,5.6459,5.5939,5.5753,5.5847,5.5914,5.5607,5.5384,5.5728,5.5078,5.4455,5.4177,5.4159,5.4083,5.3771,5.3854,5.4253,5.4397,5.4557,5.4564,5.4597,5.4434,5.4332,6.1385,6.13,6.1866,6.1886,6.1465,6.0503,6.027,6.0425,5.9007,5.894,5.9848,5.9771,5.9324,5.874,5.839,5.7747,5.7115,5.7738,5.7835,5.7394,5.7895,5.8151,5.8187,5.7895,5.7881,5.7962,5.7881,5.7869,5.8008,5.8153,5.8297,5.8363,5.8411,5.8519,5.8762,5.9229,5.9287,5.9064,5.9763,5.9865,5.9356,5.8975,5.8399,5.7565,5.7489,5.748,5.7388,5.7163,5.7015,5.6888,5.6439,5.6138,5.6075,5.6182,5.6414,5.6641,5.685,5.6942,5.6952,5.7509,5.7823,5.7829,5.8228,5.8476,5.8415,5.8371,5.8271,5.8051,5.7585,5.7537,5.7873,5.7997,5.7997,5.7997,5.7997,5.7997,5.802,5.7973,5.7994,5.8142,5.8209,5.8264,5.8385,5.8561,5.8619,5.8503,5.8136,5.7707,5.7582,5.7133,5.681,5.6763,5.7254,5.7365,5.7245,5.6867,5.6894,5.6732,5.6361,5.629,5.7012,5.5852,5.5354,5.5162,5.4828,5.469,5.4811,5.4801,5.4315,5.429,5.4422,5.4621,5.4716,5.4959,5.5112,6.1667,6.2138,6.1786,6.1165,6.0431,5.9685,5.9793,6.062,5.9713,5.9868,6.0694,6.0848,6.0731,6.0304,5.9346,5.8421,5.7933,5.8507,5.8872,5.8966,5.8956,5.9004,5.9062,5.8235,5.7917,5.8205,5.8112,5.7922,5.7656,5.7668,5.7631,5.7703,5.7776,5.795,5.8371,5.85,5.8603,5.9119,5.969,5.9987,6.0098,6.0667,6.0298,5.9213,5.9159,5.9103,5.8884,5.8192,5.8047,5.8549,5.7157,5.6607,5.7316,5.7338,5.7624,5.8386,5.8528,5.8539,5.8491,5.8528,5.8534,5.8476,5.8566,5.8513,5.8515,5.8393,5.8289,5.8193,5.7992,5.7946,5.7971,5.7997,5.7997,5.7997,5.7997,5.7997,5.7997,5.7916,5.7834,5.7869,5.795,5.8006,5.8094,5.8352,5.8297,5.8223,5.8146,5.8106,5.7845,5.7799,5.7737,5.7666,5.7712,5.7637,5.6718,5.6951,5.6926,5.6789,5.68,5.6415,5.6179,5.6037,5.6166,5.6209,5.5969,5.5906,5.6039,5.5687,5.4914,5.4584,5.4441,5.4538,5.4637,5.4791,5.4956,6.2194,6.198,6.0635,6.0199,6.0382,6.0077,6.0491,6.126,6.0416,6.0609,6.1461,6.1535,6.1158,6.0585,6.0615,6.0176,5.954,5.9712,5.9883,5.9955,5.9919,5.9931,5.9918,5.9589,5.9491,5.9515,5.9491,5.9431,5.9335,5.9213,5.8969,5.864,5.8458,5.8638,5.9031,5.9054,5.9446,6.0306,6.0539,6.0687,6.0763,6.1049,6.0954,6.0539,6.0505,6.0495,6.0412,6.0114,6.0009,6.0041,5.9416,5.9191,5.9275,5.8891,5.8843,5.9255,5.8815,5.8508,5.8572,5.8582,5.8826,5.9319,5.9275,5.9187,5.9146,5.8952,5.8642,5.8201,5.8042,5.8008,5.7997,5.7997,5.7997,5.7997,5.7997,5.7997,5.7997,5.7962,5.7904,5.7822,5.7727,5.7679,5.7844,5.7925,5.7937,5.8008,5.8077,5.8042,5.7985,5.7973,5.7964,5.7939,5.7973,5.787,5.7564,5.7582,5.766,5.7479,5.7391,5.7463,5.7353,5.6874,5.6858,5.6928,5.681,5.6516,5.6474,5.6002,5.5295,5.5035,5.4852,5.4568,5.4489,5.4665,5.4829,6.2704,6.1897,6.0622,6.0516,6.1128,6.0615,6.1079,6.2021,6.1214,6.1347,6.2165,6.2228,6.1874,6.1458,6.1826,6.1741,6.1178,6.0897,6.0738,6.0786,6.0786,6.0786,6.075,6.0517,6.0407,6.037,6.0407,6.0346,6.0286,6.0101,5.9772,5.9323,5.9125,5.9224,5.954,5.9492,5.9892,6.0605,6.0995,6.1154,6.1212,6.1539,6.1698,6.1675,6.1664,6.1519,6.1202,6.1187,6.1122,6.0941,6.0955,6.0839,6.064,5.9939,5.9586,5.9682,5.8902,5.8426,5.8465,5.8497,5.8873,5.9684,5.9675,5.9612,5.9564,5.9348,5.8839,5.8288,5.8302,5.8327,5.818,5.8474,5.8547,5.8143,5.7997,5.7997,5.7997,5.7916,5.7762,5.7631,5.7449,5.7437,5.7595,5.7595,5.7631,5.7726,5.7786,5.7798,5.7667,5.785,5.7996,5.8033,5.8336,5.8531,5.8494,5.8592,5.8089,5.7821,5.7765,5.804,5.8023,5.7597,5.748,5.7577,5.741,5.7043,5.6637,5.6231,5.5908,5.5621,5.5193,5.4879,5.4776,5.4631,5.474,6.3137,6.2222,6.1894,6.1959,6.2315,6.1091,6.141,6.2475,6.1973,6.2059,6.2769,6.2916,6.2733,6.2732,6.2733,6.2843,6.2462,6.1789,6.1508,6.1594,6.1594,6.1594,6.1557,6.097,6.0664,6.0664,6.0517,6.0408,6.0284,6.027,6.0071,5.9743,5.9667,5.9693,5.9664,5.9683,5.9696,6.0169,6.098,6.1298,6.1281,6.2118,6.256,6.2533,6.2484,6.2095,6.1296,6.1292,6.1355,6.1318,6.134,6.125,6.1211,6.0478,5.9878,5.9856,5.9002,5.8541,5.8526,5.8676,5.9094,5.9753,5.9734,5.987,5.9899,5.9605,5.9158,5.8688,5.8851,5.8939,5.851,5.9318,5.9612,5.8364,5.8205,5.8267,5.8145,5.7823,5.7534,5.7422,5.7298,5.7201,5.7251,5.74,5.7474,5.7363,5.7375,5.7338,5.7195,5.7627,5.7962,5.8168,5.8631,5.9115,5.9354,5.9496,5.8684,5.8045,5.8007,5.8075,5.7929,5.7632,5.7807,5.7945,5.8179,5.786,5.7499,5.7104,5.6809,5.6458,5.5865,5.5341,5.513,5.4981,5.4631,6.2774,6.2246,6.1442,6.117,6.1345,6.1251,6.1594,6.2047,6.218,6.2523,6.2806,6.2855,6.283,6.2805,6.2842,6.2842,6.2793,6.2462,6.2388,6.2426,6.2438,6.2389,6.2389,6.2169,6.2059,6.2059,6.2059,6.2022,6.1849,6.1684,6.1347,6.0796,6.0528,6.0465,6.0518,6.0023,6.0173,6.1407,6.1315,6.1438,6.1935,6.2341,6.2513,6.2488,6.2552,6.2424,6.2206,6.2338,6.2504,6.2561,6.269,6.2735,6.2538,6.1806,6.1343,6.1209,6.0324,5.9884,6.0007,6.0052,6.0359,6.1052,6.1225,6.1228,6.1109,6.0882,6.0431,5.9818,5.9917,5.9673,5.9233,5.9747,5.9942,5.8939,5.9235,5.948,5.9394,5.8896,5.8433,5.8113,5.7614,5.7237,5.7237,5.735,5.7374,5.7298,5.7275,5.7138,5.7142,5.7693,5.8202,5.8221,5.8977,5.9667,5.9901,5.9747,5.9041,5.8331,5.8141,5.7911,5.774,5.7738,5.7983,5.8253,5.8529,5.8545,5.8231,5.7928,5.756,5.7203,5.6686,5.6145,5.5647,5.5344,5.5171,6.3041,6.284,6.2085,6.1715,6.1708,6.2291,6.2365,6.2243,6.2853,6.3023,6.2853,6.2793,6.2793,6.2793,6.2793,6.2793,6.2793,6.2793,6.2976,6.316,6.2903,6.2976,6.327,6.36,6.3527,6.3319,6.3282,6.3099,6.278,6.2616,6.2378,6.2079,6.1814,6.1638,6.1638,6.1312,6.1529,6.1878,6.2069,6.2227,6.2331,6.2472,6.2499,6.2422,6.2223,6.2331,6.2692,6.2709,6.2818,6.3209,6.3643,6.3773,6.3477,6.2829,6.239,6.1937,6.1146,6.056,6.0771,6.0694,6.1138,6.1828,6.2001,6.1942,6.1799,6.1667,6.1239,6.0566,6.0639,6.0517,5.9967,6.0701,6.0848,6.0187,6.0091,6.0188,6.0091,5.9627,5.9209,5.8912,5.8509,5.8194,5.8119,5.7732,5.7659,5.7623,5.7331,5.7317,5.742,5.7913,5.8261,5.8802,5.9637,6.016,6.0457,6.0,5.9312,5.8722,5.8266,5.781,5.7473,5.7607,5.7797,5.8153,5.8428,5.8582,5.8365,5.8269,5.8023,5.7725,5.7479,5.7136,5.6723,5.6271,5.5977,6.3791,6.3747,6.3497,6.3271,6.3299,6.3714,6.3456,6.3125,6.3577,6.3441,6.2903,6.2793,6.278,6.278,6.278,6.2793,6.278,6.2793,6.3123,6.3466,6.3209,6.3246,6.4152,6.4765,6.4644,6.4116,6.4128,6.3675,6.2903,6.2914,6.307,6.3199,6.2894,6.2902,6.2594,6.3039,6.2493,6.1893,6.2937,6.3224,6.2513,6.2635,6.2687,6.2555,6.2061,6.2155,6.2867,6.2776,6.267,6.3234,6.4135,6.4336,6.3805,6.3539,6.3088,6.2498,6.1364,6.1107,6.1029,6.1567,6.174,6.2285,6.2506,6.2115,6.2352,6.2218,6.1826,6.1153,6.141,6.1337,6.0933,6.1692,6.2169,6.1679,6.0897,6.0383,5.9972,5.9976,5.9768,5.9626,5.9686,5.9688,5.9292,5.8686,5.8275,5.8177,5.7606,5.7446,5.7864,5.827,5.8889,5.9506,6.0093,6.0499,6.0724,6.029,5.9636,5.9239,5.8537,5.7799,5.7375,5.751,5.7619,5.7994,5.8319,5.8439,5.8535,5.8402,5.85,5.8495,5.8304,5.8081,5.7679,5.7189,5.669,6.3775,6.3647,6.3579,6.35,6.3396,6.3369,6.3223,6.3015,6.2988,6.3023,6.2817,6.2793,6.2743,6.2667,6.2755,6.2743,6.2705,6.2755,6.2866,6.305,6.2939,6.37,6.4916,6.5409,6.5189,6.4549,6.4868,6.4352,6.3088,6.3443,6.3412,6.2725,6.2765,6.2699,6.2695,6.2924,6.289,6.2816,6.3204,6.3484,6.3209,6.3198,6.3198,6.3147,6.3074,6.3179,6.3579,6.3992,6.375,6.3174,6.4197,6.4612,6.4286,6.419,6.4043,6.3651,6.3443,6.3038,6.2887,6.3696,6.4141,6.3738,6.4106,6.4611,6.4374,6.3785,6.3405,6.3038,6.2842,6.2144,6.163,6.2205,6.2535,6.235,6.1605,6.1031,6.0794,6.0417,6.0077,5.989,5.9389,5.941,5.9481,5.8774,5.8058,5.8262,5.7947,5.757,5.83,5.8458,5.9,5.9538,6.0097,6.0598,6.0801,6.0428,6.0022,5.9672,5.8871,5.7802,5.7534,5.7437,5.7559,5.7762,5.8142,5.833,5.8439,5.8439,5.8733,5.8955,5.8855,5.8501,5.8213,5.7779,5.7366,6.3725,6.359,6.359,6.3522,6.3444,6.354,6.3382,6.3088,6.316,6.3023,6.2866,6.2793,6.2755,6.2692,6.2705,6.2717,6.2692,6.2705,6.2963,6.3429,6.3759,6.4497,6.5506,6.6161,6.626,6.5546,6.5853,6.509,6.3898,6.4008,6.3734,6.3285,6.2983,6.3107,6.3657,6.3675,6.3627,6.3734,6.4041,6.4269,6.3948,6.4092,6.4198,6.4202,6.4215,6.4173,6.4274,6.5167,6.5184,6.4537,6.5112,6.5553,6.5004,6.5349,6.5324,6.4955,6.4894,6.4574,6.4274,6.516,6.5323,6.4685,6.5152,6.552,6.5209,6.4605,6.4115,6.4031,6.332,6.2658,6.2328,6.2536,6.2718,6.2571,6.2034,6.1532,6.1231,6.0906,6.0663,6.0416,6.0109,5.9947,6.0685,5.9489,5.9085,5.918,5.8878,5.8911,5.9233,5.9069,5.924,5.9983,6.0101,6.0408,6.0593,6.0326,5.9721,5.9407,5.8992,5.7954,5.7679,5.7534,5.7547,5.7703,5.7994,5.8209,5.8319,5.8481,5.8733,5.8895,5.8955,5.895,5.8634,5.8399,5.8024,6.359,6.359,6.3579,6.3522,6.3481,6.3969,6.3689,6.3211,6.3516,6.3417,6.2939,6.2793,6.2768,6.2768,6.2692,6.2667,6.2717,6.2641,6.3095,6.3758,6.4409,6.5086,6.5335,6.6654,6.7024,6.6741,6.6913,6.6088,6.5054,6.466,6.429,6.3992,6.3711,6.4028,6.4457,6.4882,6.4747,6.4576,6.5124,6.5233,6.4887,6.5008,6.519,6.5232,6.5113,6.5107,6.536,6.6006,6.6252,6.5542,6.6679,6.658,6.594,6.6606,6.6581,6.5989,6.5743,6.5533,6.5194,6.5715,6.5865,6.5213,6.562,6.5792,6.5591,6.4888,6.4324,6.4229,6.3382,6.2842,6.2719,6.2793,6.2793,6.2707,6.2144,6.1666,6.1333,6.1333,6.1358,6.1293,6.1195,6.1543,6.1752,6.1402,6.0642,6.0013,5.9674,5.9552,5.9671,5.9589,6.0109,6.1,6.0747,6.0095,6.0208,6.0211,5.9537,5.8982,5.8715,5.8133,5.789,5.7738,5.7643,5.7726,5.8006,5.8142,5.8209,5.8428,5.875,5.8902,5.8945,5.9082,5.914,5.8962,5.8672,6.3511,6.359,6.3462,6.3442,6.3384,6.3331,6.3211,6.3027,6.3075,6.3013,6.2829,6.2793,6.2743,6.2667,6.2705,6.2654,6.2574,6.2623,6.2775,6.2996,6.4044,6.4487,6.4783,6.5829,6.6642,6.6962,6.7134,6.6912,6.6432,6.5595,6.493,6.439,6.42,6.4263,6.4813,6.5242,6.5595,6.5694,6.5835,6.5697,6.557,6.5605,6.5838,6.6016,6.5986,6.6214,6.6472,6.6583,6.6448,6.6416,6.6815,6.6988,6.6579,6.6801,6.6838,6.6614,6.6542,6.6297,6.5964,6.6802,6.7432,6.6371,6.6691,6.7205,6.6297,6.5437,6.4727,6.4214,6.3332,6.2939,6.2903,6.2829,6.2793,6.2719,6.2609,6.223,6.1716,6.1532,6.152,6.1483,6.1445,6.16,6.2175,6.1012,6.058,6.0656,6.0507,6.0145,6.0145,6.0181,6.0724,6.1557,6.1014,6.0412,6.032,6.028,5.9699,5.926,5.8963,5.8869,5.8595,5.8141,5.8134,5.8035,5.8006,5.8108,5.8198,5.8465,5.876,5.8872,5.8992,5.9082,5.9215,5.9225,5.9225,6.3722,6.4007,6.359,6.3534,6.3675,6.3247,6.2966,6.2904,6.283,6.2793,6.2793,6.2793,6.2755,6.2692,6.2729,6.2735,6.2861,6.3062,6.2703,6.2563,6.3487,6.4101,6.4136,6.5065,6.6137,6.7036,6.7184,6.7134,6.6914,6.647,6.5729,6.4893,6.4704,6.5053,6.5413,6.5551,6.5844,6.622,6.6021,6.5804,6.582,6.6021,6.6294,6.6595,6.6684,6.6809,6.6917,6.6896,6.6721,6.6696,6.6953,6.7067,6.6933,6.7232,6.7417,6.7364,6.7417,6.7198,6.7024,6.7494,6.7765,6.6507,6.7035,6.6773,6.6116,6.5243,6.4899,6.4557,6.403,6.3392,6.338,6.2939,6.2866,6.2793,6.2793,6.2609,6.2205,6.1851,6.1594,6.1569,6.1471,6.1772,6.1644,6.1103,6.1092,6.1394,6.1412,6.1086,6.1159,6.1195,6.1195,6.1485,6.1086,6.0715,6.0564,6.0336,6.0018,5.9804,5.9811,5.9867,5.993,5.9316,5.8714,5.8496,5.8218,5.8175,5.8297,5.8524,5.876,5.8875,5.9004,5.9082,5.9159,5.9262,5.929,6.4007,6.4396,6.3891,6.3822,6.3923,6.3419,6.3051,6.2805,6.2793,6.2793,6.2793,6.2793,6.2793,6.2768,6.2629,6.2834,6.3166,6.3379,6.2875,6.2537,6.3573,6.395,6.4012,6.4775,6.575,6.6827,6.7025,6.7074,6.7358,6.6949,6.6319,6.5649,6.5485,6.5752,6.616,6.605,6.6033,6.6508,6.6083,6.5804,6.5836,6.613,6.6476,6.6794,6.6823,6.6809,6.6794,6.6765,6.6707,6.6503,6.6823,6.6811,6.6869,6.7462,6.8145,6.798,6.7983,6.7752,6.7519,6.7827,6.7629,6.6137,6.6615,6.6526,6.5823,6.5294,6.5097,6.4914,6.4557,6.3956,6.4016,6.3319,6.2841,6.273,6.2717,6.2717,6.257,6.2057,6.1775,6.1838,6.1923,6.2177,6.2243,6.2003,6.2063,6.206,6.2019,6.2028,6.2028,6.1992,6.1811,6.1738,6.1412,6.0942,6.0755,6.0721,6.0359,6.0149,6.0268,6.0411,6.0569,5.9933,5.915,5.8674,5.8456,5.8397,5.8395,5.8593,5.8791,5.8925,5.9024,5.9082,5.9168,5.93,5.9281,6.4003,6.3692,6.4734,6.4439,6.3395,6.3701,6.3442,6.2879,6.2793,6.2793,6.2793,6.2793,6.2793,6.273,6.2526,6.2635,6.2872,6.312,6.3256,6.3242,6.4021,6.413,6.4159,6.4651,6.5341,6.6026,6.6734,6.7579,6.8159,6.7601,6.6822,6.6601,6.6397,6.6489,6.6609,6.6501,6.659,6.6827,6.633,6.5927,6.5959,6.5947,6.6177,6.6551,6.6506,6.6491,6.6461,6.6218,6.5838,6.558,6.6307,6.6351,6.626,6.6907,6.7465,6.7787,6.7904,6.7913,6.8009,6.7997,6.7958,6.7672,6.751,6.715,6.6457,6.6101,6.5582,6.5202,6.4725,6.4138,6.4066,6.3377,6.2788,6.2576,6.2472,6.2384,6.2189,6.2043,6.2029,6.225,6.2374,6.2372,6.2287,6.2225,6.2141,6.1992,6.1923,6.1923,6.1937,6.1964,6.1942,6.1906,6.1919,6.1376,6.0919,6.0963,6.0819,6.042,6.0356,6.0277,6.0337,6.0013,5.9562,5.9194,5.8802,5.8556,5.8614,5.8698,5.8842,5.8994,5.9043,5.9072,5.9178,5.9309,5.93,6.4129,6.45,6.4671,6.4546,6.419,6.3965,6.3462,6.2778,6.2755,6.2755,6.273,6.2755,6.2741,6.2578,6.2462,6.2332,6.2328,6.3223,6.327,6.327,6.4179,6.4664,6.4546,6.5009,6.5568,6.6141,6.6738,6.7479,6.8487,6.7843,6.7323,6.7271,6.7166,6.7333,6.7552,6.7455,6.7591,6.7593,6.6971,6.6375,6.6339,6.6053,6.5994,6.6037,6.6083,6.6068,6.6068,6.5958,6.5736,6.5653,6.6053,6.6103,6.6115,6.6438,6.7106,6.7713,6.7926,6.8092,6.8235,6.8051,6.744,6.7013,6.7023,6.6408,6.5697,6.5314,6.5528,6.5401,6.5214,6.4813,6.4836,6.3696,6.3006,6.2744,6.2449,6.2177,6.2046,6.2019,6.2132,6.2344,6.2219,6.2103,6.2095,6.2046,6.2005,6.1937,6.184,6.184,6.1882,6.1882,6.1895,6.1964,6.1978,6.1774,6.1281,6.1237,6.1272,6.0903,6.0701,6.062,6.0311,6.017,6.003,5.9781,5.9404,5.8745,5.877,5.8879,5.8972,5.9081,5.9092,5.914,5.9215,5.9309,5.9412,6.407,6.4928,6.4617,6.4539,6.461,6.425,6.3466,6.2687,6.2654,6.2667,6.2629,6.2654,6.2578,6.247,6.2417,6.2243,6.1843,6.3515,6.3594,6.3555,6.4595,6.5209,6.5161,6.5513,6.6058,6.6315,6.6576,6.7132,6.7683,6.7734,6.7757,6.7644,6.7677,6.8091,6.8518,6.816,6.8566,6.8466,6.784,6.7111,6.6657,6.6161,6.5804,6.5804,6.5804,6.582,6.5852,6.5836,6.5836,6.5839,6.5985,6.6048,6.6068,6.6336,6.6977,6.7713,6.7935,6.8122,6.8044,6.766,6.6941,6.6596,6.6237,6.5618,6.525,6.5387,6.533,6.5757,6.5533,6.5417,6.517,6.4215,6.347,6.3125,6.2632,6.2112,6.2015,6.1923,6.1714,6.179,6.1818,6.1873,6.1923,6.1909,6.1895,6.184,6.1756,6.17,6.1728,6.1742,6.177,6.1895,6.195,6.1978,6.1779,6.157,6.1554,6.1425,6.1347,6.1298,6.087,6.0411,6.0294,6.0147,5.9411,5.8872,5.8933,5.901,5.9071,5.9139,5.9187,5.9384,5.9713,5.9882,5.9994,6.3626,6.3282,6.5121,6.4732,6.3179,6.4101,6.3759,6.2532,6.2485,6.2513,6.2565,6.2561,6.2532,6.2506,6.2604,6.2816,6.3306,6.3937,6.4607,6.4698,6.5209,6.5376,6.5237,6.542,6.5908,6.6255,6.6469,6.672,6.7119,6.7506,6.77,6.7674,6.771,6.8091,6.8784,6.8485,6.8641,6.8814,6.7976,6.6948,6.6153,6.5875,6.5804,6.5804,6.5804,6.5804,6.5804,6.5804,6.5867,6.599,6.6161,6.6161,6.6191,6.6895,6.7182,6.7188,6.7019,6.6865,6.7186,6.6969,6.6772,6.6591,6.6577,6.6598,6.6133,6.6074,6.6327,6.7444,6.6401,6.5598,6.5424,6.4686,6.4137,6.3632,6.3113,6.2586,6.234,6.1975,6.1767,6.1508,6.1652,6.1722,6.1776,6.1798,6.1784,6.1764,6.1708,6.1601,6.1601,6.1615,6.1658,6.1806,6.1918,6.1959,6.1964,6.1806,6.1642,6.1679,6.1669,6.1679,6.1049,6.0532,6.0619,6.0311,5.9631,5.9358,5.9547,5.9559,5.9308,5.9356,5.9581,5.9956,6.037,6.0492,6.0642,6.3163,6.3356,6.4247,6.4101,6.3314,6.3802,6.3411,6.2553,6.242,6.237,6.2493,6.2944,6.3175,6.3214,6.2897,6.289,6.3495,6.4269,6.4753,6.5221,6.5313,6.5395,6.5363,6.528,6.5497,6.5824,6.6261,6.6606,6.688,6.7164,6.7405,6.747,6.7643,6.8091,6.877,6.8556,6.8692,6.8624,6.7867,6.6765,6.6066,6.5804,6.5804,6.5804,6.5804,6.5839,6.5839,6.5804,6.5848,6.6052,6.6294,6.6512,6.6548,6.6936,6.7235,6.7119,6.6759,6.684,6.7255,6.6789,6.6593,6.6557,6.6536,6.6364,6.6269,6.6223,6.6295,6.6587,6.612,6.5705,6.554,6.492,6.4572,6.4122,6.3636,6.3274,6.2846,6.2245,6.1917,6.1658,6.148,6.1623,6.1666,6.1516,6.1509,6.143,6.1401,6.1386,6.1444,6.1544,6.1587,6.168,6.1792,6.189,6.1895,6.1842,6.1525,6.147,6.1438,6.1299,6.0871,6.0554,6.0818,6.1012,6.0764,6.0566,6.0441,6.0002,5.9665,5.9797,6.0003,6.0548,6.1093,6.1318,6.1355,6.3382,6.3617,6.3493,6.352,6.3627,6.3448,6.2948,6.2338,6.2301,6.2275,6.2443,6.3089,6.371,6.3986,6.3498,6.354,6.3847,6.457,6.484,6.5062,6.5235,6.5458,6.5379,6.5197,6.5154,6.5261,6.5759,6.6242,6.6641,6.6957,6.7273,6.7331,6.7682,6.8156,6.8536,6.855,6.8517,6.8378,6.7554,6.6653,6.5946,6.5804,6.5804,6.5875,6.5982,6.6089,6.6089,6.641,6.6526,6.689,6.7173,6.7385,6.7309,6.7426,6.7439,6.7236,6.6831,6.6857,6.7014,6.6801,6.6463,6.6361,6.632,6.6253,6.6253,6.6018,6.5998,6.6328,6.5955,6.5852,6.5661,6.5229,6.5066,6.4724,6.4245,6.3928,6.3571,6.2985,6.2571,6.2393,6.2143,6.1664,6.1605,6.131,6.1173,6.1123,6.1123,6.1152,6.127,6.1415,6.1458,6.1516,6.1722,6.182,6.1876,6.1809,6.1466,6.143,6.1399,6.1255,6.1007,6.1098,6.1426,6.1581,6.1697,6.1721,6.1568,6.0792,6.0079,6.052,6.097,6.1383,6.1768,6.2069,6.2144,6.4881,6.3761,6.3653,6.3416,6.3211,6.3228,6.2757,6.2073,6.2046,6.215,6.2399,6.2948,6.3607,6.4087,6.4411,6.4516,6.4736,6.5403,6.5463,6.549,6.5591,6.5507,6.5341,6.523,6.5348,6.5842,6.5963,6.6066,6.6481,6.7387,6.7492,6.7589,6.7782,6.8117,6.8268,6.8181,6.7898,6.7698,6.7048,6.6534,6.5982,6.5804,6.5839,6.6053,6.6482,6.6926,6.6946,6.7475,6.7936,6.8327,6.8506,6.8529,6.8371,6.8181,6.7966,6.7656,6.7364,6.7317,6.7317,6.69,6.6417,6.6269,6.6213,6.6252,6.6455,6.6069,6.6177,6.6498,6.6053,6.5839,6.5804,6.5732,6.5518,6.5304,6.4912,6.4697,6.4305,6.3734,6.3341,6.3214,6.2821,6.2286,6.1858,6.1628,6.1236,6.1165,6.1093,6.1123,6.1152,6.127,6.1299,6.1386,6.1601,6.1764,6.1856,6.1804,6.1778,6.1874,6.195,6.1738,6.1493,6.1726,6.1971,6.2175,6.2322,6.2514,6.2668,6.2077,6.1712,6.1693,6.1881,6.2219,6.2707,6.313,6.3083,6.3849,6.442,6.3416,6.2844,6.2563,6.2481,6.2336,6.215,6.2033,6.2322,6.2826,6.3083,6.3551,6.4195,6.4738,6.4951,6.4967,6.5526,6.5463,6.5395,6.5367,6.5335,6.5187,6.5275,6.5571,6.6156,6.6246,6.6477,6.7021,6.7876,6.767,6.7673,6.7682,6.7702,6.7716,6.7535,6.7197,6.6849,6.6475,6.6069,6.5946,6.5839,6.6018,6.6589,6.6712,6.7283,6.7673,6.8251,6.8681,6.9043,6.9375,6.9477,6.9485,6.9104,6.8798,6.8566,6.8275,6.8206,6.8027,6.7404,6.6697,6.6406,6.6305,6.6294,6.6515,6.6026,6.5927,6.6018,6.6034,6.5852,6.5804,6.5804,6.5732,6.5697,6.5554,6.5324,6.5019,6.4448,6.4198,6.4055,6.3464,6.2821,6.2429,6.2036,6.1593,6.12,6.1129,6.1108,6.1123,6.1138,6.1197,6.1255,6.1444,6.1831,6.1996,6.2073,6.2112,6.2223,6.2368,6.2119,6.189,6.2189,6.2426,6.2658,6.291,6.3094,6.3262,6.3358,6.3156,6.2735,6.2745,6.297,6.3496,6.4031,6.3796,6.3527,6.4334,6.3476,6.2829,6.2508,6.2141,6.2046,6.2114,6.2033,6.2621,6.354,6.3563,6.4085,6.4809,6.523,6.5417,6.5351,6.5343,6.5213,6.5181,6.5253,6.5217,6.5141,6.5212,6.5513,6.6152,6.6547,6.676,6.6545,6.8381,6.7824,6.7121,6.7245,6.7393,6.7106,6.6852,6.6587,6.632,6.626,6.6141,6.6161,6.6482,6.6873,6.7536,6.7754,6.7979,6.8466,6.8917,6.9384,6.9751,7.0098,7.0473,7.0454,7.029,6.9901,6.9743,6.9592,6.9486,6.9181,6.8567,6.7528,6.7047,6.6854,6.6557,6.6186,6.599,6.6046,6.603,6.5978,6.5911,6.5879,6.5863,6.5852,6.5764,6.5732,6.559,6.5502,6.5161,6.5054,6.4896,6.426,6.3755,6.3559,6.3143,6.2194,6.1634,6.1129,6.1093,6.1108,6.1108,6.1123,6.1182,6.1285,6.1717,6.2155,6.2075,6.1976,6.2109,6.2218,6.2267,6.2222,6.2488,6.2705,6.2853,6.3157,6.3595,6.3669,6.3605,6.36,6.3523,6.3571,6.3608,6.3806,6.4182,6.4031,6.4365,6.339,6.3849,6.3664,6.2966,6.2331,6.2005,6.2019,6.2028,6.2788,6.4033,6.4215,6.5011,6.601,6.5989,6.5976,6.5705,6.512,6.4979,6.5336,6.5019,6.5126,6.5283,6.539,6.5476,6.5428,6.5895,6.6072,6.5655,6.737,6.7059,6.6589,6.6839,6.7198,6.6735,6.675,6.6587,6.6428,6.6749,6.6907,6.7069,6.7511,6.8072,6.8323,6.8812,6.9001,6.9086,6.9787,7.0268,7.0703,7.1097,7.1462,7.1696,7.1481,7.1141,7.0792,7.068,7.0589,7.0457,6.9888,6.9078,6.7987,6.768,6.7219,6.6561,6.629,6.6254,6.6254,6.6284,6.6207,6.6079,6.6016,6.6005,6.5958,6.5958,6.5911,6.5855,6.5709,6.5546,6.547,6.5295,6.499,6.4842,6.4331,6.3083,6.2183,6.1396,6.1159,6.139,6.127,6.1343,6.1357,6.1444,6.1839,6.2212,6.1945,6.1862,6.2009,6.2132,6.2195,6.2305,6.2475,6.2717,6.2966,6.3183,6.3405,6.3621,6.3755,6.3797,6.3859,6.4049,6.4144,6.4294,6.4257,6.4144,6.2454,6.2384,6.2804,6.2758,6.2381,6.2136,6.2028,6.2028,6.2064,6.2607,6.3563,6.4106,6.4577,6.5265,6.6073,6.6154,6.5605,6.5254,6.5084,6.514,6.4796,6.4769,6.5014,6.5303,6.5511,6.5905,6.6123,6.6107,6.6167,6.7242,6.6894,6.6368,6.669,6.6759,6.6834,6.7014,6.73,6.7094,6.7397,6.7747,6.778,6.831,6.865,6.8606,6.9389,6.9697,6.9652,7.0511,7.119,7.1589,7.1962,7.2432,7.2505,7.2264,7.1682,7.1542,7.1479,7.1789,7.1914,7.1724,7.0869,6.9603,6.8457,6.8026,6.7412,6.6734,6.6605,6.6587,6.6697,6.6617,6.6521,6.6581,6.6566,6.6482,6.6421,6.633,6.6233,6.6016,6.5851,6.5898,6.5802,6.5673,6.554,6.5467,6.4418,6.3731,6.3105,6.2558,6.2565,6.2031,6.1798,6.1756,6.1806,6.2145,6.2282,6.2037,6.2093,6.2362,6.2318,6.2248,6.2357,6.2449,6.2552,6.2717,6.2953,6.3183,6.3368,6.3617,6.3968,6.4145,6.4234,6.4284,6.4294,6.4294,6.4257,6.1331,6.1408,6.2113,6.1898,6.1331,6.1774,6.2136,6.2354,6.2426,6.2875,6.3671,6.4468,6.4867,6.5222,6.5828,6.6317,6.5673,6.5175,6.5213,6.5161,6.4874,6.4927,6.5038,6.5163,6.5407,6.596,6.6335,6.6389,6.5854,6.7272,6.7273,6.6793,6.6908,6.7172,6.7259,6.7549,6.8009,6.7965,6.8378,6.8665,6.8788,6.9115,6.9605,6.9793,7.0157,7.0475,7.0635,7.1155,7.186,7.2155,7.2548,7.3006,7.2905,7.2717,7.228,7.2333,7.2434,7.2683,7.2876,7.296,7.206,7.1007,6.9864,6.9143,6.8633,6.7928,6.7804,6.7702,6.7382,6.7288,6.7295,6.7345,6.7005,6.691,6.6697,6.6608,6.656,6.6346,6.615,6.6197,6.6355,6.6242,6.6278,6.6173,6.5783,6.5355,6.4913,6.433,6.3769,6.3152,6.2681,6.2626,6.2393,6.254,6.2498,6.2131,6.2273,6.2702,6.2563,6.2262,6.2225,6.2328,6.2384,6.2462,6.2667,6.2892,6.3171,6.3462,6.384,6.4063,6.4193,6.4234,6.4284,6.4294,6.4294,6.1162,6.0518,6.1755,6.1376,6.0244,6.1666,6.2585,6.3178,6.3214,6.3649,6.4396,6.512,6.5446,6.5634,6.6226,6.6455,6.6244,6.5497,6.5576,6.553,6.5115,6.5209,6.5335,6.5445,6.5518,6.5677,6.6016,6.6272,6.5447,6.6776,6.7369,6.7382,6.7724,6.7875,6.799,6.8487,6.8741,6.8837,6.9309,6.9512,6.9559,7.024,7.061,7.092,7.121,7.1346,7.1406,7.1595,7.1743,7.1985,7.2201,7.2726,7.3112,7.3385,7.3385,7.3335,7.3298,7.3309,7.3296,7.332,7.3191,7.235,7.1789,7.1015,7.0091,6.9217,6.8992,6.8832,6.8604,6.8446,6.8317,6.7844,6.7409,6.7164,6.6852,6.6821,6.6876,6.6704,6.6474,6.653,6.6727,6.6852,6.7181,6.7112,6.6797,6.6628,6.6208,6.5784,6.5164,6.4435,6.4021,6.393,6.3596,6.301,6.2751,6.2426,6.2123,6.2415,6.2427,6.2235,6.2208,6.2222,6.2291,6.237,6.2397,6.2654,6.3171,6.3508,6.3764,6.3985,6.4121,6.4224,6.4274,6.4294,6.4294,6.01,6.0225,6.1056,6.1629,6.2171,6.3231,6.354,6.3287,6.3758,6.4229,6.4446,6.5265,6.5591,6.57,6.6365,6.664,6.6327,6.5964,6.5947,6.576,6.5387,6.5566,6.5723,6.5816,6.5796,6.6002,6.6237,6.641,6.6211,6.7029,6.7288,6.7308,6.8165,6.8578,6.9262,7.0014,6.9667,6.955,7.0186,7.024,7.0384,7.0982,7.1209,7.1096,7.1918,7.1902,7.1649,7.2065,7.2282,7.2543,7.2833,7.3261,7.3311,7.3385,7.3385,7.3385,7.3385,7.3385,7.3385,7.3385,7.3333,7.3241,7.2839,7.2206,7.1282,7.0482,7.005,7.0013,6.9783,6.9508,6.9353,6.8954,6.8665,6.8489,6.8079,6.768,6.765,6.7421,6.7207,6.74,6.7593,6.7437,6.7776,6.7784,6.7483,6.755,6.7403,6.6966,6.6518,6.5752,6.5332,6.5241,6.4556,6.3897,6.3311,6.29,6.2396,6.2107,6.2105,6.2195,6.2185,6.2212,6.2252,6.2357,6.2475,6.2867,6.337,6.3635,6.3736,6.3873,6.4021,6.4162,6.4254,6.4264,6.4284,5.9737,6.0075,6.0711,6.1779,6.3032,6.4013,6.4222,6.4085,6.4366,6.4611,6.4917,6.5374,6.5627,6.5736,6.6373,6.6771,6.672,6.6336,6.6247,6.6103,6.5638,6.5899,6.6064,6.6079,6.6048,6.6269,6.648,6.6565,6.659,6.675,6.7019,6.7901,6.8629,6.9313,7.0057,7.0855,7.1107,7.0835,7.0773,7.0907,7.1114,7.1399,7.1112,7.1172,7.2247,7.2225,7.2074,7.2733,7.2939,7.296,7.3161,7.2902,7.2902,7.2902,7.32,7.3237,7.3385,7.3385,7.3385,7.3385,7.3346,7.3333,7.3383,7.2955,7.2277,7.1528,7.1478,7.1404,7.0954,7.0536,7.0434,7.0293,7.0213,7.0132,6.9453,6.8741,6.8466,6.8224,6.8297,6.8429,6.8327,6.8103,6.8051,6.811,6.7994,6.7774,6.7664,6.7477,6.7216,6.6846,6.6599,6.6499,6.5601,6.4698,6.4054,6.3281,6.257,6.2109,6.2014,6.2078,6.2145,6.2265,6.2394,6.2488,6.2629,6.3026,6.3394,6.35,6.3602,6.3753,6.3905,6.4016,6.4121,6.4234,6.4264,5.9794,5.9921,6.0778,6.196,6.3068,6.4013,6.4686,6.5149,6.4748,6.495,6.5475,6.57,6.5663,6.5555,6.6134,6.6424,6.6279,6.6033,6.6046,6.6404,6.6016,6.6067,6.6268,6.6156,6.6294,6.6449,6.6741,6.699,6.6789,6.7106,6.7889,6.8801,6.9719,7.0223,7.0409,7.1688,7.197,7.1614,7.1495,7.1535,7.1372,7.1476,7.1677,7.1998,7.2579,7.298,7.3167,7.3346,7.3372,7.3136,7.2839,7.2468,7.2494,7.2568,7.2902,7.3125,7.3385,7.3385,7.3385,7.3385,7.332,7.3344,7.3331,7.3244,7.2757,7.2407,7.237,7.2287,7.182,7.1568,7.1414,7.1021,7.0797,7.0417,6.9779,6.9372,6.9186,6.8786,6.8451,6.8488,6.8201,6.8083,6.8509,6.8531,6.8421,6.8017,6.7921,6.7958,6.7664,6.7517,6.7444,6.7357,6.6555,6.5493,6.45,6.3649,6.268,6.2197,6.2031,6.1955,6.2046,6.2248,6.2511,6.2775,6.305,6.3051,6.3289,6.3442,6.3568,6.3691,6.3812,6.3845,6.3963,6.4121,6.4193,5.892,5.9981,6.1869,6.2861,6.3231,6.4056,6.449,6.4621,6.4623,6.5008,6.5605,6.6098,6.5844,6.5192,6.5663,6.5772,6.5301,6.5518,6.5432,6.5677,6.5739,6.6262,6.6582,6.6461,6.6595,6.6925,6.7287,6.7614,6.7883,6.823,6.8708,6.9733,7.0536,7.081,7.085,7.2122,7.2416,7.2254,7.2144,7.2346,7.2558,7.2182,7.2175,7.2522,7.299,7.3188,7.3331,7.3265,7.3265,7.3141,7.3104,7.3045,7.3112,7.3088,7.3162,7.3348,7.3385,7.3385,7.3385,7.3385,7.3383,7.3346,7.3383,7.3346,7.3272,7.3161,7.3008,7.2913,7.2768,7.2562,7.2286,7.176,7.1303,7.0735,7.0216,7.0062,6.9892,6.9295,6.8712,6.8432,6.8151,6.8284,6.8747,6.8898,6.8775,6.8701,6.8678,6.8531,6.7944,6.77,6.759,6.75,6.7232,6.6288,6.5098,6.3923,6.2881,6.2211,6.1968,6.1923,6.1937,6.2275,6.2651,6.3233,6.3579,6.3429,6.3324,6.3511,6.3624,6.368,6.3714,6.3758,6.3823,6.3926,6.4058,5.8506,6.0058,6.2003,6.323,6.3769,6.3858,6.4265,6.4845,6.5002,6.5242,6.5605,6.5989,6.5917,6.5265,6.5627,6.5337,6.483,6.4975,6.5337,6.5518,6.58,6.6373,6.6656,6.675,6.6968,6.7275,6.7506,6.7918,6.8673,6.8898,6.9256,7.0421,7.1103,7.1419,7.1531,7.229,7.2765,7.2878,7.2657,7.2972,7.3479,7.3023,7.2516,7.2812,7.3081,7.3268,7.3318,7.3265,7.3252,7.3053,7.2844,7.2661,7.2652,7.2602,7.2912,7.3248,7.3385,7.3385,7.3385,7.3385,7.3396,7.3383,7.341,7.3372,7.3318,7.3169,7.3248,7.3167,7.3061,7.2869,7.2788,7.2381,7.2226,7.183,7.1549,7.14,7.0849,7.0134,6.9929,6.9992,6.9389,6.8559,6.8995,6.9449,6.9265,6.8848,6.8885,6.8862,6.8348,6.7944,6.7847,6.7573,6.7259,6.645,6.5077,6.3933,6.2966,6.241,6.2009,6.2087,6.2248,6.2485,6.2802,6.3444,6.3713,6.3427,6.3431,6.3594,6.3628,6.3624,6.3658,6.3691,6.3747,6.3812,6.3883,5.8311,6.0099,6.1496,6.297,6.4157,6.3451,6.3939,6.5229,6.5518,6.5482,6.541,6.5555,6.6025,6.6025,6.57,6.5374,6.5011,6.4613,6.4975,6.5518,6.612,6.6489,6.67,6.6874,6.7062,6.7356,6.7661,6.8196,6.8848,6.9254,7.0071,7.1068,7.1478,7.177,7.2312,7.2684,7.2873,7.3094,7.3148,7.3406,7.3471,7.3383,7.295,7.2922,7.3162,7.3396,7.3432,7.3355,7.3329,7.3204,7.2881,7.265,7.2539,7.26,7.2862,7.3235,7.3385,7.3385,7.3385,7.3385,7.332,7.3318,7.3383,7.337,7.3292,7.3318,7.3396,7.337,7.3265,7.3172,7.3105,7.3027,7.2881,7.2526,7.2369,7.2152,7.138,7.0696,7.0804,7.094,7.0169,6.9142,6.9472,6.9926,6.9669,6.9229,6.8958,6.8862,6.8715,6.8421,6.8238,6.7697,6.7172,6.6171,6.5154,6.428,6.3437,6.2803,6.2512,6.2526,6.2634,6.2995,6.3344,6.3738,6.3857,6.3743,6.365,6.3754,6.3702,6.3628,6.3613,6.3647,6.3658,6.3736,6.3786,5.7838,6.0026,6.0253,6.1557,6.3321,6.264,6.3114,6.4577,6.5301,6.5265,6.4939,6.5265,6.5446,6.483,6.4011,6.3635,6.3563,6.3708,6.4192,6.4663,6.5482,6.6163,6.6685,6.6859,6.6932,6.7236,6.7743,6.8625,6.9193,7.0067,7.1134,7.2071,7.2122,7.2189,7.2087,7.2423,7.263,7.2879,7.3162,7.3344,7.328,7.3206,7.3158,7.3201,7.3333,7.3752,7.3858,7.3508,7.3731,7.3731,7.3397,7.3056,7.2921,7.287,7.3069,7.3235,7.3385,7.3385,7.3385,7.3385,7.332,7.3333,7.3385,7.3372,7.3333,7.3333,7.3372,7.3359,7.3305,7.3172,7.3105,7.3145,7.3003,7.2179,7.1789,7.1425,7.0859,7.0587,7.0485,7.0527,7.0248,7.005,7.0454,7.0527,7.0174,6.9867,6.9743,6.9559,6.8898,6.8715,6.8605,6.8087,6.7423,6.679,6.614,6.5057,6.4162,6.35,6.302,6.309,6.3315,6.3659,6.4045,6.4511,6.4483,6.4357,6.4264,6.3962,6.385,6.3776,6.3628,6.3602,6.365,6.3624,6.3702]}]]